[[{"header":{"parameterUnit":"m.s-1","parameterCategory":1,"la1":30.6,"la2":29.2853,"lo1":-89.7004,"lo2":-87.6739,"dy":0.0162,"dx":0.0183,"nx":112,"ny":82,"refTime":"2026-03-24T00:00:00:Z","depth":0,"parameterNumber":2,"parameterNumberName":"U-component_of_WINDS"},"data":[0.0,0.0,0.0,0.0,0.0,0.0,0.0,0.0,0.0,0.0,0.0,0.0,0.0,0.0,0.0,0.0,0.0,0.0,0.0,0.0,0.0,0.0,0.0,0.0,0.0,0.0,0.0,0.0,0.0,0.0,0.0,0.0,0.0,0.0,0.0,0.0,0.0,0.0,0.0,0.0,0.0,0.0,0.0,0.0,0.0,0.0,0.0,0.0,0.0,0.0,0.0,0.0,0.0,0.0,0.0,0.0,0.0,0.0,0.0,0.0,0.0,0.0,0.0,0.0,0.0,0.0,0.0,0.0,0.0,0.0,0.0,0.0,0.0,0.0,0.0,0.0,0.0,0.0,0.0,0.0,0.0,0.0,0.0,0.0,0.0,0.0,0.0,0.0,0.0,0.0,0.0,7.7997,9.0911,9.7717,9.5391,9.0633,8.4076,7.5339,0.0,0.0,0.0,0.0,0.0,0.0,0.0,0.0,0.0,0.0,0.0,0.0,0.0,0.0,0.0,0.0,0.0,0.0,0.0,0.0,0.0,0.0,0.0,0.0,0.0,0.0,0.0,0.0,0.0,0.0,0.0,0.0,0.0,0.0,0.0,0.0,0.0,0.0,0.0,0.0,0.0,0.0,0.0,0.0,0.0,0.0,0.0,0.0,0.0,0.0,0.0,0.0,0.0,0.0,0.0,0.0,0.0,0.0,0.0,0.0,0.0,0.0,0.0,0.0,0.0,0.0,0.0,0.0,0.0,0.0,0.0,0.0,0.0,0.0,0.0,0.0,0.0,0.0,0.0,0.0,0.0,0.0,0.0,0.0,0.0,0.0,0.0,0.0,0.0,0.0,0.0,0.0,0.0,0.0,0.0,0.0,0.0,0.0,0.0,0.0,0.0,0.0,0.0,0.0,7.2729,8.8286,9.5158,9.7903,9.6158,9.2529,8.6377,7.7105,0.0,0.0,0.0,0.0,0.0,0.0,0.0,0.0,0.0,0.0,0.0,0.0,0.0,0.0,0.0,0.0,0.0,0.0,0.0,0.0,0.0,0.0,0.0,0.0,0.0,0.0,0.0,0.0,0.0,0.0,0.0,0.0,0.0,0.0,0.0,0.0,0.0,0.0,0.0,0.0,0.0,0.0,0.0,0.0,0.0,0.0,0.0,0.0,0.0,0.0,0.0,0.0,0.0,0.0,0.0,0.0,0.0,0.0,0.0,0.0,0.0,0.0,0.0,0.0,0.0,0.0,0.0,0.0,0.0,0.0,0.0,0.0,0.0,0.0,0.0,0.0,0.0,0.0,0.0,0.0,0.0,0.0,0.0,0.0,0.0,0.0,0.0,0.0,0.0,0.0,0.0,0.0,0.0,0.0,0.0,0.0,0.0,0.0,0.0,0.0,0.0,0.0,0.0,7.2974,8.3965,9.335,9.7323,9.8255,9.5665,9.0555,8.3657,7.4703,6.2424,0.0,0.0,0.0,0.0,0.0,0.0,0.0,0.0,0.0,0.0,0.0,0.0,0.0,0.0,0.0,0.0,0.0,0.0,0.0,0.0,0.0,0.0,0.0,0.0,0.0,0.0,0.0,0.0,0.0,0.0,0.0,0.0,0.0,0.0,0.0,0.0,0.0,0.0,0.0,0.0,0.0,0.0,0.0,0.0,0.0,0.0,0.0,0.0,0.0,0.0,0.0,0.0,0.0,0.0,0.0,0.0,0.0,0.0,0.0,0.0,0.0,0.0,0.0,0.0,0.0,0.0,0.0,0.0,0.0,0.0,0.0,0.0,0.0,0.0,0.0,0.0,0.0,0.0,0.0,0.0,0.0,0.0,0.0,0.0,0.0,0.0,0.0,0.0,0.0,0.0,0.0,0.0,0.0,0.0,0.0,0.0,0.0,0.0,0.0,0.0,0.0,0.0,8.4825,9.3331,9.6604,9.8719,9.8309,9.4485,8.7719,7.9843,7.0847,5.9347,0.0,0.0,0.0,0.0,0.0,0.0,0.0,0.0,0.0,0.0,0.0,0.0,0.0,0.0,0.0,0.0,0.0,0.0,0.0,0.0,0.0,0.0,0.0,0.0,0.0,0.0,0.0,0.0,0.0,0.0,0.0,0.0,0.0,0.0,0.0,0.0,0.0,0.0,0.0,0.0,0.0,0.0,0.0,0.0,0.0,0.0,0.0,0.0,0.0,0.0,0.0,0.0,0.0,0.0,0.0,0.0,0.0,0.0,0.0,0.0,0.0,0.0,0.0,0.0,0.0,0.0,0.0,0.0,0.0,0.0,0.0,0.0,0.0,0.0,0.0,0.0,0.0,0.0,0.0,0.0,0.0,0.0,0.0,0.0,0.0,0.0,0.0,0.0,0.0,0.0,0.0,0.0,0.0,0.0,0.0,0.0,0.0,0.0,0.0,0.0,0.0,0.0,8.8653,9.6577,9.9258,9.9685,9.7781,9.2692,8.5272,7.6544,6.6385,5.6012,0.0,0.0,0.0,0.0,0.0,0.0,0.0,0.0,0.0,0.0,0.0,0.0,0.0,0.0,0.0,0.0,0.0,0.0,0.0,0.0,0.0,0.0,0.0,0.0,0.0,0.0,0.0,0.0,0.0,0.0,0.0,0.0,0.0,0.0,0.0,0.0,0.0,0.0,0.0,0.0,0.0,0.0,0.0,0.0,0.0,0.0,0.0,0.0,0.0,0.0,0.0,0.0,0.0,0.0,0.0,0.0,0.0,0.0,0.0,0.0,0.0,0.0,0.0,0.0,0.0,0.0,0.0,0.0,0.0,0.0,0.0,0.0,0.0,0.0,0.0,0.0,0.0,0.0,0.0,0.0,0.0,0.0,0.0,0.0,0.0,0.0,0.0,0.0,0.0,0.0,0.0,0.0,0.0,0.0,0.0,0.0,0.0,0.0,0.0,0.0,0.0,0.0,8.9508,9.751,0.0,9.9802,9.7704,9.2537,8.4534,7.5633,6.5893,0.0,0.0,0.0,0.0,0.0,0.0,0.0,0.0,0.0,0.0,0.0,0.0,0.0,0.0,0.0,0.0,0.0,0.0,0.0,0.0,0.0,0.0,0.0,0.0,0.0,0.0,0.0,0.0,0.0,0.0,0.0,0.0,0.0,0.0,0.0,0.0,0.0,0.0,0.0,0.0,0.0,0.0,0.0,0.0,0.0,0.0,0.0,0.0,0.0,0.0,0.0,0.0,0.0,0.0,0.0,0.0,0.0,0.0,0.0,0.0,0.0,0.0,0.0,0.0,0.0,0.0,0.0,0.0,0.0,0.0,0.0,0.0,0.0,0.0,0.0,0.0,0.0,0.0,0.0,0.0,0.0,0.0,0.0,0.0,0.0,0.0,0.0,0.0,0.0,0.0,0.0,0.0,0.0,0.0,0.0,0.0,0.0,0.0,0.0,0.0,0.0,0.0,7.8007,9.0052,9.817,0.0,9.9802,9.7704,9.2537,8.4223,7.5283,6.5907,0.0,0.0,0.0,0.0,0.0,0.0,0.0,0.0,0.0,0.0,0.0,0.0,0.0,0.0,0.0,0.0,0.0,0.0,0.0,0.0,0.0,0.0,0.0,0.0,0.0,0.0,0.0,0.0,0.0,0.0,0.0,0.0,0.0,0.0,0.0,0.0,0.0,0.0,0.0,0.0,0.0,0.0,0.0,0.0,0.0,0.0,0.0,0.0,0.0,0.0,0.0,0.0,0.0,0.0,0.0,0.0,0.0,0.0,0.0,0.0,0.0,0.0,0.0,0.0,0.0,0.0,0.0,0.0,0.0,0.0,0.0,0.0,0.0,0.0,0.0,0.0,0.0,0.0,0.0,0.0,0.0,0.0,0.0,0.0,0.0,0.0,0.0,0.0,0.0,0.0,0.0,0.0,0.0,0.0,0.0,0.0,0.0,0.0,0.0,0.0,0.0,0.0,7.8069,9.0596,9.883,9.9724,9.9802,9.7704,9.2576,8.4301,7.5344,0.0,0.0,0.0,0.0,0.0,0.0,0.0,0.0,0.0,0.0,0.0,0.0,0.0,0.0,0.0,0.0,0.0,0.0,0.0,0.0,0.0,0.0,0.0,0.0,0.0,0.0,0.0,0.0,0.0,0.0,0.0,0.0,0.0,0.0,0.0,0.0,0.0,0.0,0.0,0.0,0.0,0.0,0.0,0.0,0.0,0.0,0.0,0.0,0.0,0.0,0.0,0.0,0.0,0.0,0.0,0.0,0.0,0.0,0.0,0.0,0.0,0.0,0.0,0.0,0.0,0.0,0.0,0.0,0.0,0.0,0.0,0.0,0.0,0.0,0.0,0.0,0.0,0.0,0.0,0.0,0.0,0.0,0.0,0.0,0.0,0.0,0.0,0.0,0.0,0.0,0.0,0.0,0.0,0.0,0.0,0.0,0.0,0.0,0.0,0.0,0.0,0.0,0.0,0.0,9.0576,9.883,9.9724,9.9802,9.8209,9.4285,8.772,7.9541,6.9546,0.0,0.0,0.0,0.0,0.0,0.0,0.0,0.0,0.0,0.0,0.0,0.0,0.0,0.0,0.0,0.0,0.0,0.0,0.0,0.0,0.0,0.0,0.0,0.0,0.0,0.0,0.0,0.0,0.0,0.0,0.0,0.0,0.0,0.0,0.0,0.0,0.0,0.0,0.0,0.0,0.0,0.0,0.0,0.0,0.0,0.0,0.0,0.0,0.0,0.0,0.0,0.0,0.0,0.0,0.0,0.0,0.0,0.0,0.0,0.0,0.0,0.0,0.0,0.0,0.0,0.0,0.0,0.0,0.0,0.0,0.0,0.0,0.0,0.0,0.0,0.0,0.0,0.0,0.0,0.0,0.0,0.0,0.0,0.0,0.0,0.0,0.0,0.0,0.0,0.0,0.0,0.0,0.0,0.0,0.0,0.0,0.0,0.0,0.0,0.0,0.0,0.0,7.7442,9.0343,9.8714,9.9219,9.9607,9.8675,9.5917,9.0789,8.3485,7.3518,0.0,0.0,0.0,0.0,0.0,0.0,0.0,0.0,0.0,0.0,0.0,0.0,0.0,0.0,0.0,0.0,0.0,0.0,0.0,0.0,0.0,0.0,0.0,0.0,0.0,0.0,0.0,0.0,0.0,0.0,0.0,0.0,0.0,0.0,0.0,0.0,0.0,0.0,0.0,0.0,0.0,0.0,0.0,0.0,0.0,0.0,0.0,0.0,0.0,0.0,0.0,0.0,0.0,0.0,0.0,0.0,0.0,0.0,0.0,0.0,0.0,0.0,0.0,0.0,0.0,0.0,0.0,0.0,0.0,0.0,0.0,0.0,0.0,0.0,0.0,0.0,0.0,0.0,0.0,0.0,0.0,0.0,0.0,0.0,0.0,0.0,0.0,0.0,0.0,0.0,0.0,0.0,0.0,0.0,0.0,0.0,0.0,0.0,0.0,0.0,0.0,0.0,7.6687,8.9934,9.8403,9.8481,9.9335,9.9219,9.7471,9.3547,8.7137,7.7658,0.0,0.0,0.0,0.0,0.0,0.0,0.0,0.0,0.0,0.0,0.0,0.0,0.0,0.0,0.0,0.0,0.0,0.0,0.0,0.0,0.0,0.0,0.0,0.0,0.0,0.0,0.0,0.0,0.0,0.0,0.0,0.0,0.0,0.0,0.0,0.0,0.0,0.0,0.0,0.0,0.0,0.0,0.0,0.0,0.0,0.0,0.0,0.0,0.0,0.0,0.0,0.0,0.0,0.0,0.0,0.0,0.0,0.0,0.0,0.0,4.9403,0.0,0.0,0.0,0.0,0.0,0.0,0.0,0.0,0.0,0.0,0.0,0.0,0.0,0.0,0.0,0.0,0.0,0.0,0.0,0.0,0.0,0.0,0.0,0.0,0.0,0.0,0.0,0.0,0.0,0.0,0.0,0.0,0.0,0.0,0.0,0.0,0.0,0.0,0.0,0.0,0.0,7.6609,8.939,9.7743,9.8442,9.984,10.0112,9.8364,9.5528,8.9818,8.0377,0.0,0.0,0.0,0.0,0.0,0.0,0.0,0.0,0.0,0.0,0.0,0.0,0.0,0.0,0.0,0.0,0.0,0.0,0.0,0.0,0.0,0.0,0.0,0.0,0.0,0.0,0.0,0.0,0.0,0.0,0.0,0.0,0.0,0.0,0.0,0.0,0.0,0.0,0.0,0.0,0.0,0.0,0.0,0.0,0.0,0.0,0.0,0.0,0.0,0.0,0.0,0.0,0.0,0.0,0.0,0.0,0.0,0.0,0.0,0.0,0.0,5.4056,0.0,0.0,0.0,0.0,0.0,0.0,0.0,0.0,0.0,0.0,0.0,0.0,0.0,0.0,0.0,0.0,0.0,0.0,0.0,0.0,0.0,0.0,0.0,0.0,0.0,0.0,0.0,0.0,0.0,0.0,0.0,0.0,0.0,0.0,0.0,0.0,0.0,0.0,0.0,0.0,7.657,8.8885,9.6927,9.7781,9.9763,10.0307,9.8636,9.615,9.1177,8.2941,7.3967,0.0,0.0,0.0,0.0,0.0,0.0,0.0,0.0,0.0,0.0,0.0,0.0,0.0,0.0,0.0,0.0,0.0,0.0,0.0,0.0,0.0,0.0,0.0,0.0,0.0,0.0,0.0,0.0,0.0,0.0,0.0,0.0,0.0,0.0,0.0,0.0,0.0,0.0,0.0,0.0,0.0,0.0,0.0,0.0,0.0,0.0,0.0,0.0,0.0,0.0,0.0,0.0,0.0,0.0,0.0,7.541,7.6239,7.7014,7.7345,7.1339,6.6725,6.3318,0.0,0.0,0.0,0.0,0.0,0.0,0.0,0.0,0.0,0.0,0.0,0.0,0.0,0.0,0.0,0.0,0.0,0.0,0.0,0.0,0.0,0.0,0.0,0.0,0.0,7.2413,7.1209,0.0,0.0,0.0,0.0,0.0,0.0,0.0,0.0,0.0,0.0,0.0,0.0,7.6609,8.8341,9.6033,9.6888,9.9258,10.0112,9.8442,9.6228,9.2032,8.5272,7.7503,6.9414,0.0,0.0,0.0,0.0,0.0,0.0,0.0,0.0,0.0,0.0,0.0,0.0,0.0,0.0,0.0,0.0,0.0,0.0,0.0,0.0,0.0,0.0,0.0,0.0,0.0,0.0,0.0,0.0,0.0,0.0,0.0,0.0,4.8469,4.7811,0.0,0.0,0.0,0.0,0.0,0.0,0.0,0.0,0.0,0.0,0.0,0.0,0.0,0.0,7.4364,7.9388,8.2065,8.2316,8.4781,8.6023,8.6095,8.7032,8.7475,8.7569,8.8041,0.0,7.223,6.9711,0.0,0.0,0.0,0.0,0.0,0.0,0.0,0.0,0.0,0.0,0.0,0.0,0.0,0.0,0.0,0.0,0.0,0.0,0.0,0.0,0.0,0.0,7.9018,8.0844,8.3058,8.4068,0.0,7.5094,6.8645,6.4372,0.0,0.0,0.0,0.0,0.0,0.0,0.0,0.0,7.6687,8.7875,9.5179,9.5994,9.8403,9.9258,9.751,9.6383,9.3159,8.702,8.2087,7.5922,6.8163,6.101,0.0,0.0,0.0,0.0,0.0,0.0,0.0,0.0,0.0,0.0,0.0,0.0,0.0,0.0,0.0,0.0,0.0,0.0,0.0,0.0,0.0,0.0,0.0,0.0,0.0,0.0,0.0,0.0,0.0,4.8933,5.2779,5.3391,5.37,5.3251,0.0,0.0,0.0,0.0,0.0,0.0,0.0,0.0,0.0,7.1607,7.673,8.1328,8.5251,9.0375,9.3209,9.3714,9.581,9.6795,9.6771,9.7639,9.8026,9.804,9.8802,9.5311,8.8623,8.1716,7.607,7.1287,0.0,0.0,0.0,0.0,0.0,0.0,7.2841,0.0,0.0,0.0,0.0,0.0,0.0,0.0,0.0,0.0,0.0,0.0,0.0,0.0,0.0,8.6282,8.7564,8.8341,8.8069,8.4301,7.929,0.0,6.9306,6.4527,5.7573,0.0,0.0,0.0,0.0,0.0,7.8202,8.8341,9.479,9.5179,9.7548,9.8364,9.6616,9.6111,9.4169,9.0128,8.6749,8.1947,7.5236,6.8812,6.2557,0.0,0.0,0.0,0.0,0.0,0.0,0.0,0.0,0.0,0.0,0.0,0.0,0.0,0.0,0.0,0.0,0.0,0.0,0.0,0.0,0.0,0.0,0.0,0.0,0.0,0.0,0.0,0.0,5.4481,5.8308,5.9852,6.0007,5.9537,0.0,0.0,0.0,0.0,0.0,0.0,7.0137,7.2696,7.6381,8.1407,8.5846,9.0081,9.4013,9.8473,10.0997,10.1705,10.3211,10.3885,10.3885,10.4493,10.4776,10.4776,10.5009,10.36,10.0585,9.2293,8.6009,8.1077,7.5521,7.4239,0.0,7.4861,7.7036,8.0727,8.3796,8.3835,8.2126,7.9367,0.0,6.9539,6.4799,0.0,0.0,0.0,0.0,7.3035,7.8823,0.0,8.9002,9.0478,9.0983,9.1216,9.141,9.0478,8.7642,0.0,7.7075,7.2569,6.5265,0.0,0.0,0.0,0.0,7.1559,8.0144,8.8885,9.4324,9.4363,9.6266,9.7005,9.5705,9.5395,9.4268,9.1957,8.9625,8.5871,8.0403,7.496,6.9015,6.249,0.0,0.0,0.0,0.0,0.0,0.0,0.0,0.0,0.0,0.0,0.0,0.0,0.0,0.0,0.0,0.0,0.0,0.0,0.0,0.0,0.0,0.0,0.0,0.0,0.0,0.0,0.0,0.0,0.0,6.698,6.9264,0.0,0.0,0.0,0.0,7.0407,7.3995,7.7486,8.0825,8.3505,8.6904,9.1255,9.3974,9.6694,9.9374,10.2094,10.3415,10.3492,10.4386,10.4813,10.4813,10.4891,10.4891,10.4891,10.5823,10.4595,10.1992,9.8993,9.5251,9.0944,8.6554,8.5428,8.6205,8.6166,8.7836,9.0672,9.4907,9.4207,9.1294,9.0284,8.2708,7.3734,7.2608,6.9888,0.0,0.0,7.6104,7.9989,8.5195,8.9779,9.3314,9.4207,9.5023,9.514,9.3586,9.3197,9.1333,0.0,8.2009,7.828,7.2142,0.0,0.0,6.8101,7.1598,7.6026,8.2164,8.9118,9.3469,9.3469,9.4324,9.4851,9.4796,9.4018,9.2832,9.1175,8.9385,8.646,8.2169,7.85,7.3789,6.781,6.0878,0.0,0.0,0.0,0.0,0.0,0.0,0.0,0.0,0.0,0.0,0.0,0.0,0.0,0.0,0.0,0.0,0.0,0.0,0.0,0.0,0.0,0.0,0.0,0.0,0.0,0.0,0.0,0.0,7.5605,7.7681,0.0,0.0,7.574,7.6575,8.0301,8.5286,8.9143,9.1471,9.4559,9.7222,9.9367,10.1425,10.29,10.392,10.5318,10.6017,10.6017,10.6406,10.6484,10.6484,10.6484,10.6484,10.6484,10.6794,10.6095,10.4697,10.3196,9.974,9.5062,9.1877,9.1177,9.1877,9.1333,9.2731,9.5217,9.7315,9.7238,9.5723,9.2653,8.7098,8.1543,8.1232,7.9134,7.7658,8.1387,8.3718,8.5894,8.939,9.2615,9.5101,9.5412,9.5684,9.5451,9.3741,9.2498,9.075,8.7525,8.6593,8.4767,7.9834,7.6143,7.4434,7.6221,7.8008,8.0727,8.5039,9.0167,9.3197,9.2615,9.3353,9.384,9.3863,9.3104,9.2636,9.2649,9.0501,8.8077,8.5558,8.2623,7.828,7.2344,6.6455,5.9737,0.0,0.0,0.0,0.0,0.0,0.0,0.0,0.0,0.0,0.0,0.0,0.0,0.0,0.0,0.0,0.0,0.0,0.0,0.0,0.0,0.0,0.0,0.0,0.0,0.0,0.0,7.9386,8.2319,8.4668,8.5776,8.5,8.4087,8.5077,8.8805,9.3264,9.6461,9.7858,10.0108,10.1686,10.2628,10.4104,10.5075,10.5784,10.6911,10.7416,10.7416,10.7416,10.7416,10.7416,10.7416,10.7416,10.7416,10.7416,10.6911,10.6095,10.5318,10.2715,9.9141,9.7199,9.6771,9.7199,9.6616,9.7471,9.8986,9.9569,9.9802,9.9219,9.58,9.2382,8.9546,8.9235,8.7564,8.6243,8.8536,8.9584,9.0478,9.2459,9.4441,9.5956,9.6266,9.6344,9.58,9.3819,9.1799,8.9934,8.8574,8.873,8.7992,8.4573,8.2592,8.1659,8.2261,8.3095,8.465,8.7545,9.0888,9.2793,9.221,9.2676,9.3007,9.3006,9.2282,9.1848,9.1895,8.9755,8.7598,8.5671,8.3339,7.972,7.4609,6.7647,6.001,5.171,0.0,0.0,0.0,0.0,0.0,0.0,0.0,0.0,0.0,0.0,0.0,0.0,0.0,0.0,0.0,0.0,0.0,0.0,0.0,0.0,0.0,0.0,0.0,6.8449,7.8088,8.5251,8.6998,9.0224,9.1993,9.1138,9.0323,9.1566,9.5761,9.7704,9.9025,9.9802,9.9802,10.019,10.0889,10.1783,10.3104,10.4813,10.6484,10.7416,10.7416,10.7416,10.7416,10.7416,10.7416,10.7416,10.7416,10.7416,10.6989,10.6212,10.5318,10.4386,10.3609,10.2715,10.2288,10.2288,10.2288,10.2288,10.2288,10.2288,10.2288,10.2016,10.0307,9.8636,9.7082,9.6189,9.4712,9.3353,9.3353,9.3314,9.343,9.4363,9.5217,9.6033,9.6966,9.716,9.6499,9.3935,9.1333,8.9235,8.8419,8.8264,8.772,8.6088,8.5855,8.5913,8.6008,8.6669,0.0,8.9541,9.1214,9.2187,9.2187,9.2187,9.2243,9.2293,9.1559,9.034,8.8701,8.693,8.4795,8.226,8.0498,7.7981,7.4494,6.4374,5.5411,4.7813,0.0,0.0,0.0,0.0,0.0,0.0,0.0,0.0,0.0,0.0,0.0,0.0,0.0,0.0,0.0,0.0,0.0,0.0,0.0,0.0,0.0,0.0,7.0338,7.4865,8.3271,9.0064,9.3059,9.5956,9.7587,9.7354,9.7626,9.8325,9.9491,10.1783,10.2404,10.0812,10.0112,9.9918,10.0112,10.0384,10.1589,10.392,10.6212,10.7416,10.7416,10.7416,10.7416,10.7416,10.7416,10.7416,10.7416,10.7416,10.7299,10.6989,10.5512,10.4813,10.4386,10.2909,10.2288,10.2288,10.2288,10.2288,10.2288,10.2288,10.1899,10.12,10.0112,9.9063,9.7859,9.6344,9.4285,9.2459,9.2459,9.1138,9.0167,9.2265,9.343,9.4441,9.5917,9.6733,9.6344,9.3159,9.0905,8.91,8.7643,8.7351,8.7565,8.8302,8.9507,9.0382,9.0441,0.0,0.0,9.1537,9.1981,9.2284,9.2284,9.2284,9.2299,9.2366,9.108,8.9749,0.0,8.5816,8.3327,8.1414,8.0232,7.7386,7.2635,6.6127,6.0165,0.0,0.0,0.0,0.0,0.0,0.0,0.0,0.0,0.0,0.0,0.0,0.0,0.0,0.0,0.0,0.0,0.0,0.0,0.0,0.0,0.0,0.0,7.1054,7.8163,8.3213,8.9098,9.3797,9.615,9.8714,10.0384,10.0812,10.0889,10.1589,10.3104,10.4191,10.3881,10.1705,10.0384,9.9646,9.9258,9.9607,10.1006,10.3609,10.6095,10.7416,10.7416,10.7416,10.7416,10.7416,10.7416,10.7416,0.0,10.7416,10.7183,10.6794,10.5512,10.4697,0.0,0.0,0.0,0.0,0.0,10.2288,10.2288,10.2288,10.1705,10.0889,10.0112,9.9219,9.8131,9.6033,9.3353,9.0866,9.0167,8.7875,8.6205,8.8769,9.0595,9.2304,9.4363,9.5761,9.5839,9.277,9.0167,8.8167,8.7214,0.0,0.0,8.9215,9.1024,9.2152,9.2247,9.2243,9.2254,0.0,9.238,9.2393,9.2393,9.2393,9.2249,9.191,9.0657,0.0,0.0,0.0,8.2618,8.0528,7.9597,0.0,0.0,0.0,0.0,0.0,0.0,0.0,0.0,5.2372,5.51,0.0,0.0,0.0,0.0,0.0,0.0,0.0,0.0,0.0,0.0,0.0,0.0,0.0,0.0,0.0,0.0,7.8474,8.5467,9.141,9.4674,9.6771,9.7548,9.9802,10.1589,10.2404,10.1783,10.2715,10.5784,10.5396,10.4191,10.2404,0.0,0.0,0.0,0.0,10.1084,10.3609,10.6095,10.7416,10.7416,10.7416,10.7416,10.7416,10.7416,10.7416,10.7416,10.7299,10.6911,10.6095,10.5202,10.4191,10.3415,10.2599,10.2288,10.2288,10.2288,10.2288,0.0,0.0,0.0,0.0,10.019,9.9335,9.817,9.5628,9.2364,8.9177,8.7506,8.4553,8.2533,8.5175,8.7662,9.0188,9.2908,9.4851,9.5395,9.2947,8.9877,8.7565,8.7465,8.6817,8.7005,8.9426,9.1186,9.2221,9.2293,9.2299,0.0,9.2405,9.2557,9.2656,9.2656,0.0,0.0,9.1447,9.0647,8.9025,8.6285,8.4323,8.2246,7.9921,7.9096,7.7607,7.526,7.3631,7.0881,6.6985,6.7881,6.7959,6.718,6.3283,6.4062,0.0,0.0,0.0,0.0,0.0,0.0,0.0,0.0,0.0,0.0,0.0,0.0,0.0,0.0,0.0,7.4667,8.1038,8.7059,9.2382,9.7121,10.0112,10.019,10.1899,10.3181,10.3298,10.3803,10.4386,10.5085,10.559,10.4891,10.2404,10.1317,0.0,9.9569,10.0307,10.1705,10.3609,10.6095,10.7416,10.7416,0.0,0.0,10.7416,10.7416,10.7416,10.7416,10.6717,10.6289,10.6095,10.4502,10.3298,10.2521,10.2404,10.2288,10.2288,10.2288,10.2288,10.2288,10.2288,10.221,10.1899,10.1112,10.0296,9.9073,9.6585,9.2947,0.0,8.7578,8.4604,8.2737,8.5983,8.8239,9.0496,9.3745,9.5846,9.6604,9.4698,9.2636,9.1019,9.0352,8.9582,8.943,9.0626,9.1651,9.2299,9.238,9.2378,9.2412,9.2471,9.3123,9.356,9.356,9.4193,9.3959,9.2397,9.2085,9.0289,8.6347,8.319,8.125,8.0694,8.0556,8.0241,7.9682,7.9305,7.8363,7.6765,7.7662,7.8363,7.8714,7.1817,7.0258,0.0,0.0,0.0,0.0,0.0,0.0,0.0,0.0,0.0,0.0,0.0,6.0759,6.5071,0.0,7.3929,7.9057,8.4612,8.974,9.4052,9.8675,10.1511,10.1084,10.2482,10.3803,10.4191,10.458,10.5202,10.6095,10.6212,10.5396,10.3686,10.2793,10.2094,10.1705,10.2094,10.3104,10.4891,10.66,10.7416,10.7416,10.7416,10.7416,10.7416,10.7416,10.7416,10.7416,10.6522,10.6017,10.5396,10.3686,10.2715,10.2288,10.2288,10.2288,10.2288,10.2288,10.2288,10.2288,10.2288,10.2016,10.1589,10.119,10.0221,9.8802,9.6719,9.3406,9.0049,8.8296,8.5648,8.3934,8.6505,8.8764,9.1062,9.3578,9.5525,9.6576,9.568,9.4123,9.2776,9.243,9.1678,9.1247,9.171,9.2139,9.2412,9.2429,9.2451,9.2481,9.249,9.2858,9.3302,9.3732,9.42,9.4083,9.3224,9.1975,8.9964,8.6945,8.4726,8.3346,8.2879,8.2855,8.265,8.2202,8.2162,8.1714,8.0818,8.165,8.2273,8.2624,7.9169,7.8248,0.0,0.0,0.0,0.0,0.0,0.0,0.0,0.0,5.532,6.0254,6.4566,6.8606,7.2413,7.5638,7.9057,8.3174,8.7759,9.2032,9.5645,9.9685,10.2016,10.1084,10.2715,10.4114,10.4813,10.5202,10.5901,10.7299,10.6794,10.6095,10.5396,10.4891,10.4502,10.4308,10.4502,10.5202,10.6406,10.7105,10.7416,10.7416,10.7416,10.7416,10.7416,10.7416,10.7416,10.7299,10.6406,10.5396,10.4308,10.2909,10.2288,10.2288,10.2288,10.2288,10.2288,10.2288,10.2288,10.2288,10.2288,10.1822,10.1301,10.1289,10.028,9.8782,9.7138,9.4379,9.1496,8.9781,8.7559,8.6089,8.7793,8.9898,9.2042,9.3705,9.5342,9.6472,9.6472,9.5225,9.4134,9.4211,9.3376,9.2705,9.2724,9.2624,9.2514,9.251,9.249,9.2498,9.2498,9.267,9.3029,9.3732,9.4083,9.4317,9.4317,9.1975,8.99,8.8471,8.744,8.6549,8.579,8.5749,8.5419,8.4746,8.4696,8.4325,8.3585,8.409,8.4309,8.4295,8.4754,8.4864,4.2565,4.6297,5.3261,5.6796,6.006,6.2624,0.0,0.0,6.4877,6.9267,7.2957,7.6026,7.8046,8.0028,8.2475,8.5972,8.8963,9.2265,9.6461,10.0112,10.2016,10.1084,10.3181,10.4813,10.4891,10.6212,10.7183,10.7416,10.7299,10.7183,10.7105,10.7804,10.7804,10.6989,10.7688,10.7882,10.7299,10.7416,10.7416,10.7416,10.7416,10.7416,10.7416,10.7416,10.7416,10.7299,10.5707,10.4114,10.2599,10.2404,10.2288,10.2288,10.2288,10.2288,10.2288,10.2288,10.2288,10.2288,10.2288,10.221,10.2195,10.2303,10.1701,10.0587,9.8992,9.6668,9.4206,9.2529,9.0735,8.972,9.1476,9.2646,9.3855,9.56,9.6731,9.7433,9.7433,9.6692,9.599,9.6001,9.4734,9.3661,9.3661,9.3014,9.2482,9.2514,9.2522,9.2482,9.2482,9.3185,9.3693,9.381,9.5176,9.6113,9.6113,9.3771,9.2209,9.1945,9.0452,8.9454,8.9242,8.9298,8.9259,8.9095,8.913,8.9118,8.8923,8.8257,8.7877,8.7789,8.7094,8.5927,4.9625,5.312,0.0,0.0,6.8823,7.2457,7.3834,7.4162,7.5094,7.8357,8.1387,8.3524,8.3718,8.4806,8.6243,0.0,9.0633,9.3469,9.6733,10.0112,10.1589,9.9763,9.9607,10.0384,10.2404,10.3686,10.4891,10.5901,10.6794,10.7416,10.7416,10.7688,10.7804,10.7416,10.7804,10.7804,10.7416,10.7416,10.7416,10.7416,10.7416,10.7416,10.7416,10.7416,10.7105,10.6717,10.6017,10.4697,10.3104,10.3104,10.2793,10.2288,10.2295,10.2412,10.2412,10.2288,10.2288,10.2288,10.2288,10.2288,10.2311,10.2498,10.1893,10.1104,10.0489,9.8899,9.7182,9.6479,9.5387,9.4606,9.5347,9.5777,9.6206,9.6948,9.7377,9.765,9.765,9.6987,9.6362,9.6362,9.4966,9.3795,9.3795,9.3061,9.2678,9.3185,9.2834,9.2678,9.3185,9.3146,9.3224,9.3732,9.4434,9.4903,9.4903,9.3497,9.2365,9.1789,9.1096,9.0457,8.9883,8.9855,8.9855,8.9844,8.982,8.9791,8.9752,8.9324,8.8844,8.8284,8.8341,8.7738,5.5514,0.0,0.0,7.0316,7.5564,7.9757,8.1291,8.1815,8.2514,8.4379,8.6243,8.7409,8.6749,8.7176,8.8069,8.9623,9.2032,9.4635,9.7199,10.0307,10.1394,9.8792,9.6538,9.6189,9.8675,10.0307,10.2094,10.3997,10.6212,10.7416,10.7416,10.7416,10.7416,10.7416,10.7183,10.7183,10.7416,10.7183,10.7183,10.7416,10.7416,10.7416,10.7416,10.7416,10.6989,10.6212,10.6212,10.5202,10.3609,10.3609,10.3104,10.2288,10.2395,10.2378,10.2399,10.2417,10.2395,10.2412,10.2412,10.2412,10.2395,10.2479,10.2123,10.1696,10.1489,10.0607,9.9627,9.9431,9.8885,9.8377,9.8104,9.8065,9.7987,9.7753,9.7714,9.7714,9.7714,9.7206,9.6777,9.6777,9.5567,9.4512,9.4512,9.3771,9.3497,9.4395,9.3771,9.3341,9.3732,9.3029,9.2834,9.3693,9.381,9.3888,9.4122,9.3419,9.2638,9.1942,9.1681,9.1261,9.0638,9.056,9.056,9.0599,9.0478,9.0408,9.0408,9.0071,8.9566,8.8882,8.9205,8.9019,0.0,0.0,6.8839,7.4045,7.9173,8.3174,8.4068,8.4923,8.5583,8.5622,8.5738,8.5777,8.5738,8.5777,8.6865,9.0206,9.2964,9.5528,9.8092,10.0695,10.1394,9.8792,9.5528,9.3508,0.0,9.6655,9.9646,10.221,10.5512,10.7416,10.7416,10.7416,10.7416,10.7416,10.66,10.66,10.7416,10.66,10.66,10.7416,10.7416,10.7416,10.7416,10.7416,10.6989,10.6212,10.6212,10.5202,10.3609,10.3609,10.3104,10.2288,10.2395,10.2399,10.2499,10.2516,10.2498,10.2499,10.2499,10.2499,10.2499,10.2594,10.2585,10.2504,10.1684,10.1388,10.1305,10.0485,10.0212,10.0017,9.9197,9.8963,9.8768,9.7909,9.7714,9.7714,9.7714,9.7675,9.7675,9.7675,9.6933,9.6308,9.6308,9.5606,9.5332,9.6191,9.5567,9.4747,9.3927,9.3029,9.2834,9.3693,9.381,9.4122,9.4981,9.4317,9.381,9.3622,9.2891,9.243,9.2313,9.2313,9.2313,9.2313,9.2269,9.2199,9.2109,9.1199,9.0707,9.0492,8.9604,8.9204,6.1225,0.0,7.4006,7.859,8.399,8.8302,8.8574,8.9779,9.0167,8.7875,8.6515,8.57,8.57,8.6632,8.8536,9.1954,9.5645,9.8558,9.9957,10.1394,10.1122,9.8015,9.4635,0.0,0.0,0.0,0.0,9.8636,10.2094,10.4502,10.5707,10.6794,10.7416,10.7416,10.66,10.66,10.7416,10.66,10.66,10.7416,10.7416,10.7416,10.7416,10.7425,10.727,10.7099,10.7083,10.6094,10.4499,10.4499,10.3682,10.2399,10.2499,10.2516,10.2607,10.2601,10.2592,10.2592,10.2607,10.2591,10.2607,10.2601,10.2698,10.2698,10.2421,10.1904,10.1383,10.1188,10.0681,10.0212,9.9939,9.9431,9.8924,9.8612,9.8104,9.7714,9.7714,9.7714,9.7714,9.7714,9.7011,9.6386,9.6386,9.5684,9.5215,9.5488,9.5762,9.5449,9.4005,9.3537,9.3263,9.2951,9.2951,9.3068,9.3341,9.3185,9.2985,9.2926,9.2645,9.2451,9.2393,9.2377,9.2308,9.2308,9.2282,9.221,9.2132,9.1778,9.1222,9.0534,9.0779,9.0571,6.6625,7.3074,7.9173,8.3174,8.7759,9.1255,9.1255,9.211,9.1682,8.7331,8.434,8.2475,8.2475,8.3408,8.57,9.0361,9.5217,9.8792,9.9957,10.1084,10.0812,9.8015,9.4907,9.211,0.0,0.0,0.0,9.4635,9.8364,10.1394,10.3415,10.5396,10.6484,10.6484,10.5707,10.5707,10.6484,10.5707,10.5707,10.6484,10.6794,10.6989,10.6989,10.7293,10.751,10.7494,10.7597,10.6586,10.5008,10.5008,10.3996,10.2516,10.2607,10.2601,10.2607,10.2686,10.271,10.2694,10.2712,10.2607,10.2607,10.2712,10.2698,10.2694,10.2782,10.2382,10.2008,10.2008,10.1618,10.111,10.0798,10.029,9.9744,9.9158,9.8572,9.8065,9.7753,9.7714,9.7714,9.7714,9.7245,9.6855,9.6855,9.6386,9.6035,9.6035,9.6503,9.6113,9.4044,9.381,9.3576,9.3029,9.2951,9.3107,9.338,9.3185,9.302,9.2969,9.2677,9.2475,9.2401,9.2338,9.2315,9.226,9.221,9.2131,9.2044,9.1936,9.1592,9.0946,9.1527,9.1461,7.4278,7.9678,8.4418,8.772,9.0439,9.2265,9.2148,9.211,9.0361,8.4185,7.9406,7.6298,0.0,0.0,7.8668,8.5622,9.1877,9.6499,9.8209,9.9918,10.0384,0.0,0.0,0.0,0.0,0.0,0.0,9.0672,0.0,9.8209,10.0889,10.3492,10.4891,10.4891,10.4114,10.3997,10.4891,10.4114,10.4114,10.4891,10.5784,10.6212,10.6212,10.7099,10.7516,10.7617,10.7578,10.6698,10.5095,10.5095,10.4082,10.2616,10.2685,10.2686,10.271,10.2782,10.2811,10.2781,10.2694,10.271,10.271,10.271,10.2694,10.2792,10.2792,10.2811,10.2789,10.2789,10.2789,10.2593,10.1813,10.15,10.111,9.9509,9.908,9.8768,9.7948,9.7714,9.7714,9.7714,9.7714,9.7714,9.7714,9.7714,9.7714,9.7714,9.7714,9.6777,9.4278,9.3927,9.3927,9.3888,9.3888,9.42,9.502,9.4356,9.3874,9.3861,9.3084,9.259,9.2537,9.2522,9.2455,9.2247,9.219,9.2083,9.1888,9.1812,9.1798,9.1716,9.1716,9.1716,7.9872,8.5855,9.0983,9.1877,9.3547,9.4441,9.2537,9.211,8.9856,8.1892,7.5366,7.1054,0.0,0.0,0.0,8.197,9.0323,0.0,9.7393,9.953,0.0,9.8714,0.0,9.5606,9.3275,9.0517,0.0,0.0,9.3974,9.7005,10.0812,10.3492,10.4891,10.4891,10.4114,10.3997,10.4891,10.4697,10.4697,10.4891,10.5793,10.6205,10.6205,10.7207,10.7695,10.7594,10.7098,10.6193,10.5182,10.4519,10.3622,10.2686,10.2698,10.2722,10.2782,10.2792,10.2811,10.2789,10.2811,10.2811,10.2811,10.2811,10.2811,10.282,10.282,10.2781,10.2789,10.2789,10.2789,10.2711,10.2515,10.2008,10.1383,10.0993,9.99,9.8924,9.8729,9.8143,9.7714,9.7714,9.7714,9.7714,9.7714,9.7714,9.7714,9.7714,9.7714,9.7206,9.5918,9.5723,9.5488,9.4825,9.4786,9.4864,9.5098,9.4903,9.4766,9.4751,9.4569,9.4403,9.4333,9.4276,9.386,9.3045,9.302,9.2596,9.1851,9.1786,9.1798,9.1716,9.1716,9.1716,8.4845,8.9856,9.3974,9.3974,9.4402,9.413,9.1566,8.9507,8.5816,7.7619,7.016,0.0,0.0,0.0,0.0,0.0,0.0,0.0,9.5412,9.7393,9.8403,0.0,9.6927,0.0,9.413,9.2653,9.2498,0.0,9.4207,9.58,9.9685,10.2404,10.3803,10.3803,10.3298,10.3298,10.3803,10.3803,10.3803,10.3803,10.4689,10.5121,10.5104,10.6098,10.6614,10.6597,0.0,10.5492,10.4705,10.4187,10.3485,10.2704,10.2704,10.2792,10.2811,10.2811,10.282,10.2789,10.2789,10.2789,10.2789,10.2789,10.2789,10.2789,10.2789,10.2789,10.2789,10.2789,10.2789,10.2789,10.2789,10.2398,10.2008,10.1618,10.0798,9.99,9.9158,9.8612,9.8143,9.7753,9.7714,9.7714,9.7714,9.7714,9.7714,9.7714,9.7714,9.7518,9.7011,9.666,9.623,9.5723,9.5684,9.584,9.6191,9.5879,9.5652,9.567,9.5304,9.5035,9.4927,9.4496,9.396,9.3248,9.2828,9.2341,9.1771,9.1771,9.1744,9.1716,9.1716,9.1716,8.9351,9.2576,9.4984,9.4868,9.4207,9.2731,8.9546,8.5428,7.9989,7.2064,0.0,5.9477,6.1342,6.3245,6.7363,7.6065,0.0,9.1915,9.277,9.4246,9.5217,9.5217,9.5334,9.5256,9.4868,9.5179,9.6033,9.7587,9.5645,9.5684,9.8675,10.1006,10.2288,10.2288,10.2288,10.2288,10.2288,10.2311,10.2311,10.2311,10.3311,10.3704,10.3803,10.4789,10.518,10.5285,0.0,0.0,10.4116,10.3999,10.3491,10.2789,10.2789,10.2789,10.2789,10.2789,10.2789,10.2789,10.2789,10.2789,10.2789,10.2789,10.2789,10.2789,10.2789,10.2789,10.2789,10.2789,10.2789,10.2789,10.2789,10.2789,10.2593,10.1891,10.1618,10.111,9.9666,9.9158,9.8729,9.787,9.7714,9.7714,9.7714,9.7714,9.7714,9.7714,9.7714,9.7714,9.7714,9.705,9.6582,9.6582,9.6582,9.6894,9.7636,9.7011,9.6582,9.6589,9.5848,9.5348,9.513,9.4411,9.3819,9.3413,9.2703,9.2224,9.2025,9.2025,9.2025,9.2025,9.2025,9.1986,9.343,9.5256,9.6577,9.5878,9.5062,9.2848,8.671,8.1426,0.0,0.0,5.8117,5.3494,5.5903,5.8894,6.4022,7.3346,8.2786,8.9235,9.0051,0.0,9.1682,0.0,0.0,0.0,0.0,0.0,0.0,0.0,0.0,0.0,10.0501,10.1705,10.2288,10.2288,10.2412,10.2395,10.2395,10.2399,10.2498,10.2498,10.3413,10.3819,10.391,10.4814,10.5299,10.528,0.0,0.0,10.3999,10.3296,10.2906,10.2789,10.2789,10.2789,10.2789,10.2789,10.2789,10.2789,10.2789,10.2789,10.2789,10.2789,10.2789,10.2789,10.2789,10.2789,10.2789,10.2789,10.2789,10.2789,10.2789,10.2789,10.2789,10.2593,10.2008,10.1383,10.111,9.9978,9.8729,9.787,9.7714,9.7714,9.7714,9.7714,9.7714,9.7714,9.7714,9.7714,9.7714,9.7558,9.7479,9.7479,9.7479,9.7558,9.7675,9.7558,9.7454,9.7477,9.7262,9.7081,9.6875,9.6663,9.6126,9.5182,9.5,9.4547,9.3766,9.3766,9.3766,9.3766,9.3766,9.3418,9.5101,9.6228,9.6771,9.5023,9.2964,8.9546,8.2688,0.0,0.0,0.0,5.3596,4.9321,5.1897,5.5163,0.0,6.8846,7.8159,8.4748,8.6049,8.7351,0.0,8.939,0.0,0.0,0.0,0.0,0.0,0.0,0.0,0.0,10.1705,10.2094,10.2288,10.2288,10.2373,10.2378,10.2498,10.2518,10.2516,10.2612,10.3013,10.3201,10.3283,10.379,10.3981,10.3982,0.0,0.0,10.3413,10.2984,10.2789,10.2789,10.2789,10.2789,10.2789,10.2789,10.2789,10.2789,10.2789,10.2789,10.2789,10.2789,10.2789,10.2789,10.2789,10.2789,10.2789,10.2789,10.2789,10.2789,10.2789,10.2789,10.2789,10.2789,10.2086,10.15,10.15,10.0485,9.9548,9.9119,9.869,9.8377,9.8377,9.7987,9.7714,9.7714,9.7714,9.7714,9.7714,9.7714,9.7714,9.7714,9.7714,9.7714,9.7714,9.7695,9.7676,9.7616,9.755,9.7444,9.716,9.6677,9.6114,9.5564,9.51,9.4646,9.4191,9.4191,9.4191,9.4191,9.4191,9.3766,9.5956,9.6694,9.6499,9.3586,9.0128,8.5467,7.7887,6.9546,0.0,0.0,4.944,4.5774,4.836,5.1463,5.6236,0.0,7.2749,7.9226,8.1519,8.3116,8.4845,0.0,8.8846,0.0,0.0,0.0,0.0,0.0,0.0,0.0,0.0,10.2311,10.2295,10.2295,10.2378,10.2518,10.2498,10.2495,10.2585,10.2592,10.2698,10.2686,10.2683,10.2782,10.2802,10.2789,0.0,0.0,0.0,10.2789,10.2789,10.2789,10.2789,10.2789,10.2789,10.2789,10.2789,10.2789,10.2789,10.2789,10.2789,10.2789,10.2789,10.2789,10.2789,10.2789,10.2789,10.2789,10.2789,10.2789,10.2789,10.2789,10.2789,10.2789,10.2281,10.1696,10.15,10.0993,10.0485,10.029,9.9744,9.9236,9.9041,9.8416,9.7909,9.7714,9.7714,9.7714,9.7714,9.7714,9.7714,9.7714,9.7714,9.7714,9.7714,9.7701,9.7648,9.7537,9.7494,9.7364,9.7071,9.6338,9.592,9.5777,9.512,9.4772,9.4772,9.4772,9.4772,9.4772,9.4772,9.4307,9.6849,9.7121,9.6189,9.2071,8.7875,8.2164,7.2174,0.0,5.543,4.945,4.4625,4.2252,4.4781,4.7466,0.0,0.0,0.0,7.2749,7.6816,7.8142,7.9911,8.3174,0.0,0.0,0.0,0.0,0.0,0.0,0.0,0.0,0.0,10.242,10.2479,10.2479,10.2498,10.2573,10.2585,10.2709,10.2712,10.2698,10.2698,10.2683,10.2792,10.2792,10.2802,10.2789,0.0,0.0,0.0,10.2789,10.2789,10.2789,10.2789,10.2789,10.2789,10.2789,10.2789,10.2789,10.2789,10.2789,10.2789,10.2789,10.2789,10.2789,10.2789,10.2789,10.2789,10.2789,10.2789,10.2789,10.2789,10.2789,10.2789,10.2789,10.2711,10.2515,10.1696,10.1383,10.1188,10.0407,10.0212,9.9939,9.9158,9.8924,9.8612,9.7831,9.7714,9.7714,9.7714,9.7714,9.7714,9.7714,9.7714,9.7714,9.7714,9.7721,9.7672,9.7615,9.7527,9.7386,9.7206,9.6989,9.6837,9.6667,9.659,9.6551,9.6551,9.6551,9.6551,9.6551,9.6551,9.6087,9.4522,9.6016,9.6033,9.1216,8.5622,7.8919,6.9678,0.0,5.1999,4.7587,4.3661,4.1473,4.2992,4.5017,4.8561,0.0,0.0,0.0,7.0823,7.3488,7.6255,7.9675,8.2377,0.0,0.0,0.0,0.0,0.0,0.0,0.0,0.0,10.2498,10.2516,10.2591,10.2585,10.2709,10.2712,10.2698,10.2811,10.2802,10.2802,10.2802,10.2811,10.2811,10.282,10.2789,0.0,0.0,0.0,10.2789,10.2789,10.2789,10.2789,10.2789,10.2789,10.2789,10.2789,10.2789,10.2789,10.2789,10.2789,10.2789,10.2789,10.2789,10.2789,10.2789,10.2789,10.2789,10.2789,10.2789,10.2789,10.2789,10.2789,10.2789,10.2789,10.2711,10.2398,10.2281,10.2203,10.1891,10.1383,10.0915,10.0603,9.9666,9.8885,9.8533,9.8026,9.7714,9.7714,9.7714,9.7714,9.7714,9.7714,9.7714,9.7714,9.7695,9.7648,9.7567,9.7511,9.7362,9.7106,9.7043,9.6941,9.6783,9.6783,9.6783,9.6783,9.6783,9.6783,9.6783,9.6783,9.6319,9.1938,9.4872,9.5839,9.0167,8.3446,7.5888,6.7086,5.7281,4.9184,4.6059,4.3072,4.124,4.1824,4.2955,4.5371,5.0283,5.5256,6.0224,6.5306,6.9175,7.2749,7.6171,0.0,0.0,0.0,0.0,0.0,0.0,0.0,0.0,0.0,10.239,10.2289,10.2592,10.2698,10.2686,10.2683,10.2782,10.2802,10.2789,10.2789,10.2789,10.2789,10.2789,10.2789,0.0,0.0,0.0,0.0,10.2789,10.2789,10.2789,10.2789,10.2789,10.2789,10.2789,10.2789,10.2789,10.2789,10.2789,10.2789,10.2789,10.2789,10.2789,10.2789,10.2789,10.2789,10.2789,10.2789,10.2789,10.2789,10.2789,10.2789,10.2789,10.2789,10.2789,10.2789,10.2789,10.2789,10.2789,10.2281,10.1813,10.15,10.0485,9.9588,9.908,9.8494,9.7987,9.7714,9.7714,9.7714,9.7714,9.7714,9.7714,9.7714,9.7701,9.765,9.7567,9.7539,9.7421,9.7121,9.7076,9.6979,9.687,9.6841,9.6841,9.6841,9.6841,9.6841,9.6841,9.6841,9.6503,8.9528,9.4017,9.5567,8.873,8.1232,7.309,6.3703,5.4227,4.6714,4.4169,4.2276,4.1111,4.1111,4.1111,4.2554,4.6844,4.9718,5.3798,6.0614,6.5193,6.9148,0.0,0.0,0.0,0.0,0.0,0.0,0.0,0.0,0.0,0.0,0.0,10.1813,10.271,10.271,10.2683,10.2792,10.2792,10.2802,10.2789,10.2789,10.2789,10.2789,10.2789,0.0,0.0,0.0,0.0,0.0,10.2789,10.2789,10.2789,10.2789,10.2789,10.2789,10.2789,10.2789,10.2789,10.2789,10.2789,10.2789,10.2789,10.2789,10.2789,10.2789,10.2789,10.2789,10.2789,10.2789,10.2789,10.2789,10.2789,10.2789,10.2789,10.2789,10.2789,10.2789,10.2789,10.2789,10.2789,10.2789,10.2515,10.1618,10.15,10.0915,9.9236,9.9002,9.869,9.7792,9.7714,9.7714,9.7714,9.7714,9.7714,9.7714,9.7714,9.7706,9.7695,9.765,9.7532,9.7409,9.7282,9.7121,9.7006,9.7006,9.7006,9.7006,9.7006,9.7006,9.7006,9.6926,9.6841,8.01,8.4838,8.7154,8.1476,7.467,6.7397,5.9772,5.1607,4.5137,4.3195,4.1891,4.1085,4.1115,4.1081,4.1944,4.4509,4.7045,5.0901,0.0,0.0,0.0,7.2588,0.0,0.0,0.0,0.0,0.0,0.0,0.0,0.0,0.0,0.0,10.1484,10.1904,10.1913,10.1913,10.1883,10.2507,10.2781,10.2789,10.2789,10.2789,10.2789,10.2789,0.0,0.0,0.0,0.0,0.0,10.2789,10.2789,10.2789,10.2789,10.2789,10.2789,10.2789,10.2789,10.2789,10.2789,10.2789,10.2789,10.2789,10.2789,10.2789,10.2789,10.2789,10.2789,10.2789,10.2789,10.2789,10.2789,10.2789,10.2789,10.2789,10.2789,10.2789,10.2789,10.2789,10.2789,10.2789,10.2789,10.2711,10.2398,10.1891,10.1305,10.0798,10.0212,9.9783,9.9509,9.947,9.9236,9.8651,9.8572,9.8338,9.7753,9.7714,9.7682,9.7706,9.7687,9.7613,9.7455,9.7433,9.7282,9.7018,9.7091,9.7106,9.7025,9.7106,9.7076,9.6979,9.6859,9.6812,7.0302,7.5793,7.8606,7.4092,6.8294,6.2157,5.631,4.9488,4.4025,4.2666,4.171,4.1097,4.109,4.1094,4.1566,4.2963,4.4801,0.0,0.0,0.0,0.0,0.0,0.0,0.0,0.0,0.0,0.0,0.0,0.0,0.0,0.0,0.0,10.0997,10.0993,10.1305,10.15,10.15,10.2398,10.2789,10.2789,10.2789,10.2789,10.2789,0.0,0.0,0.0,0.0,0.0,0.0,10.2789,10.2789,10.2789,10.2789,10.2789,10.2789,10.2789,10.2789,10.2789,10.2789,10.2789,10.2789,10.2789,10.2789,10.2789,10.2789,10.2789,10.2789,10.2789,10.2789,10.2789,10.2789,10.2789,10.2789,10.2789,10.2789,10.2789,10.2789,10.2789,10.2789,10.2789,10.2789,10.2789,10.2789,10.2281,10.1891,10.15,10.111,10.0603,10.029,10.029,9.9978,9.908,9.9002,9.8651,9.7753,9.7689,9.7689,9.7714,9.7715,9.7656,9.7594,9.7565,9.7396,9.7076,9.7206,9.7221,9.7092,9.7225,9.7207,9.706,9.6941,9.6841,0.0,6.6485,6.9889,6.654,6.1996,5.7254,5.3112,4.7606,0.0,4.2377,4.153,4.0952,4.0991,4.0991,4.1342,4.2318,4.3333,0.0,0.0,0.0,0.0,0.0,0.0,0.0,0.0,0.0,0.0,0.0,0.0,0.0,0.0,0.0,0.0,10.0212,10.0915,10.1305,10.1305,10.2203,10.2593,10.2593,10.2593,10.2593,10.2593,0.0,0.0,0.0,0.0,0.0,0.0,10.2789,10.2789,10.2789,10.2789,10.2789,10.2789,10.2789,10.2789,10.2789,10.2789,10.2789,10.2789,10.2789,10.2789,10.2789,10.2789,10.2789,10.2789,10.2789,10.2789,10.2789,10.2789,10.2789,10.2789,10.2789,10.2789,10.2789,10.2789,10.2789,10.2789,10.2789,10.2789,10.2789,10.2789,10.2789,10.2515,10.1696,10.1618,10.1305,10.0603,10.0485,10.0095,9.9275,9.9197,9.8807,9.787,9.7745,9.7711,9.7682,9.7689,9.7695,9.7695,9.7645,9.7494,9.7221,9.7338,9.7324,9.7246,9.7349,9.734,9.7227,9.7067,9.6979,4.585,0.0,6.0387,5.758,5.5007,5.2207,0.0,4.4587,4.1441,4.0586,0.0,3.939,3.9976,4.0093,4.0834,0.0,0.0,0.0,0.0,0.0,0.0,0.0,0.0,0.0,0.0,0.0,0.0,0.0,0.0,0.0,0.0,0.0,0.0,9.9314,9.9509,9.9588,9.9588,10.0485,10.0915,10.0915,10.0915,10.0915,10.0915,0.0,0.0,0.0,0.0,0.0,10.1891,10.2515,10.2789,10.2789,10.2789,10.2789,10.2789,10.2789,10.2789,10.2789,10.2789,10.2789,10.2789,10.2789,10.2789,10.2789,10.2789,10.2789,10.2789,10.2789,10.2789,10.2789,10.2789,10.2789,10.2789,10.2789,10.2789,10.2789,10.2789,10.2789,10.2789,10.2789,10.2789,10.2789,10.2789,10.2789,10.2711,10.2515,10.2515,10.2398,10.2203,10.2203,10.1891,10.0993,10.0915,10.029,9.8807,9.8097,9.7684,9.7691,9.7695,9.7694,9.7687,9.768,9.7542,9.7264,9.7304,9.7382,9.752,9.7494,9.7476,9.7409,9.7121,9.6979,4.0405,4.582,5.0996,4.9552,4.8538,4.7177,4.4484,4.2108,4.0242,0.0,0.0,0.0,0.0,0.0,0.0,0.0,0.0,0.0,0.0,0.0,0.0,0.0,0.0,0.0,0.0,0.0,0.0,0.0,0.0,0.0,0.0,0.0,0.0,0.0,9.8612,9.8612,9.9002,9.9861,10.029,10.029,10.029,10.029,10.029,0.0,0.0,0.0,0.0,0.0,10.15,10.2008,10.2398,10.2789,10.2789,10.2789,10.2789,10.2789,10.2789,10.2789,10.2789,10.2789,10.2789,10.2789,10.2789,10.2789,10.2789,10.2789,10.2789,10.2789,10.2789,10.2789,10.2789,10.2789,10.2789,10.2789,10.2789,10.2789,10.2789,10.2789,10.2789,10.2789,10.2789,10.2789,10.2789,10.2789,10.2789,10.2789,10.2789,10.2789,10.2789,10.2789,10.2515,10.1618,10.15,10.0798,9.9158,9.8565,9.8116,9.7734,9.7695,9.7694,9.768,9.768,9.7604,9.7433,9.7363,9.744,9.7639,9.761,9.7589,9.755,9.7225,9.7099,3.939,4.1537,4.3528,4.3684,4.3997,4.3879,4.224,0.0,0.0,0.0,0.0,0.0,0.0,0.0,0.0,0.0,0.0,0.0,0.0,0.0,0.0,0.0,0.0,0.0,0.0,0.0,0.0,0.0,0.0,0.0,0.0,0.0,0.0,0.0,9.8299,9.8182,9.8807,9.9548,9.99,9.99,9.99,9.99,9.99,9.99,0.0,0.0,0.0,0.0,10.111,10.1305,10.1813,10.2398,10.2593,10.2593,10.2593,10.2789,10.2789,10.2789,10.2789,10.2789,10.2789,10.2789,10.2789,10.2789,10.2789,10.2789,10.2789,10.2789,10.2789,10.2789,10.2789,10.2789,10.2789,10.2789,10.2789,10.2789,10.2789,10.2789,10.2789,10.2789,10.2789,10.2789,10.2789,10.2789,10.2789,10.2789,10.2789,10.2789,10.2789,10.2789,10.2515,10.1813,10.1696,10.111,9.9548,9.938,9.8973,9.7969,9.7773,9.7694,9.7684,9.768,9.7656,9.7632,9.7479,9.7499,9.7689,9.7684,9.7652,9.7628,9.7344,9.7188,3.8531,4.0639,4.2786,4.3528,4.5363,4.6729,4.5714,4.5402,0.0,0.0,0.0,0.0,0.0,0.0,0.0,0.0,0.0,0.0,0.0,0.0,0.0,0.0,0.0,0.0,0.0,0.0,0.0,0.0,0.0,0.0,0.0,0.0,0.0,0.0,0.0,9.8494,9.7909,9.8026,9.8104,9.8104,9.8104,9.8104,9.8104,9.8104,9.8104,0.0,0.0,9.9275,9.9431,10.0212,10.0603,10.0798,10.1383,10.1696,10.1813,10.2515,10.2789,10.2789,10.2789,10.2789,10.2789,10.2789,10.2789,10.2789,10.2789,10.2789,10.2789,10.2789,10.2789,10.2789,10.2789,10.2789,10.2789,10.2789,10.2789,10.2789,10.2789,10.2789,10.2789,10.2789,10.2789,10.2789,10.2789,10.2789,10.2789,10.2789,10.2789,10.2789,10.2789,10.2789,10.2711,10.2593,10.2593,10.2203,10.1305,10.1196,10.0518,9.8906,9.8125,9.7695,9.7695,9.7594,9.7589,9.7689,9.7548,9.7557,9.772,9.7711,9.7693,9.7676,9.7408,9.7246,3.8375,4.0132,4.224,4.4543,4.7744,5.0243,4.9852,5.0126,0.0,0.0,0.0,0.0,0.0,0.0,0.0,0.0,0.0,0.0,0.0,0.0,0.0,0.0,0.0,0.0,0.0,0.0,0.0,0.0,0.0,0.0,0.0,0.0,0.0,0.0,0.0,0.0,9.7011,9.744,9.7714,9.7714,9.7714,9.7714,9.7714,9.7714,9.7714,0.0,0.0,9.8572,9.9041,9.9431,9.9861,10.029,10.0681,10.111,10.15,10.1891,10.2086,10.2086,10.2086,10.2398,10.2789,10.2789,10.2789,10.2789,10.2789,10.2789,10.2789,10.2789,10.2789,10.2789,10.2789,10.2789,10.2789,10.2789,10.2789,10.2789,10.2789,10.2789,10.2789,10.2789,10.2789,10.2789,10.2789,10.2789,10.2789,10.2789,10.2789,10.2789,10.2789,10.2789,10.2789,10.2789,10.2789,10.2515,10.1696,10.1618,10.0903,9.9101,9.8164,9.7695,9.7695,9.765,9.7633,9.7682,9.7628,9.7653,9.7689,9.768,9.7693,9.768,9.7444,9.731,3.8375,3.9819,4.1888,4.5168,0.0,5.2858,5.3483,5.4927,0.0,0.0,0.0,0.0,0.0,0.0,0.0,0.0,0.0,0.0,0.0,0.0,0.0,0.0,0.0,0.0,0.0,0.0,0.0,0.0,0.0,0.0,0.0,0.0,0.0,0.0,0.0,0.0,9.6425,9.7245,9.7714,9.7714,9.7714,9.7714,9.7714,9.7714,9.7714,9.7714,9.7714,9.8065,9.869,9.869,9.908,9.9705,9.9939,10.0485,10.1188,10.1188,10.1188,10.1188,10.1383,10.1891,10.2515,10.2711,10.2789,10.2789,10.2789,10.2789,10.2789,10.2789,10.2789,10.2789,10.2789,10.2789,10.2789,10.2789,10.2789,10.2789,10.2789,10.2789,10.2789,10.2789,10.2789,10.2789,10.2789,10.2789,10.2789,10.2789,10.2789,10.2789,10.2789,10.2789,10.2789,10.2789,10.2789,10.2593,10.2008,10.1515,10.0683,9.9375,9.8281,9.7695,9.7695,9.7695,9.7694,9.7687,9.7698,9.7719,9.7701,9.7691,9.7694,9.7687,9.7511,9.7382,3.8375,3.9819,4.1732,4.4426,4.8915,0.0,5.5786,5.9456,0.0,6.0041,0.0,0.0,0.0,0.0,0.0,0.0,0.0,0.0,0.0,0.0,0.0,0.0,0.0,0.0,0.0,0.0,0.0,0.0,0.0,0.0,0.0,0.0,0.0,0.0,0.0,0.0,9.6425,9.7245,9.7714,9.7714,9.7714,9.7714,9.7714,9.7714,9.7714,9.7714,9.7714,9.7753,9.7792,9.7792,9.7831,9.7987,9.8768,9.9627,10.0407,10.0407,10.0407,10.0485,10.1188,10.15,10.1696,10.2515,10.2789,10.2789,10.2789,10.2789,10.2789,10.2789,10.2789,10.2789,10.2789,10.2789,10.2789,10.2789,10.2789,10.2789,10.2789,10.2789,10.2789,10.2789,10.2789,10.2789,10.2789,10.2789,10.2789,10.2789,10.2789,10.2789,10.2789,10.2789,10.2789,10.2789,10.2906,10.2906,10.2789,10.1316,10.0312,10.0195,9.8633,9.7695,9.7695,9.7695,9.7695,9.7695,9.7694,9.7694,9.7695,9.7695,9.7695,9.7695,9.7544,9.7494,3.8495,3.9429,4.1069,4.4192,4.8876,0.0,0.0,6.3516,6.7107,6.7537,0.0,0.0,0.0,0.0,0.0,0.0,0.0,0.0,0.0,0.0,0.0,0.0,0.0,0.0,0.0,0.0,0.0,0.0,0.0,0.0,0.0,0.0,0.0,0.0,0.0,0.0,0.0,9.5645,9.6074,9.6113,9.7167,9.7714,9.7714,9.7714,9.7714,9.7714,9.7714,9.7714,9.7714,9.7714,9.7714,9.7792,9.8651,9.8885,9.8768,9.9275,9.9509,9.9548,9.9822,10.029,10.0798,10.111,10.1618,10.2008,10.2008,10.2398,10.2789,10.2789,10.2789,10.2789,10.2789,10.2789,10.2789,10.2789,10.2789,10.2789,10.2789,10.2789,10.2789,10.2789,10.2789,10.2789,10.2789,10.2789,10.2789,10.2906,10.2906,10.2906,10.2906,10.2906,10.2906,10.2906,10.2905,10.2882,10.2882,10.1288,10.0312,10.0312,9.8672,9.7695,9.7695,9.7695,9.7695,9.7695,9.7695,9.7695,9.7695,9.7695,9.7694,9.7689,9.7637,9.755,3.8961,3.939,4.0561,4.3801,0.0,0.0,6.0929,6.6706,7.1234,7.353,0.0,0.0,0.0,0.0,0.0,0.0,0.0,0.0,0.0,0.0,0.0,0.0,0.0,0.0,0.0,0.0,0.0,0.0,0.0,0.0,0.0,0.0,0.0,0.0,0.0,0.0,0.0,9.4669,9.5098,9.5098,9.6308,9.6894,9.6894,9.7167,9.7284,9.7284,9.7597,9.7714,9.7714,9.7714,9.7714,9.7753,9.8377,9.8221,9.7753,9.8377,9.8572,9.8612,9.8885,9.9392,9.9939,10.0212,10.0681,10.1188,10.1383,10.1891,10.2398,10.2711,10.2789,10.2789,10.2789,10.2789,10.2789,10.2789,10.2789,10.2789,10.2789,10.2789,10.2789,10.2789,10.2789,10.2789,10.2789,10.2796,10.2803,10.2881,10.2881,10.2881,10.2881,10.2913,10.2913,10.29,10.2886,10.2812,10.25,10.1094,10.0195,9.9922,9.8515,9.7695,9.7695,9.7695,9.7695,9.7695,9.7695,9.7695,9.7695,9.7695,9.7691,9.7706,9.7671,9.7552,3.9819,3.9819,4.0483,0.0,0.0,0.0,6.2317,6.8912,7.4219,7.7706,0.0,0.0,0.0,0.0,0.0,0.0,0.0,0.0,0.0,0.0,0.0,0.0,0.0,0.0,0.0,0.0,0.0,0.0,0.0,0.0,0.0,0.0,0.0,0.0,0.0,0.0,0.0,9.463,9.5098,9.5098,9.5098,9.5098,9.5137,9.5996,9.6386,9.6464,9.7323,9.7714,9.7714,9.7714,9.7714,9.7714,9.7714,9.7714,9.7714,9.7714,9.7714,9.7831,9.869,9.9002,9.9119,9.9978,10.029,10.0407,10.1188,10.15,10.1696,10.2515,10.2789,10.2789,10.2789,10.2789,10.2789,10.2789,10.2789,10.2789,10.2789,10.2789,10.2789,10.2789,10.2789,10.2789,10.2789,10.2894,10.2914,10.2914,10.2914,10.2914,10.2914,10.2888,10.2894,10.289,10.289,10.25,10.1719,10.0781,9.9922,9.9062,9.8164,9.7695,9.7695,9.7695,9.7695,9.7695,9.7695,9.7695,9.7695,9.7695,9.7689,9.7706,9.7565,9.7494,3.9663,4.1147,0.0,0.0,0.0,0.0,0.0,7.24,0.0,0.0,0.0,0.0,0.0,0.0,0.0,0.0,0.0,0.0,0.0,0.0,0.0,0.0,0.0,0.0,0.0,0.0,0.0,0.0,0.0,0.0,0.0,0.0,0.0,0.0,0.0,0.0,0.0,0.0,9.3263,9.3263,9.3263,9.3927,9.5137,9.5996,9.6386,9.6464,9.7323,9.7714,9.7714,9.7714,9.7714,9.7714,9.7714,9.7714,9.7714,9.7714,9.7714,9.7753,9.7987,9.8104,9.8143,9.8377,9.8885,9.9431,9.9666,10.0212,10.0681,10.0993,10.0993,10.0993,10.0993,10.0993,10.1305,10.2515,10.2789,10.2789,10.2789,10.2789,10.2789,10.2789,10.2789,10.2789,10.2906,10.2913,10.29,10.2886,10.2889,10.2889,10.2889,10.2886,10.2886,10.289,10.2383,10.1914,10.1601,10.0195,9.9297,9.9023,9.8164,9.7695,9.7695,9.7695,9.7695,9.7695,9.7695,9.7695,9.7695,9.7695,9.7691,9.7706,9.755,9.746,4.0834,0.0,0.0,0.0,0.0,0.0,0.0,0.0,0.0,0.0,0.0,0.0,0.0,0.0,0.0,0.0,0.0,0.0,0.0,0.0,0.0,0.0,0.0,0.0,0.0,0.0,0.0,0.0,0.0,0.0,0.0,0.0,0.0,0.0,0.0,0.0,0.0,0.0,0.0,9.2482,9.2482,9.3068,9.4083,9.4981,9.5371,9.541,9.6308,9.6855,9.7167,9.7167,9.7401,9.7714,9.7714,9.7714,9.7714,9.7714,9.7714,9.7714,9.7714,9.7714,9.7714,9.7714,9.8065,9.8533,9.8885,9.9353,9.9861,10.0212,10.029,10.029,10.029,10.029,10.0603,10.1618,10.1813,10.1813,10.1813,10.2086,10.2281,10.2281,10.2593,10.2906,10.2906,10.2894,10.2917,10.289,10.289,10.289,10.289,10.2617,10.2383,10.2383,10.1601,10.0898,10.0586,9.9609,9.8867,9.8515,9.8008,9.7695,9.7695,9.7695,9.7695,9.7695,9.7695,9.7695,9.7695,9.7695,9.7693,9.7719,9.7525,9.7381,4.2747,0.0,0.0,0.0,0.0,0.0,0.0,0.0,0.0,0.0,0.0,0.0,0.0,0.0,0.0,0.0,0.0,0.0,0.0,0.0,0.0,0.0,0.0,0.0,0.0,0.0,0.0,0.0,0.0,0.0,0.0,0.0,0.0,0.0,0.0,0.0,0.0,0.0,0.0,0.0,9.2443,9.2482,9.2522,9.3419,9.3849,9.3966,9.4747,9.5567,9.6308,9.6386,9.6855,9.7597,9.7675,9.7714,9.7714,9.7714,9.7714,9.7714,9.7714,9.7714,9.7714,9.7714,9.7714,9.7831,9.8651,9.8885,9.9041,9.9822,10.0095,10.0095,10.0095,10.0095,10.0095,10.0095,10.0212,10.029,10.029,10.0915,10.15,10.1618,10.2203,10.2789,10.2913,10.2921,10.289,10.289,10.289,10.289,10.2812,10.2109,10.1601,10.1484,10.0703,9.9844,9.9062,9.8945,9.8554,9.7734,9.7695,9.7695,9.7695,9.7695,9.7695,9.7695,9.7695,9.7695,9.7695,9.7695,9.7693,9.768,9.7408,9.7246,4.2591,4.8174,0.0,0.0,0.0,0.0,0.0,0.0,0.0,0.0,0.0,0.0,0.0,0.0,0.0,0.0,0.0,0.0,0.0,0.0,0.0,0.0,0.0,0.0,0.0,0.0,0.0,0.0,0.0,0.0,0.0,0.0,0.0,0.0,0.0,0.0,9.0531,9.1233,9.1546,0.0,9.2209,9.2482,9.2522,9.3419,9.4161,9.4825,9.502,9.5215,9.541,9.6113,9.6503,9.6738,9.744,9.7714,9.7714,9.7714,9.7714,9.7714,9.7714,9.7714,9.7714,9.7714,9.7714,9.7714,9.7909,9.7987,9.8026,9.8221,9.826,9.826,9.826,9.826,9.826,9.826,9.9314,10.029,10.029,10.0407,10.0798,10.15,10.1813,10.2107,10.2806,10.2889,10.289,10.289,10.289,10.2695,10.1992,10.1719,10.1289,10.0703,9.9804,9.9219,9.9023,9.8359,9.789,9.7695,9.7695,9.7695,9.7695,9.7695,9.7695,9.7695,9.7695,9.7695,9.7695,9.7695,9.7693,9.768,9.7408,9.7246,4.345,0.0,0.0,6.9958,0.0,0.0,0.0,0.0,0.0,0.0,0.0,0.0,0.0,0.0,0.0,0.0,0.0,0.0,0.0,0.0,0.0,0.0,0.0,0.0,0.0,0.0,0.0,0.0,0.0,0.0,0.0,0.0,0.0,0.0,0.0,0.0,9.0023,9.0843,9.1311,9.1311,9.2131,9.2482,9.2522,9.2951,9.3419,9.3849,9.3849,9.4083,9.4512,9.4981,9.541,9.5801,9.6269,9.6699,9.7089,9.7089,9.7323,9.7714,9.7714,9.7714,9.7714,9.7714,9.7714,9.7714,9.7714,9.7714,9.7714,9.7714,9.7714,9.7714,9.7714,9.7714,9.7714,9.7714,9.8391,9.9067,9.9067,9.9367,9.9822,10.029,10.0707,10.1082,10.1601,10.1719,10.1719,10.1719,10.1719,10.1484,10.1015,10.0586,10.0195,9.9726,9.8906,9.8398,9.8398,9.7969,9.7695,9.7695,9.7695,9.7695,9.7695,9.7695,9.7695,9.7695,9.7695,9.7695,9.7695,9.7695,9.7693,9.768,9.7408,9.7246,4.4192,0.0,6.3422,7.8642,8.4228,0.0,0.0,0.0,0.0,0.0,0.0,0.0,0.0,0.0,0.0,0.0,0.0,0.0,0.0,0.0,0.0,0.0,0.0,0.0,0.0,0.0,0.0,0.0,0.0,0.0,0.0,0.0,9.2522,9.2092,9.0726,8.9867,8.9555,9.0413,9.0843,9.0843,9.1663,9.2131,9.2287,9.2287,9.2365,9.2482,9.2482,9.2912,9.3576,9.3732,9.4239,9.4903,9.502,9.5527,9.6191,9.6347,9.6855,9.7518,9.7636,9.7714,9.7714,9.7714,9.7714,9.7714,9.7714,9.7714,9.7714,9.7714,9.7721,9.7682,9.7682,9.7721,9.7714,9.7714,9.7695,9.7715,9.7684,9.8258,9.8827,9.8983,9.9718,10.0312,10.0312,10.0312,10.0312,10.0312,10.0312,10.0195,10.0117,9.9453,9.8945,9.8789,9.8125,9.7695,9.7695,9.7695,9.7695,9.7695,9.7695,9.7695,9.7695,9.7695,9.7695,9.7695,9.7695,9.7695,9.7693,9.7693,9.7687,9.7662,9.7418,9.7266,0.0,0.0,7.0286,0.0,8.4685,8.6897,0.0,0.0,0.0,0.0,0.0,0.0,0.0,0.0,0.0,0.0,0.0,0.0,0.0,0.0,0.0,0.0,0.0,0.0,0.0,0.0,0.0,0.0,0.0,0.0,0.0,9.3732,9.26,9.0413,9.0101,8.9281,8.7759,8.8618,8.9047,8.9047,8.9906,9.0726,9.1467,9.1467,9.1858,9.2482,9.2482,9.2561,9.2717,9.3497,9.3888,9.4044,9.4825,9.5176,9.5371,9.6113,9.6464,9.6699,9.744,9.7714,9.7714,9.7714,9.7714,9.7714,9.7714,9.7714,9.7714,9.7714,9.7695,9.7715,9.7715,9.7701,9.7714,9.7714,9.7721,9.7701,9.7693,9.7772,9.8085,9.8866,9.9687,10.0312,10.0312,10.0312,10.0312,10.0312,10.0312,10.0,9.9258,9.9062,9.8711,9.7969,9.7773,9.7695,9.7695,9.7695,9.7695,9.7695,9.7695,9.7695,9.7695,9.7695,9.7695,9.7695,9.7695,9.7689,9.7689,9.7689,9.7667,9.7589,9.7401,9.7221,4.8174,5.9865,7.0809,0.0,8.4033,8.6533,8.8456,0.0,0.0,0.0,0.0,0.0,0.0,0.0,0.0,0.0,0.0,0.0,0.0,0.0,0.0,0.0,0.0,0.0,0.0,0.0,0.0,0.0,0.0,0.0,9.1663,9.1194,9.0413,8.932,8.8813,0.0,8.7407,8.8266,8.8969,8.9437,8.9828,9.0452,9.1311,9.1311,9.1741,9.2482,9.2482,9.2482,9.2522,9.2912,9.3068,9.3107,9.3497,9.3927,9.4434,9.4786,9.5567,9.6464,9.6855,9.7284,9.7714,9.7714,9.7714,9.7714,9.7714,9.7714,9.7714,9.7714,9.7689,9.7706,9.7689,9.7689,9.7715,9.7682,9.7706,9.7687,9.7695,9.7695,9.7812,9.8203,9.8594,9.8828,9.8828,9.8828,9.8828,9.8828,9.8828,9.8711,9.832,9.8281,9.8125,9.7734,9.7695,9.7695,9.7695,9.7695,9.7695,9.7695,9.7695,9.7695,9.7695,9.7695,9.7693,9.7715,9.7693,9.7689,9.7714,9.7621,9.7554,9.7525,9.7276,9.707,0.0,0.0,6.7812,7.6223,8.069,8.3594,0.0,0.0,0.0,0.0,0.0,0.0,0.0,0.0,0.0,0.0,0.0,0.0,0.0,0.0,0.0,0.0,0.0,0.0,0.0,0.0,0.0,0.0,0.0,0.0,8.9672,8.9047,8.8618,8.8383,8.7759,8.7407,8.7407,8.8032,8.8696,8.932,8.932,8.9789,9.0648,9.0648,9.1077,9.1897,9.2326,9.2482,9.2482,9.2482,9.2482,9.2482,9.2482,9.2912,9.3497,9.3732,9.463,9.5801,9.6269,9.6823,9.7415,9.761,9.7689,9.7689,9.7689,9.7682,9.7714,9.7714,9.7689,9.7711,9.7694,9.7695,9.7694,9.7711,9.7687,9.7695,9.7695,9.7695,9.7695,9.7695,9.7695,9.7695,9.7695,9.7695,9.7695,9.7695,9.7695,9.7695,9.7695,9.7695,9.7695,9.7695,9.7695,9.7695,9.7695,9.7695,9.7695,9.7695,9.7695,9.7695,9.7695,9.7695,9.7689,9.7714,9.7675,9.7667,9.765,9.7556,9.7471,9.741,9.712,9.6964,0.0,5.4289,0.0,6.9263,7.3189,0.0,0.0,0.0,0.0,0.0,0.0,0.0,0.0,0.0,0.0,0.0,0.0,0.0,0.0,0.0,0.0,0.0,0.0,0.0,0.0,0.0,0.0,0.0,0.0,0.0,8.8813,8.8735,8.8305,8.7486,8.7407,8.7407,8.7407,8.7446,8.7486,8.7525,8.7525,8.7993,8.8852,8.8852,8.932,9.0218,9.1819,9.2482,9.2482,9.2482,9.2482,9.2482,9.2482,9.2522,9.2678,9.3497,9.3849,9.4161,9.584,9.6445,9.6587,9.7446,9.7719,9.7719,9.7719,9.7701,9.7714,9.7714,9.7715,9.7695,9.7695,9.7695,9.7695,9.7695,9.7695,9.7695,9.7695,9.7695,9.7695,9.7695,9.7695,9.7695,9.7695,9.7695,9.7695,9.7695,9.7695,9.7695,9.7695,9.7695,9.7695,9.7695,9.7695,9.7695,9.7695,9.7695,9.7695,9.7695,9.7695,9.7695,9.7695,9.7695,9.7689,9.7714,9.7575,9.7526,9.7616,9.755,9.7416,9.7206,9.7076,9.6902,0.0,0.0,0.0,6.089,6.6037,7.0759,0.0,0.0,0.0,0.0,0.0,0.0,0.0,0.0,0.0,0.0,0.0,0.0,0.0,0.0,0.0,0.0,0.0,0.0,0.0,0.0,0.0,0.0,0.0,0.0,8.7876,8.7876,8.772,8.7407,8.7407,8.7407,8.7407,8.7407,8.7407,8.7407,8.7407,8.7876,8.8696,8.8696,8.9164,9.0023,9.0648,9.1194,9.1741,9.1741,9.2053,9.2561,9.2561,9.2561,9.26,9.2912,9.338,9.3966,9.4591,9.5144,9.567,9.601,9.6482,9.6912,9.6912,9.7301,9.7687,9.7687,9.7693,9.7695,9.7695,9.7695,9.7695,9.7695,9.7695,9.7695,9.7695,9.7695,9.7695,9.7695,9.7695,9.7695,9.7695,9.7695,9.7695,9.7695,9.7695,9.7695,9.7695,9.7695,9.7695,9.7695,9.7695,9.7695,9.7695,9.7695,9.7695,9.7695,9.7695,9.7693,9.7711,9.7711,9.7689,9.765,9.755,9.7497,9.7525,9.7302,9.713,9.7076,9.6914,9.6783,3.8297,0.0,0.0,0.0,0.0,6.3282,6.7927,0.0,0.0,0.0,0.0,0.0,0.0,0.0,0.0,0.0,0.0,0.0,0.0,0.0,0.0,0.0,0.0,0.0,0.0,0.0,0.0,0.0,0.0,0.0,8.7407,8.7407,8.7407,8.7407,8.7407,8.7407,8.7407,8.7407,8.7407,8.7407,8.7407,8.772,8.8266,8.8266,8.8579,8.9125,8.9125,8.9789,9.0882,9.1194,9.163,9.2189,9.2502,9.2619,9.2619,9.2619,9.2964,9.3497,9.381,9.4292,9.4821,9.5116,9.5781,9.6484,9.6484,9.707,9.7695,9.7695,9.7695,9.7695,9.7695,9.7695,9.7695,9.7695,9.7695,9.7695,9.7695,9.7695,9.7695,9.7695,9.7695,9.7695,9.7695,9.7695,9.7695,9.7695,9.7695,9.7695,9.7695,9.7695,9.7695,9.7695,9.7695,9.7695,9.7695,9.7695,9.7695,9.7695,9.7695,9.7689,9.7714,9.7655,9.7589,9.7578,9.7398,9.7343,9.7342,9.712,9.6992,9.6954,9.6783,9.6668,0.0,0.0,0.0,0.0,0.0,0.0,0.0,0.0,0.0,0.0,0.0,0.0,0.0,0.0,0.0,0.0,0.0,0.0,0.0,0.0,0.0,0.0,0.0,0.0,0.0,0.0,0.0,0.0,0.0,8.7329,8.7368,8.7407,8.7407,8.7407,8.7407,8.7407,8.7407,8.7368,8.7368,8.7407,8.7407,8.7407,8.7407,8.7446,8.7407,8.7407,8.7407,8.8344,8.9984,9.0843,9.1252,9.1392,9.2212,9.2564,9.2603,9.2603,9.259,9.2724,9.3582,9.3849,9.3984,9.4844,9.5742,9.6445,9.6445,9.7031,9.7695,9.7695,9.7695,9.7695,9.7695,9.7695,9.7695,9.7695,9.7695,9.7695,9.7695,9.7695,9.7695,9.7695,9.7695,9.7695,9.7695,9.7695,9.7695,9.7695,9.7695,9.7695,9.7695,9.7695,9.7695,9.7695,9.7695,9.7695,9.7695,9.7695,9.7695,9.7695,9.7695,9.7689,9.7721,9.7553,9.7508,9.7496,9.7159,9.7014,9.7028,9.7004,9.6954,9.6898,9.6761,9.6603,3.1816,0.0,0.0,0.0,0.0,0.0,0.0,0.0,0.0,0.0,0.0,0.0,0.0,0.0,0.0,0.0,0.0,0.0,0.0,0.0,0.0,0.0,0.0,0.0,0.0,0.0,0.0,0.0,8.5534,8.5807,8.6431,8.7056,8.7407,8.7407,8.7407,8.7407,8.7407,8.6783,8.6783,8.7407,8.7407,8.7407,8.7407,8.8032,8.7993,8.7407,8.7407,8.7681,8.8188,8.9047,9.0147,9.133,9.1557,9.203,9.2616,9.2616,9.2615,9.2613,9.2887,9.2968,9.3008,9.3242,9.4336,9.5547,9.5547,9.6562,9.7695,9.7695,9.7695,9.7695,9.7695,9.7695,9.7695,9.7695,9.7695,9.7695,9.7695,9.7695,9.7695,9.7695,9.7695,9.7695,9.7695,9.7695,9.7695,9.7695,9.7695,9.7695,9.7695,9.7695,9.7695,9.7695,9.7695,9.7695,9.7695,9.7695,9.7695,9.7695,9.7695,9.7693,9.7711,9.7543,9.746,9.7371,9.7121,9.7006,9.6914,9.6859,9.687,9.6812,9.6661,9.6463,3.166,3.2519,0.0,0.0,0.0,0.0,0.0,5.0659,0.0,0.0,0.0,0.0,0.0,0.0,0.0,0.0,0.0,0.0,0.0,0.0,0.0,0.0,0.0,0.0,0.0,0.0,0.0,0.0,8.4792,8.5182,8.6041,8.6939,8.7407,8.7407,8.7056,8.6861,8.6861,8.6002,8.5807,8.6314,8.6666,8.7056,8.7446,8.8305,8.8422,8.7954,8.7954,8.7759,8.7446,8.7993,8.8987,9.0295,9.1015,9.1601,9.2109,9.2461,9.2617,9.2617,9.2617,9.2617,9.2617,9.2617,9.3515,9.4726,9.5078,9.6133,9.7265,9.7617,9.7695,9.7695,9.7695,9.7695,9.7695,9.7695,9.7695,9.7695,9.7695,9.7695,9.7695,9.7695,9.7695,9.7695,9.7695,9.7695,9.7695,9.7695,9.7695,9.7695,9.7695,9.7695,9.7695,9.7695,9.7695,9.7695,9.7695,9.7695,9.7695,9.7695,9.7695,9.7694,9.768,9.75,9.7381,9.7243,9.7013,9.6887,9.6812,9.6822,9.6598,9.619,9.5991,9.5662,3.3612,3.4276,0.0,0.0,0.0,0.0,3.9039,4.4883,0.0,0.0,0.0,0.0,0.0,0.0,0.0,0.0,0.0,0.0,0.0,0.0,0.0,0.0,0.0,0.0,0.0,0.0,8.4519,8.4519,8.4597,8.4987,8.5768,8.6627,8.7095,8.7095,8.6353,8.5963,8.5963,8.5104,8.4714,8.4792,8.5573,8.6392,8.7297,8.8273,8.8702,8.8696,8.8696,8.8266,8.7525,8.7492,8.7952,8.8867,9.039,9.1133,9.1406,9.2187,9.2539,9.2617,9.2617,9.2617,9.2617,9.2617,9.3203,9.4023,9.4804,9.5664,9.6484,9.7226,9.75,9.7578,9.7578,9.7617,9.7695,9.7695,9.7695,9.7695,9.7695,9.7695,9.7695,9.7695,9.7695,9.7695,9.7695,9.7695,9.7695,9.7695,9.7695,9.7695,9.7695,9.7695,9.7695,9.7695,9.7695,9.7695,9.7695,9.7695,9.7695,9.7694,9.7694,9.7691,9.7672,9.7447,9.7266,9.7188,9.6928,9.6714,9.6545,9.6637,9.619,9.5263,9.5041,9.451,3.6306,3.5642,3.4822,0.0,0.0,0.0,0.0,3.8997,0.0,0.0,0.0,0.0,0.0,0.0,0.0,0.0,0.0,0.0,0.0,0.0,0.0,0.0,0.0,0.0,0.0,0.0,8.2801,8.2801,8.3386,8.3816,8.4011,8.4831,8.5299,8.5299,8.5143,8.5065,8.5065,8.4206,8.4128,8.4792,8.4987,8.5507,8.6425,8.7987,8.8719,8.8696,8.8696,8.8618,8.839,8.7763,8.7968,8.8711,8.9062,9.0078,9.1328,9.1484,9.1992,9.2617,9.2617,9.2617,9.2617,9.2617,9.3203,9.3945,9.4101,9.4765,9.5508,9.5625,9.6172,9.6719,9.6719,9.7226,9.7695,9.7695,9.7695,9.7695,9.7695,9.7695,9.7695,9.7695,9.7695,9.7695,9.7695,9.7695,9.7695,9.7695,9.7695,9.7695,9.7695,9.7695,9.7695,9.7695,9.7695,9.7695,9.7695,9.7695,9.7691,9.7701,9.7695,9.7675,9.7611,9.7398,9.7242,9.7126,9.6914,9.6444,9.5656,9.5687,9.5477,9.5118,9.4429,9.4009,3.7828,3.7321,3.654,3.6111,0.0,0.0,0.0,0.0,0.0,0.0,0.0,0.0,0.0,0.0,0.0,0.0,0.0,0.0,0.0,0.0,0.0,0.0,0.0,0.0,0.0,0.0,8.1825,8.2254,8.3465,8.3972,8.3504,8.4753,8.526,8.4792,8.4401,8.4206,8.4206,8.3347,8.3113,8.3543,8.3972,8.4642,8.5556,8.7297,8.8117,8.8111,8.8541,8.8463,8.8072,8.7655,8.7734,8.8125,8.8554,8.9219,9.0117,9.0976,9.1562,9.1992,9.2461,9.2617,9.2617,9.2617,9.289,9.332,9.3789,9.4492,9.5195,9.5195,9.5508,9.5859,9.5859,9.6133,9.6445,9.6445,9.6445,9.6445,9.6445,9.6445,9.6562,9.7031,9.7109,9.7226,9.7617,9.7695,9.7695,9.7695,9.7695,9.7695,9.7695,9.7695,9.7695,9.7695,9.7695,9.7695,9.7695,9.7695,9.7689,9.7721,9.7628,9.7572,9.7564,9.7281,9.7083,9.6967,9.6444,9.5872,9.5361,9.4473,9.3985,9.3851,9.3431,9.29,0.0,0.0,0.0,0.0,0.0,3.6462,0.0,0.0,0.0,0.0,0.0,0.0,0.0,0.0,0.0,0.0,0.0,0.0,0.0,0.0,0.0,0.0,0.0,0.0,0.0,0.0,8.0537,8.1239,8.2567,8.3074,8.2567,8.4011,8.4636,8.4089,8.3426,8.3197,8.3359,8.2657,8.2299,8.2293,8.2996,8.3822,8.4697,8.6442,8.7344,8.7539,8.8359,8.832,8.7734,8.7578,8.75,8.7578,8.8203,8.8554,8.8867,9.0273,9.1015,9.1406,9.2109,9.2461,9.2617,9.2617,9.2617,9.2734,9.3437,9.414,9.4687,9.4687,9.4804,9.4961,9.4961,9.5078,9.5195,9.5195,9.5195,9.5195,9.5195,9.5195,9.539,9.6094,9.6406,9.6758,9.7578,9.7695,9.7695,9.7695,9.7695,9.7695,9.7695,9.7695,9.7695,9.7695,9.7695,9.7695,9.7693,9.7693,9.7684,9.7667,9.7577,9.7479,9.7449,9.7159,9.6851,9.6551,9.5855,9.5292,9.4827,9.3438,9.2679,9.2584,9.2361,9.1864,0.0,0.0,0.0,0.0,3.775,0.0,0.0,0.0,0.0,0.0,0.0,0.0,0.0,0.0,0.0,0.0,0.0,0.0,0.0,0.0,0.0,0.0,0.0,0.0,0.0,0.0,0.0,7.7687,7.7882,7.8272,7.8936,7.9912,8.0732,8.1396,8.1356,8.168,8.2445,8.2367,8.232,8.2293,8.2411,8.2906,8.3827,8.5546,8.6758,8.7539,8.8359,8.8633,8.8515,8.7773,8.75,8.75,8.7617,8.8086,8.8711,8.8906,8.9961,9.1328,9.1406,9.1953,9.2617,9.2617,9.2617,9.2617,9.2734,9.2812,9.289,9.289,9.3437,9.4062,9.4062,9.4609,9.5195,9.5195,9.5195,9.5195,9.5195,9.5195,9.5234,9.5312,9.5976,9.6758,9.7578,9.7695,9.7695,9.7695,9.7695,9.7695,9.7695,9.7695,9.7695,9.7695,9.7695,9.7691,9.7695,9.7689,9.7667,9.7628,9.7535,9.7398,9.7227,9.7018,9.6493,9.5661,9.5545,9.4704,9.3076,9.2883,9.2711,9.2479,9.171,9.1287,0.0,0.0,0.0,0.0,0.0,0.0,0.0,0.0,3.5564,0.0,0.0,0.0,0.0,0.0,0.0,0.0,0.0,0.0,0.0,0.0,0.0,0.0,0.0,0.0,0.0,0.0,0.0,0.0,0.0,7.6242,7.757,7.9444,8.0381,8.0263,8.0732,8.1167,8.153,8.2063,8.2301,8.2295,8.2295,8.2497,8.289,8.4648,8.5664,8.6054,8.7422,8.8008,8.7969,8.7656,8.75,8.75,8.75,8.7695,8.8047,8.8515,8.914,8.9922,9.0937,9.1523,9.1914,9.2422,9.2617,9.2617,9.2617,9.2617,9.2617,9.2617,9.2851,9.3164,9.3164,9.3437,9.3672,9.3672,9.3672,9.3672,9.3672,9.3672,9.3828,9.4336,9.4726,9.5273,9.6094,9.707,9.7695,9.7695,9.7695,9.7695,9.7695,9.7695,9.7695,9.7695,9.7695,9.7691,9.7682,9.7637,9.7557,9.7564,9.7303,9.7143,9.6993,9.6395,9.5884,9.5506,9.4539,9.3659,9.2797,9.2334,9.201,9.1881,9.1467,9.1241,4.8954,0.0,0.0,0.0,0.0,0.0,0.0,0.0,0.0,0.0,0.0,0.0,0.0,0.0,0.0,0.0,0.0,0.0,0.0,0.0,0.0,0.0,0.0,0.0,0.0,0.0,0.0,0.0,0.0,0.0,7.4218,7.7229,7.8825,7.8663,7.9717,8.0504,8.0988,8.1637,8.207,8.2304,8.2304,8.2304,8.2344,8.3867,8.4531,8.4648,8.6133,8.6914,8.7148,8.7148,8.7265,8.75,8.75,8.75,8.7578,8.8164,8.8515,8.8867,9.0156,9.0898,9.1445,9.2304,9.2617,9.2617,9.2617,9.2617,9.2617,9.2617,9.2617,9.2617,9.2617,9.2617,9.2617,9.2617,9.2617,9.2617,9.2617,9.2617,9.2773,9.3437,9.375,9.4101,9.4726,9.6054,9.6992,9.6992,9.6992,9.6992,9.7027,9.7027,9.7027,9.6991,9.6991,9.6981,9.6956,9.6838,9.6765,9.6698,9.6422,9.6204,9.6087,9.5274,9.481,9.481,9.3379,9.2615,9.2518,9.19,9.1561,9.1462,9.1406,9.1341,0.0,0.0,0.0,4.5515,0.0,0.0,0.0,0.0,3.7516,0.0,0.0,0.0,0.0,0.0,0.0,0.0,0.0,0.0,0.0,0.0,0.0,0.0,0.0,0.0,0.0,0.0,0.0,0.0,0.0,0.0,6.7096,7.1236,7.4314,7.5969,7.7609,7.9274,8.0976,8.1015,8.1484,8.2304,8.2304,8.2304,8.2344,8.3242,8.3633,8.3672,8.4609,8.5469,8.625,8.625,8.6758,8.75,8.75,8.75,8.75,8.7539,8.8047,8.8711,8.875,8.9883,9.1445,9.2304,9.2617,9.2617,9.2617,9.2617,9.2617,9.2617,9.2617,9.2617,9.2617,9.2617,9.2617,9.2617,9.2617,9.2617,9.2617,9.2617,9.2617,9.2656,9.332,9.3906,9.3945,9.4687,9.5273,9.5273,9.5273,9.527,9.5268,9.5261,9.5274,9.5181,9.5184,9.5162,9.5093,9.503,9.4868,9.4629,9.4486,9.4353,9.4269,9.3495,9.307,9.307,9.2218,9.1754,9.1754,9.1716,9.1677,9.1716,9.15,9.1336,0.0,0.0,5.2624,5.0594,0.0,0.0,0.0,0.0,0.0,0.0,0.0,0.0,0.0,0.0,0.0,0.0,0.0,0.0,0.0,0.0,0.0,0.0,0.0,0.0,0.0,0.0,0.0,0.0,5.7218,0.0,0.0,6.8397,7.1794,7.4095,7.6987,7.8747,7.9336,8.0469,8.1133,8.1445,8.2031,8.2304,8.2344,8.3203,8.3594,8.3633,8.4531,8.5078,8.5351,8.5341,8.5834,8.6659,8.6591,8.6948,8.7456,8.7461,8.7656,8.7969,8.8515,8.9844,9.1367,9.164,9.2148,9.2617,9.2617,9.2617,9.2617,9.2617,9.2617,9.2617,9.2617,9.2617,9.2617,9.2617,9.2617,9.2617,9.2617,9.2617,9.2617,9.2617,9.2851,9.3047,9.3047,9.3281,9.3867,9.5039,9.5195,9.5191,9.519,9.5104,9.499,9.4952,9.4901,9.4807,9.4812,9.4699,9.4535,9.433,9.4276,9.422,9.4191,9.3418,9.2992,9.2992,9.2141,9.1716,9.1716,9.1716,9.1716,9.1716,9.162,9.1531,6.1486,5.9534,0.0,0.0,5.2858,0.0,4.5573,0.0,0.0,0.0,0.0,0.0,0.0,0.0,0.0,4.2302,4.0349,0.0,0.0,0.0,0.0,0.0,0.0,0.0,0.0,0.0,5.0889,5.201,5.1872,0.0,0.0,0.0,6.8945,7.1875,7.5898,7.8203,7.8515,7.9844,8.0703,8.1015,8.1875,8.2304,8.2304,8.289,8.3125,8.3164,8.3711,8.414,8.4446,8.4458,8.5104,8.6158,8.6103,8.6615,8.7401,8.7456,8.7459,8.7576,8.8396,8.9451,9.0467,9.1092,9.1679,9.2187,9.25,9.2617,9.2617,9.2617,9.2617,9.2617,9.2617,9.2617,9.2617,9.2617,9.2617,9.2617,9.2617,9.2617,9.2617,9.2617,9.2617,9.2617,9.2617,9.2617,9.2968,9.4096,9.4289,9.4278,9.4224,9.409,9.3974,9.3956,9.3839,9.3745,9.3702,9.3613,9.3491,9.333,9.3302,9.3302,9.3302,9.2528,9.2218,9.2528,9.1677,9.1406,9.1716,9.1716,9.1716,9.1716,9.1716,9.162]},{"header":{"parameterUnit":"m.s-1","parameterCategory":1,"la1":30.6,"la2":29.2853,"lo1":-89.7004,"lo2":-87.6739,"dy":0.0162,"dx":0.0183,"nx":112,"ny":82,"refTime":"2026-03-24T00:00:00:Z","depth":0,"parameterNumber":3,"parameterNumberName":"V-component_of_WINDS"},"data":[0.0,0.0,0.0,0.0,0.0,0.0,0.0,0.0,0.0,0.0,0.0,0.0,0.0,0.0,0.0,0.0,0.0,0.0,0.0,0.0,0.0,0.0,0.0,0.0,0.0,0.0,0.0,0.0,0.0,0.0,0.0,0.0,0.0,0.0,0.0,0.0,0.0,0.0,0.0,0.0,0.0,0.0,0.0,0.0,0.0,0.0,0.0,0.0,0.0,0.0,0.0,0.0,0.0,0.0,0.0,0.0,0.0,0.0,0.0,0.0,0.0,0.0,0.0,0.0,0.0,0.0,0.0,0.0,0.0,0.0,0.0,0.0,0.0,0.0,0.0,0.0,0.0,0.0,0.0,0.0,0.0,0.0,0.0,0.0,0.0,0.0,0.0,0.0,0.0,0.0,0.0,0.5112,0.5759,0.5121,0.2706,0.2373,0.3303,0.5599,0.0,0.0,0.0,0.0,0.0,0.0,0.0,0.0,0.0,0.0,0.0,0.0,0.0,0.0,0.0,0.0,0.0,0.0,0.0,0.0,0.0,0.0,0.0,0.0,0.0,0.0,0.0,0.0,0.0,0.0,0.0,0.0,0.0,0.0,0.0,0.0,0.0,0.0,0.0,0.0,0.0,0.0,0.0,0.0,0.0,0.0,0.0,0.0,0.0,0.0,0.0,0.0,0.0,0.0,0.0,0.0,0.0,0.0,0.0,0.0,0.0,0.0,0.0,0.0,0.0,0.0,0.0,0.0,0.0,0.0,0.0,0.0,0.0,0.0,0.0,0.0,0.0,0.0,0.0,0.0,0.0,0.0,0.0,0.0,0.0,0.0,0.0,0.0,0.0,0.0,0.0,0.0,0.0,0.0,0.0,0.0,0.0,0.0,0.0,0.0,0.0,0.0,0.0,0.0,0.5405,0.6367,0.6654,0.5988,0.4198,0.4849,0.5661,0.6068,0.0,0.0,0.0,0.0,0.0,0.0,0.0,0.0,0.0,0.0,0.0,0.0,0.0,0.0,0.0,0.0,0.0,0.0,0.0,0.0,0.0,0.0,0.0,0.0,0.0,0.0,0.0,0.0,0.0,0.0,0.0,0.0,0.0,0.0,0.0,0.0,0.0,0.0,0.0,0.0,0.0,0.0,0.0,0.0,0.0,0.0,0.0,0.0,0.0,0.0,0.0,0.0,0.0,0.0,0.0,0.0,0.0,0.0,0.0,0.0,0.0,0.0,0.0,0.0,0.0,0.0,0.0,0.0,0.0,0.0,0.0,0.0,0.0,0.0,0.0,0.0,0.0,0.0,0.0,0.0,0.0,0.0,0.0,0.0,0.0,0.0,0.0,0.0,0.0,0.0,0.0,0.0,0.0,0.0,0.0,0.0,0.0,0.0,0.0,0.0,0.0,0.0,0.0,0.6705,0.79,0.7757,0.8515,0.8164,0.669,0.6928,0.6951,0.5715,0.4913,0.0,0.0,0.0,0.0,0.0,0.0,0.0,0.0,0.0,0.0,0.0,0.0,0.0,0.0,0.0,0.0,0.0,0.0,0.0,0.0,0.0,0.0,0.0,0.0,0.0,0.0,0.0,0.0,0.0,0.0,0.0,0.0,0.0,0.0,0.0,0.0,0.0,0.0,0.0,0.0,0.0,0.0,0.0,0.0,0.0,0.0,0.0,0.0,0.0,0.0,0.0,0.0,0.0,0.0,0.0,0.0,0.0,0.0,0.0,0.0,0.0,0.0,0.0,0.0,0.0,0.0,0.0,0.0,0.0,0.0,0.0,0.0,0.0,0.0,0.0,0.0,0.0,0.0,0.0,0.0,0.0,0.0,0.0,0.0,0.0,0.0,0.0,0.0,0.0,0.0,0.0,0.0,0.0,0.0,0.0,0.0,0.0,0.0,0.0,0.0,0.0,0.0,0.8728,1.0015,0.9089,0.9941,1.0116,0.8682,0.8446,0.7512,0.542,0.415,0.0,0.0,0.0,0.0,0.0,0.0,0.0,0.0,0.0,0.0,0.0,0.0,0.0,0.0,0.0,0.0,0.0,0.0,0.0,0.0,0.0,0.0,0.0,0.0,0.0,0.0,0.0,0.0,0.0,0.0,0.0,0.0,0.0,0.0,0.0,0.0,0.0,0.0,0.0,0.0,0.0,0.0,0.0,0.0,0.0,0.0,0.0,0.0,0.0,0.0,0.0,0.0,0.0,0.0,0.0,0.0,0.0,0.0,0.0,0.0,0.0,0.0,0.0,0.0,0.0,0.0,0.0,0.0,0.0,0.0,0.0,0.0,0.0,0.0,0.0,0.0,0.0,0.0,0.0,0.0,0.0,0.0,0.0,0.0,0.0,0.0,0.0,0.0,0.0,0.0,0.0,0.0,0.0,0.0,0.0,0.0,0.0,0.0,0.0,0.0,0.0,0.0,0.8927,1.0151,1.0432,1.0477,1.0277,0.9742,0.8962,0.7539,0.537,0.3671,0.0,0.0,0.0,0.0,0.0,0.0,0.0,0.0,0.0,0.0,0.0,0.0,0.0,0.0,0.0,0.0,0.0,0.0,0.0,0.0,0.0,0.0,0.0,0.0,0.0,0.0,0.0,0.0,0.0,0.0,0.0,0.0,0.0,0.0,0.0,0.0,0.0,0.0,0.0,0.0,0.0,0.0,0.0,0.0,0.0,0.0,0.0,0.0,0.0,0.0,0.0,0.0,0.0,0.0,0.0,0.0,0.0,0.0,0.0,0.0,0.0,0.0,0.0,0.0,0.0,0.0,0.0,0.0,0.0,0.0,0.0,0.0,0.0,0.0,0.0,0.0,0.0,0.0,0.0,0.0,0.0,0.0,0.0,0.0,0.0,0.0,0.0,0.0,0.0,0.0,0.0,0.0,0.0,0.0,0.0,0.0,0.0,0.0,0.0,0.0,0.0,0.0,0.9013,1.0249,0.0,1.049,1.0269,0.9726,0.8885,0.7616,0.562,0.0,0.0,0.0,0.0,0.0,0.0,0.0,0.0,0.0,0.0,0.0,0.0,0.0,0.0,0.0,0.0,0.0,0.0,0.0,0.0,0.0,0.0,0.0,0.0,0.0,0.0,0.0,0.0,0.0,0.0,0.0,0.0,0.0,0.0,0.0,0.0,0.0,0.0,0.0,0.0,0.0,0.0,0.0,0.0,0.0,0.0,0.0,0.0,0.0,0.0,0.0,0.0,0.0,0.0,0.0,0.0,0.0,0.0,0.0,0.0,0.0,0.0,0.0,0.0,0.0,0.0,0.0,0.0,0.0,0.0,0.0,0.0,0.0,0.0,0.0,0.0,0.0,0.0,0.0,0.0,0.0,0.0,0.0,0.0,0.0,0.0,0.0,0.0,0.0,0.0,0.0,0.0,0.0,0.0,0.0,0.0,0.0,0.0,0.0,0.0,0.0,0.0,0.6996,0.9068,1.0318,0.0,1.049,1.0269,0.9726,0.8852,0.7581,0.5911,0.0,0.0,0.0,0.0,0.0,0.0,0.0,0.0,0.0,0.0,0.0,0.0,0.0,0.0,0.0,0.0,0.0,0.0,0.0,0.0,0.0,0.0,0.0,0.0,0.0,0.0,0.0,0.0,0.0,0.0,0.0,0.0,0.0,0.0,0.0,0.0,0.0,0.0,0.0,0.0,0.0,0.0,0.0,0.0,0.0,0.0,0.0,0.0,0.0,0.0,0.0,0.0,0.0,0.0,0.0,0.0,0.0,0.0,0.0,0.0,0.0,0.0,0.0,0.0,0.0,0.0,0.0,0.0,0.0,0.0,0.0,0.0,0.0,0.0,0.0,0.0,0.0,0.0,0.0,0.0,0.0,0.0,0.0,0.0,0.0,0.0,0.0,0.0,0.0,0.0,0.0,0.0,0.0,0.0,0.0,0.0,0.0,0.0,0.0,0.0,0.0,0.0,0.7174,0.9123,1.0387,1.0481,1.049,1.0269,0.973,0.886,0.7753,0.0,0.0,0.0,0.0,0.0,0.0,0.0,0.0,0.0,0.0,0.0,0.0,0.0,0.0,0.0,0.0,0.0,0.0,0.0,0.0,0.0,0.0,0.0,0.0,0.0,0.0,0.0,0.0,0.0,0.0,0.0,0.0,0.0,0.0,0.0,0.0,0.0,0.0,0.0,0.0,0.0,0.0,0.0,0.0,0.0,0.0,0.0,0.0,0.0,0.0,0.0,0.0,0.0,0.0,0.0,0.0,0.0,0.0,0.0,0.0,0.0,0.0,0.0,0.0,0.0,0.0,0.0,0.0,0.0,0.0,0.0,0.0,0.0,0.0,0.0,0.0,0.0,0.0,0.0,0.0,0.0,0.0,0.0,0.0,0.0,0.0,0.0,0.0,0.0,0.0,0.0,0.0,0.0,0.0,0.0,0.0,0.0,0.0,0.0,0.0,0.0,0.0,0.0,0.0,0.932,1.0387,1.0481,1.049,1.0322,0.991,0.922,0.8185,0.685,0.0,0.0,0.0,0.0,0.0,0.0,0.0,0.0,0.0,0.0,0.0,0.0,0.0,0.0,0.0,0.0,0.0,0.0,0.0,0.0,0.0,0.0,0.0,0.0,0.0,0.0,0.0,0.0,0.0,0.0,0.0,0.0,0.0,0.0,0.0,0.0,0.0,0.0,0.0,0.0,0.0,0.0,0.0,0.0,0.0,0.0,0.0,0.0,0.0,0.0,0.0,0.0,0.0,0.0,0.0,0.0,0.0,0.0,0.0,0.0,0.0,0.0,0.0,0.0,0.0,0.0,0.0,0.0,0.0,0.0,0.0,0.0,0.0,0.0,0.0,0.0,0.0,0.0,0.0,0.0,0.0,0.0,0.0,0.0,0.0,0.0,0.0,0.0,0.0,0.0,0.0,0.0,0.0,0.0,0.0,0.0,0.0,0.0,0.0,0.0,0.0,0.0,0.7969,0.9296,1.0375,1.0428,1.0469,1.0371,1.0081,0.9542,0.8775,0.7565,0.0,0.0,0.0,0.0,0.0,0.0,0.0,0.0,0.0,0.0,0.0,0.0,0.0,0.0,0.0,0.0,0.0,0.0,0.0,0.0,0.0,0.0,0.0,0.0,0.0,0.0,0.0,0.0,0.0,0.0,0.0,0.0,0.0,0.0,0.0,0.0,0.0,0.0,0.0,0.0,0.0,0.0,0.0,0.0,0.0,0.0,0.0,0.0,0.0,0.0,0.0,0.0,0.0,0.0,0.0,0.0,0.0,0.0,0.0,0.0,0.0,0.0,0.0,0.0,0.0,0.0,0.0,0.0,0.0,0.0,0.0,0.0,0.0,0.0,0.0,0.0,0.0,0.0,0.0,0.0,0.0,0.0,0.0,0.0,0.0,0.0,0.0,0.0,0.0,0.0,0.0,0.0,0.0,0.0,0.0,0.0,0.0,0.0,0.0,0.0,0.0,0.0,0.806,0.9452,1.0343,1.0351,1.0441,1.0428,1.0245,0.9832,0.9158,0.8162,0.0,0.0,0.0,0.0,0.0,0.0,0.0,0.0,0.0,0.0,0.0,0.0,0.0,0.0,0.0,0.0,0.0,0.0,0.0,0.0,0.0,0.0,0.0,0.0,0.0,0.0,0.0,0.0,0.0,0.0,0.0,0.0,0.0,0.0,0.0,0.0,0.0,0.0,0.0,0.0,0.0,0.0,0.0,0.0,0.0,0.0,0.0,0.0,0.0,0.0,0.0,0.0,0.0,0.0,0.0,0.0,0.0,0.0,0.0,0.0,0.6614,0.0,0.0,0.0,0.0,0.0,0.0,0.0,0.0,0.0,0.0,0.0,0.0,0.0,0.0,0.0,0.0,0.0,0.0,0.0,0.0,0.0,0.0,0.0,0.0,0.0,0.0,0.0,0.0,0.0,0.0,0.0,0.0,0.0,0.0,0.0,0.0,0.0,0.0,0.0,0.0,0.0,0.8052,0.9395,1.0273,1.0347,1.0494,1.0522,1.0338,1.004,0.944,0.8448,0.0,0.0,0.0,0.0,0.0,0.0,0.0,0.0,0.0,0.0,0.0,0.0,0.0,0.0,0.0,0.0,0.0,0.0,0.0,0.0,0.0,0.0,0.0,0.0,0.0,0.0,0.0,0.0,0.0,0.0,0.0,0.0,0.0,0.0,0.0,0.0,0.0,0.0,0.0,0.0,0.0,0.0,0.0,0.0,0.0,0.0,0.0,0.0,0.0,0.0,0.0,0.0,0.0,0.0,0.0,0.0,0.0,0.0,0.0,0.0,0.0,0.6877,0.0,0.0,0.0,0.0,0.0,0.0,0.0,0.0,0.0,0.0,0.0,0.0,0.0,0.0,0.0,0.0,0.0,0.0,0.0,0.0,0.0,0.0,0.0,0.0,0.0,0.0,0.0,0.0,0.0,0.0,0.0,0.0,0.0,0.0,0.0,0.0,0.0,0.0,0.0,0.0,0.8048,0.9342,1.0187,1.0277,1.0485,1.0543,1.0367,1.0106,0.9583,0.8717,0.7774,0.0,0.0,0.0,0.0,0.0,0.0,0.0,0.0,0.0,0.0,0.0,0.0,0.0,0.0,0.0,0.0,0.0,0.0,0.0,0.0,0.0,0.0,0.0,0.0,0.0,0.0,0.0,0.0,0.0,0.0,0.0,0.0,0.0,0.0,0.0,0.0,0.0,0.0,0.0,0.0,0.0,0.0,0.0,0.0,0.0,0.0,0.0,0.0,0.0,0.0,0.0,0.0,0.0,0.0,0.0,0.9259,0.9868,0.9968,0.984,0.8759,0.8193,0.8055,0.0,0.0,0.0,0.0,0.0,0.0,0.0,0.0,0.0,0.0,0.0,0.0,0.0,0.0,0.0,0.0,0.0,0.0,0.0,0.0,0.0,0.0,0.0,0.0,0.0,0.7611,0.7484,0.0,0.0,0.0,0.0,0.0,0.0,0.0,0.0,0.0,0.0,0.0,0.0,0.8052,0.9285,1.0094,1.0183,1.0432,1.0522,1.0347,1.0114,0.9673,0.8962,0.8146,0.699,0.0,0.0,0.0,0.0,0.0,0.0,0.0,0.0,0.0,0.0,0.0,0.0,0.0,0.0,0.0,0.0,0.0,0.0,0.0,0.0,0.0,0.0,0.0,0.0,0.0,0.0,0.0,0.0,0.0,0.0,0.0,0.0,0.6812,0.6719,0.0,0.0,0.0,0.0,0.0,0.0,0.0,0.0,0.0,0.0,0.0,0.0,0.0,0.0,0.8802,0.9221,0.9532,0.9743,0.9847,0.9991,1.0381,1.0108,1.0353,1.0558,1.0226,0.0,0.8549,0.8559,0.0,0.0,0.0,0.0,0.0,0.0,0.0,0.0,0.0,0.0,0.0,0.0,0.0,0.0,0.0,0.0,0.0,0.0,0.0,0.0,0.0,0.0,0.8305,0.8497,0.873,0.8836,0.0,0.7893,0.7215,0.6766,0.0,0.0,0.0,0.0,0.0,0.0,0.0,0.0,0.806,0.9236,1.0004,1.0089,1.0343,1.0432,1.0249,1.013,0.9791,0.9146,0.8628,0.7478,0.5664,0.3865,0.0,0.0,0.0,0.0,0.0,0.0,0.0,0.0,0.0,0.0,0.0,0.0,0.0,0.0,0.0,0.0,0.0,0.0,0.0,0.0,0.0,0.0,0.0,0.0,0.0,0.0,0.0,0.0,0.0,0.6877,0.73,0.7148,0.7189,0.7011,0.0,0.0,0.0,0.0,0.0,0.0,0.0,0.0,0.0,0.8159,0.9082,0.9446,0.9525,1.0097,1.0414,1.047,1.0704,1.1028,1.124,1.1556,1.1602,1.1821,1.1694,1.1281,1.0293,0.9491,0.8667,0.7493,0.0,0.0,0.0,0.0,0.0,0.0,0.7656,0.0,0.0,0.0,0.0,0.0,0.0,0.0,0.0,0.0,0.0,0.0,0.0,0.0,0.0,0.9069,0.9203,0.9285,0.9256,0.886,0.8334,0.0,0.7284,0.6782,0.6051,0.0,0.0,0.0,0.0,0.0,0.8219,0.9285,0.9963,1.0004,1.0253,1.0338,1.0155,1.0102,0.9898,0.9473,0.9118,0.8071,0.5921,0.3606,0.1638,0.0,0.0,0.0,0.0,0.0,0.0,0.0,0.0,0.0,0.0,0.0,0.0,0.0,0.0,0.0,0.0,0.0,0.0,0.0,0.0,0.0,0.0,0.0,0.0,0.0,0.0,0.0,0.0,0.7536,0.7806,0.7747,0.7767,0.7442,0.0,0.0,0.0,0.0,0.0,0.0,0.8612,0.8926,0.904,0.9095,1.0161,1.0263,0.9881,1.0785,1.1061,1.069,1.1303,1.1607,1.1607,1.2136,1.2401,1.2401,1.2429,1.2033,1.1238,1.0515,0.942,0.8522,0.7938,0.7803,0.0,0.7868,0.8097,0.8485,0.8807,0.8811,0.8632,0.8342,0.0,0.7309,0.6811,0.0,0.0,0.0,0.0,0.7676,0.8285,0.0,0.9354,0.951,0.9563,0.9587,0.9608,0.951,0.9212,0.0,0.8101,0.7627,0.686,0.0,0.0,0.0,0.0,0.7521,0.8424,0.9342,0.9914,0.9918,1.0118,1.0196,0.9848,0.9816,0.97,0.926,0.9025,0.8079,0.5975,0.3437,0.1054,-0.1091,0.0,0.0,0.0,0.0,0.0,0.0,0.0,0.0,0.0,0.0,0.0,0.0,0.0,0.0,0.0,0.0,0.0,0.0,0.0,0.0,0.0,0.0,0.0,0.0,0.0,0.0,0.0,0.0,0.0,0.8669,0.8351,0.0,0.0,0.0,0.0,0.8333,0.8594,0.8657,0.903,0.8961,0.9134,0.9591,0.9877,1.0163,1.0445,1.073,1.0869,1.0877,1.0971,1.1016,1.1016,1.1024,1.1024,1.1024,1.1122,1.1224,1.0945,1.106,1.0432,0.9559,0.9097,0.8979,0.906,0.9056,0.9232,0.953,0.9975,0.9902,0.9595,0.9489,0.8693,0.775,0.7631,0.7346,0.0,0.0,0.7999,0.8407,0.8954,0.9436,0.9808,0.9902,0.9987,1.0,0.9836,0.9795,0.9599,0.0,0.8619,0.8228,0.7582,0.0,0.0,0.7158,0.7525,0.7991,0.8636,0.9367,0.9824,0.9824,0.9914,0.976,0.9128,0.9053,0.8734,0.7977,0.782,0.7184,0.5926,0.2913,0.0161,-0.2368,-0.3457,0.0,0.0,0.0,0.0,0.0,0.0,0.0,0.0,0.0,0.0,0.0,0.0,0.0,0.0,0.0,0.0,0.0,0.0,0.0,0.0,0.0,0.0,0.0,0.0,0.0,0.0,0.0,0.0,0.8948,0.9022,0.0,0.0,0.8462,0.8725,0.9149,0.9906,1.0551,1.0826,1.0983,1.1077,1.0882,1.1108,1.1269,1.0922,1.1069,1.1143,1.1143,1.1184,1.1192,1.1192,1.1192,1.1192,1.1192,1.1225,1.1151,1.1004,1.1074,1.0703,0.9991,0.9657,0.9583,0.9657,0.9599,0.9746,1.0008,1.0228,1.022,1.0061,0.9738,0.9154,0.857,0.8538,0.8317,0.8162,0.8554,0.8799,0.9028,0.9395,0.9734,0.9996,1.0028,1.0057,1.0032,0.9853,0.9722,0.9538,0.9199,0.9101,0.8909,0.8391,0.8003,0.7823,0.8011,0.8199,0.8485,0.8938,0.9477,0.9795,0.9734,0.9812,0.9656,0.9038,0.876,0.8308,0.7699,0.7123,0.6545,0.5608,0.2344,-0.0342,-0.2368,-0.3774,-0.4177,0.0,0.0,0.0,0.0,0.0,0.0,0.0,0.0,0.0,0.0,0.0,0.0,0.0,0.0,0.0,0.0,0.0,0.0,0.0,0.0,0.0,0.0,0.0,0.0,0.0,0.0,0.9572,0.9379,0.946,0.9394,0.8934,0.9023,0.9317,0.9726,1.0626,1.1204,1.1366,1.1627,1.1586,1.124,1.1401,1.1508,1.1118,1.1237,1.129,1.129,1.129,1.129,1.129,1.129,1.129,1.129,1.129,1.1237,1.1151,1.1069,1.0796,1.042,1.0216,1.0171,1.0216,1.0155,1.0245,1.0404,1.0465,1.049,1.0428,1.0069,0.971,0.9412,0.9379,0.9203,0.9065,0.9305,0.9416,0.951,0.9718,0.9926,1.0085,1.0118,1.0126,1.0069,0.9861,0.9648,0.9452,0.931,0.9326,0.9248,0.8889,0.8681,0.8583,0.8465,0.8367,0.8524,0.8622,0.8952,0.9139,0.9082,0.9128,0.8956,0.8546,0.7871,0.743,0.6829,0.608,0.555,0.5052,0.1818,-0.1044,-0.3421,-0.4137,-0.4196,-0.3616,0.0,0.0,0.0,0.0,0.0,0.0,0.0,0.0,0.0,0.0,0.0,0.0,0.0,0.0,0.0,0.0,0.0,0.0,0.0,0.0,0.0,0.0,0.0,0.8253,0.8897,0.9525,0.972,0.9682,0.9669,0.9579,0.9493,0.9624,1.0065,1.0269,1.0408,1.049,1.049,1.053,1.0604,1.0698,1.0837,1.1016,1.1192,1.129,1.129,1.129,1.129,1.129,1.129,1.129,1.129,1.129,1.1245,1.1163,1.1069,1.0971,1.089,1.0796,1.0751,1.0751,1.0751,1.0751,1.0751,1.0751,1.0751,1.0722,1.0543,1.0367,1.0204,1.011,0.9955,0.9812,0.9812,0.9808,0.982,0.9918,1.0008,1.0094,1.0192,1.0212,1.0143,0.9873,0.9599,0.9379,0.9293,0.9277,0.922,0.9048,0.9024,0.884,0.8282,0.8345,0.0,0.7834,0.798,0.8065,0.8065,0.8065,0.7867,0.7264,0.6603,0.6119,0.5425,0.4936,0.4629,0.4491,0.1229,-0.2042,-0.5372,-0.4501,-0.3875,-0.3343,0.0,0.0,0.0,0.0,0.0,0.0,0.0,0.0,0.0,0.0,0.0,0.0,0.0,0.0,0.0,0.0,0.0,0.0,0.0,0.0,0.0,0.0,0.7548,0.8199,0.9304,1.0063,0.9986,1.0085,1.0257,1.0232,1.0261,1.0334,1.0457,1.0698,1.0763,1.0596,1.0522,1.0502,1.0522,1.0551,1.0677,1.0922,1.1163,1.129,1.129,1.129,1.129,1.129,1.129,1.129,1.129,1.129,1.1278,1.1245,1.109,1.1016,1.0971,1.0816,1.0751,1.0751,1.0751,1.0751,1.0751,1.0751,1.071,1.0637,1.0522,1.0412,1.0285,1.0126,0.991,0.9718,0.9718,0.9579,0.9477,0.9697,0.982,0.9926,1.0081,1.0167,1.0126,0.9791,0.9555,0.9168,0.8825,0.8603,0.8817,0.9281,0.9408,0.93,0.8708,0.0,0.0,0.7405,0.7239,0.6858,0.6858,0.6858,0.6657,0.6256,0.5571,0.49,0.0,0.3747,0.3456,0.3377,0.0525,-0.2364,-0.5079,-0.4624,-0.4207,0.0,0.0,0.0,0.0,0.0,0.0,0.0,0.0,0.0,0.0,0.0,0.0,0.0,0.0,0.0,0.0,0.0,0.0,0.0,0.0,0.0,0.0,0.7468,0.8215,0.8746,0.9561,1.0065,1.0106,1.0375,1.0551,1.0596,1.0604,1.0677,1.0837,1.0951,1.0918,1.069,1.0551,1.0473,1.0432,1.0469,1.0616,1.089,1.1151,1.129,1.129,1.129,1.129,1.129,1.129,1.129,0.0,1.129,1.1265,1.1225,1.109,1.1004,0.0,0.0,0.0,0.0,0.0,1.0751,1.0751,1.0751,1.069,1.0604,1.0522,1.0428,1.0314,1.0094,0.9812,0.955,0.9477,0.9236,0.906,0.933,0.9522,0.9702,0.9918,1.0065,1.0073,0.9751,0.9477,0.9072,0.8398,0.0,0.0,0.8394,0.8765,0.8873,0.8273,0.7867,0.7261,0.0,0.6055,0.5853,0.5853,0.5853,0.5642,0.542,0.4751,0.0,0.0,0.0,0.2524,0.1757,-0.1389,0.0,0.0,0.0,0.0,0.0,0.0,0.0,0.0,-0.3662,-0.3853,0.0,0.0,0.0,0.0,0.0,0.0,0.0,0.0,0.0,0.0,0.0,0.0,0.0,0.0,0.0,0.0,0.8248,0.8983,0.9608,0.9951,1.0171,1.0253,1.049,1.0677,1.0763,1.0698,1.0796,1.1118,1.1078,1.0951,1.0763,0.0,0.0,0.0,0.0,1.0624,1.089,1.1151,1.129,1.129,1.129,1.129,1.129,1.129,1.129,1.129,1.1278,1.1237,1.1151,1.1057,1.0951,1.0869,1.0784,1.0751,1.0751,1.0751,1.0751,0.0,0.0,0.0,0.0,1.053,1.0441,1.0318,0.984,0.9504,0.9176,0.9004,0.87,0.8493,0.8764,0.902,0.928,0.956,0.976,0.9816,0.9564,0.9248,0.8817,0.8229,0.7595,0.723,0.6842,0.7377,0.7663,0.7264,0.6657,0.0,0.5652,0.5053,0.4653,0.4653,0.0,0.0,0.4593,0.4156,0.3692,0.3767,0.2945,0.1795,-0.0174,-0.3626,-0.5087,-0.4438,-0.4826,-0.4957,-0.4684,-0.4747,-0.4752,-0.4698,-0.4425,-0.448,0.0,0.0,0.0,0.0,0.0,0.0,0.0,0.0,0.0,0.0,0.0,0.0,0.0,0.0,0.0,0.7848,0.8517,0.915,0.971,1.0208,1.0522,1.053,1.071,1.0845,1.0857,1.091,1.0971,1.1045,1.1098,1.1024,1.0763,1.0649,0.0,1.0465,1.0543,1.069,1.089,1.1151,1.129,1.129,0.0,0.0,1.129,1.129,1.129,1.129,1.1216,1.1171,1.1151,1.0984,1.0857,1.0775,1.0763,1.0751,1.0751,1.0751,1.0751,1.0751,1.0751,1.0743,1.071,0.9959,0.9878,0.954,0.8875,0.8336,0.0,0.7855,0.7774,0.7602,0.7712,0.7914,0.8116,0.8614,0.8807,0.8664,0.8493,0.8308,0.7963,0.7508,0.6854,0.6254,0.594,0.6409,0.6657,0.6055,0.5448,0.4843,0.4442,0.3862,0.3676,0.3676,0.3495,0.3486,0.3428,0.3417,0.335,0.3204,0.1452,-0.0177,-0.1232,-0.3341,-0.4205,-0.3653,-0.485,-0.548,-0.5368,-0.5431,-0.548,-0.5504,-0.5022,-0.4913,0.0,0.0,0.0,0.0,0.0,0.0,0.0,0.0,0.0,0.0,0.0,0.6386,0.6839,0.0,0.777,0.8309,0.8893,0.9432,0.9885,1.0371,1.0669,1.0624,1.0771,1.091,1.0951,1.0992,1.1057,1.1151,1.1163,1.1078,1.0898,1.0804,1.073,1.069,1.073,1.0837,1.1024,1.1204,1.129,1.129,1.129,1.129,1.129,1.129,1.129,1.129,1.1196,1.1143,1.1078,1.0898,1.0796,1.0751,1.0751,1.0751,1.0751,1.0751,1.0751,1.0751,1.0751,1.0722,1.0677,0.9966,0.943,0.9079,0.8249,0.7556,0.6889,0.6755,0.6553,0.6422,0.6618,0.6791,0.6967,0.7365,0.7518,0.7601,0.753,0.7408,0.7098,0.6463,0.6009,0.5381,0.4806,0.4829,0.4843,0.5248,0.4845,0.424,0.4038,0.3648,0.3258,0.3273,0.329,0.3285,0.3255,0.3212,0.2552,0.1138,-0.0185,-0.1455,-0.2894,-0.4342,-0.4512,-0.323,-0.4845,-0.5714,-0.5651,-0.6068,-0.6114,-0.614,-0.6231,-0.5986,0.0,0.0,0.0,0.0,0.0,0.0,0.0,0.0,0.5814,0.6333,0.6786,0.7211,0.7611,0.795,0.8309,0.8742,0.9224,0.9673,1.0053,1.0477,1.0722,1.0624,1.0796,1.0943,1.1016,1.1057,1.1131,1.1278,1.1225,1.1151,1.1078,1.1024,1.0984,1.0963,1.0984,1.1057,1.1184,1.1257,1.129,1.129,1.129,1.129,1.129,1.129,1.129,1.1278,1.1184,1.1078,1.0963,1.0816,1.0751,1.0751,1.0751,1.0751,1.0751,1.0751,1.0751,1.0751,1.0751,1.0702,1.0424,0.9753,0.9214,0.8425,0.7432,0.66,0.5797,0.5688,0.5547,0.5265,0.5562,0.5695,0.5831,0.6142,0.6249,0.6323,0.6323,0.6241,0.617,0.5556,0.5098,0.4453,0.4048,0.3639,0.3433,0.4444,0.4038,0.3836,0.3836,0.3439,0.3249,0.3273,0.3285,0.3294,0.3294,0.3212,0.1962,-0.0965,-0.1908,-0.3022,-0.4308,-0.5057,-0.4664,-0.3145,-0.4995,-0.5897,-0.5845,-0.6433,-0.6635,-0.6819,-0.7415,-0.7052,0.4944,0.4968,0.5598,0.597,0.6313,0.6582,0.0,0.0,0.6819,0.728,0.7668,0.7991,0.8203,0.8411,0.8668,0.9036,0.935,0.9697,1.0138,1.0522,1.0722,1.0624,1.0845,1.1016,1.1024,1.1163,1.1265,1.129,1.1278,1.1265,1.1257,1.1331,1.1331,1.1245,1.1318,1.1339,1.1278,1.129,1.129,1.129,1.129,1.129,1.129,1.129,1.129,1.1278,1.111,1.0943,1.0784,1.0763,1.0751,1.0751,1.0751,1.0751,1.0751,1.0751,1.0751,1.0751,1.0751,1.0743,1.0516,0.94,0.8674,0.7916,0.6705,0.5701,0.4937,0.4849,0.4755,0.4702,0.4794,0.4855,0.4919,0.5219,0.5281,0.5319,0.5319,0.5279,0.5241,0.5031,0.455,0.4089,0.4089,0.3655,0.323,0.3433,0.3231,0.323,0.323,0.3254,0.3272,0.3276,0.3324,0.3356,0.3356,0.3275,0.1811,-0.1204,-0.4147,-0.5275,-0.4091,-0.3704,-0.3702,-0.389,-0.5451,-0.6232,-0.6218,-0.6752,-0.7109,-0.7681,-0.8003,-0.7896,0.5435,0.5818,0.0,0.0,0.7385,0.7935,0.7923,0.7795,0.7893,0.8236,0.8554,0.8779,0.8799,0.8913,0.9065,0.0,0.9526,0.9824,1.0167,1.0522,1.0677,1.0485,1.0469,1.0551,1.0763,1.0898,1.1024,1.1131,1.1225,1.129,1.129,1.1318,1.1331,1.129,1.1331,1.1331,1.129,1.129,1.129,1.129,1.129,1.129,1.129,1.129,1.1257,1.1216,1.1143,1.1004,1.0837,1.0837,1.0804,1.0751,1.0301,1.0312,1.0312,1.0751,1.0751,1.0751,1.0751,1.0751,1.0528,0.9418,0.8243,0.7292,0.5926,0.4967,0.4031,0.4002,0.3956,0.3924,0.3955,0.3972,0.399,0.4021,0.4039,0.405,0.405,0.4023,0.3997,0.3997,0.3731,0.3685,0.3685,0.3453,0.3236,0.3254,0.3242,0.3236,0.3254,0.3253,0.3255,0.3273,0.3298,0.3314,0.3314,0.3265,0.1814,-0.1202,-0.4575,-0.6127,-0.5301,-0.5102,-0.5102,-0.5298,-0.6281,-0.6673,-0.667,-0.7619,-0.8164,-0.8695,-0.9285,-0.9415,0.5835,0.0,0.0,0.739,0.8276,0.8735,0.8723,0.8599,0.8673,0.8869,0.9065,0.9187,0.9118,0.9163,0.9256,0.942,0.9673,0.9947,1.0216,1.0543,1.0657,1.0383,1.0147,1.011,1.0371,1.0543,1.073,1.0931,1.1163,1.129,1.129,1.129,1.129,1.129,1.1265,1.1265,1.129,1.1265,1.1265,1.129,1.129,1.129,1.129,1.129,1.1245,1.1163,1.1163,1.1057,1.089,1.089,1.0837,1.0751,1.0085,0.9858,0.9634,0.9862,1.0085,1.0312,1.0312,1.0312,1.0085,0.9191,0.7813,0.6665,0.5541,0.4393,0.3479,0.3472,0.3453,0.3435,0.3426,0.3425,0.3422,0.3414,0.3412,0.3412,0.3412,0.3395,0.338,0.338,0.3337,0.33,0.33,0.3275,0.3265,0.3296,0.3275,0.326,0.3273,0.3249,0.3242,0.3272,0.3276,0.3279,0.3287,0.3262,0.1819,-0.1404,-0.4604,-0.6382,-0.6338,-0.6333,-0.6333,-0.6335,-0.6922,-0.7314,-0.7314,-0.8475,-0.9216,-0.9734,-1.0361,-1.093,0.0,0.0,0.7235,0.7782,0.8321,0.8742,0.8836,0.8926,0.8995,0.8999,0.9011,0.9016,0.9011,0.9016,0.913,0.9481,0.9771,1.004,1.031,1.0583,1.0657,1.0383,1.004,0.9828,0.0,1.0159,1.0473,1.0743,1.109,1.129,1.129,1.129,1.129,1.129,1.1204,1.1204,1.129,1.1204,1.1204,1.129,1.129,1.129,1.129,1.129,1.1245,1.1163,1.1163,1.1057,1.089,1.089,1.0837,1.0751,1.0085,0.9634,0.8967,0.8293,0.8517,0.8967,0.8967,0.8967,0.8967,0.83,0.7398,0.6269,0.5552,0.4427,0.3538,0.3509,0.3499,0.3493,0.3464,0.3456,0.3449,0.3419,0.3412,0.3412,0.3412,0.3411,0.3411,0.3411,0.3385,0.3363,0.3363,0.3339,0.3329,0.3359,0.3337,0.3309,0.328,0.3249,0.3242,0.3272,0.3276,0.3287,0.3317,0.3294,0.1842,-0.143,-0.4665,-0.6463,-0.6455,-0.6455,-0.6455,-0.6455,-0.7059,-0.7459,-0.8058,-0.8982,-0.9934,-1.1111,-1.1598,-1.1942,0.6435,0.0,0.7778,0.826,0.8828,0.9281,0.931,0.9436,0.9477,0.9236,0.9093,0.9007,0.9007,0.9105,0.9305,0.9665,1.0053,1.0359,1.0506,1.0657,1.0628,1.0302,0.9947,0.0,0.0,0.0,0.0,1.0367,1.073,1.0984,1.111,1.1225,1.129,1.129,1.1204,1.1204,1.129,1.1204,1.1204,1.129,1.129,1.129,1.129,1.0817,1.0802,1.0548,1.0311,0.9982,0.9832,0.9832,0.9755,0.9634,0.8967,0.8293,0.7625,0.7175,0.6724,0.6724,0.7625,0.7849,0.7625,0.7175,0.6281,0.5607,0.492,0.4227,0.354,0.3534,0.3516,0.3499,0.349,0.3472,0.3454,0.3444,0.3426,0.3412,0.3412,0.3412,0.3412,0.3412,0.3388,0.3366,0.3366,0.3341,0.3325,0.3335,0.3344,0.3333,0.3283,0.3266,0.3257,0.3246,0.3246,0.325,0.326,0.3254,0.2029,-0.0811,-0.3033,-0.4845,-0.5853,-0.6662,-0.7062,-0.7062,-0.7871,-0.8676,-0.9074,-0.9849,-1.0595,-1.1718,-1.1951,-1.2326,0.7003,0.768,0.8321,0.8742,0.9224,0.9591,0.9591,0.9681,0.9636,0.9179,0.8864,0.8668,0.8668,0.8766,0.9007,0.9497,1.0008,1.0383,1.0506,1.0624,1.0596,1.0302,0.9975,0.9681,0.0,0.0,0.0,0.9947,1.0338,1.0657,1.0869,1.1078,1.1192,1.1192,1.111,1.111,1.1192,1.111,1.111,1.1192,1.1225,1.1245,1.1245,1.0567,1.0352,1.0114,0.9413,0.8857,0.8495,0.8495,0.8413,0.8293,0.7625,0.7175,0.65,0.5831,0.5383,0.4933,0.6057,0.65,0.65,0.6057,0.5607,0.4933,0.4712,0.4023,0.3562,0.3562,0.3549,0.3531,0.352,0.3502,0.3483,0.3463,0.3442,0.3425,0.3414,0.3412,0.3412,0.3412,0.3396,0.3382,0.3382,0.3366,0.3354,0.3354,0.337,0.3356,0.3284,0.3276,0.3268,0.3249,0.3246,0.3251,0.3261,0.3254,0.2233,-0.0,-0.182,-0.3431,-0.5045,-0.6659,-0.7468,-0.7666,-0.8676,-0.948,-1.0284,-1.0881,-1.1449,-1.2175,-1.2253,-1.2447,0.7807,0.8375,0.8873,0.922,0.9506,0.9697,0.9685,0.9681,0.9497,0.8848,0.8346,0.8019,0.0,0.0,0.8268,0.8999,0.9657,1.0143,1.0322,1.0502,1.0551,0.0,0.0,0.0,0.0,0.0,0.0,0.953,0.0,1.0322,1.0604,1.0877,1.1024,1.1024,1.0943,1.0931,1.1024,1.0943,1.0943,1.1024,1.1118,1.1163,1.1163,1.0548,0.9879,0.9179,0.8703,0.7929,0.7349,0.7349,0.7278,0.6951,0.6505,0.5831,0.5383,0.4712,0.4039,0.3814,0.4933,0.5383,0.5383,0.5383,0.4933,0.4488,0.4488,0.4039,0.3589,0.3589,0.3589,0.3583,0.3555,0.3544,0.3531,0.3475,0.346,0.3449,0.342,0.3412,0.3412,0.3412,0.3412,0.3412,0.3412,0.3412,0.3412,0.3412,0.3412,0.338,0.3292,0.328,0.328,0.3279,0.3279,0.329,0.3318,0.3295,0.2458,0.1024,-0.0609,-0.2222,-0.3838,-0.6267,-0.7682,-0.8273,-0.9283,-1.0288,-1.1282,-1.1884,-1.2289,-1.289,-1.289,-1.289,0.8395,0.9024,0.9563,0.9657,0.9832,0.9926,0.9726,0.9681,0.9444,0.8607,0.7921,0.7468,0.0,0.0,0.0,0.8615,0.9493,0.0,1.0236,1.0461,0.0,1.0375,0.0,1.0049,0.9804,0.9514,0.0,0.0,0.9877,1.0196,1.0596,1.0877,1.1024,1.1024,1.0943,1.0931,1.1024,1.1004,1.1004,1.1024,1.0653,1.046,1.046,0.9379,0.8712,0.7996,0.7254,0.6728,0.5973,0.5935,0.5884,0.5831,0.5607,0.5159,0.4712,0.4488,0.4039,0.3589,0.4039,0.4039,0.4039,0.4039,0.4039,0.3815,0.3815,0.3814,0.3589,0.3589,0.3589,0.3587,0.358,0.3562,0.354,0.3527,0.3489,0.3454,0.3448,0.3427,0.3412,0.3412,0.3412,0.3412,0.3412,0.3412,0.3412,0.3412,0.3412,0.3395,0.335,0.3343,0.3335,0.3311,0.331,0.3313,0.3321,0.3314,0.2688,0.1654,0.0413,-0.1442,-0.3912,-0.6386,-0.8212,-0.9369,-0.9982,-1.0959,-1.1889,-1.2084,-1.2289,-1.289,-1.289,-1.289,0.8918,0.9444,0.9877,0.9877,0.9922,0.9893,0.9624,0.9408,0.902,0.8158,0.7374,0.0,0.0,0.0,0.0,0.0,0.0,0.0,1.0028,1.0236,1.0343,0.0,1.0187,0.0,0.9893,0.9738,0.9722,0.0,0.9902,1.0069,1.0477,1.0763,1.091,1.091,1.0857,1.0857,1.091,1.091,1.091,1.091,1.0311,0.9891,0.9658,0.8583,0.7455,0.652,0.0,0.5298,0.4572,0.4777,0.4744,0.4709,0.4709,0.4488,0.4039,0.4039,0.3815,0.3589,0.3589,0.3589,0.3589,0.3589,0.3589,0.3589,0.3589,0.3589,0.3589,0.3589,0.3589,0.3589,0.3589,0.3576,0.3562,0.3549,0.352,0.3489,0.3463,0.3444,0.3427,0.3414,0.3412,0.3412,0.3412,0.3412,0.3412,0.3412,0.3412,0.3405,0.3388,0.3375,0.336,0.3343,0.3341,0.3347,0.3359,0.3348,0.3131,0.2505,0.1248,-0.0829,-0.373,-0.6608,-0.884,-1.0418,-1.0987,-1.1747,-1.2489,-1.2489,-1.269,-1.289,-1.289,-1.289,0.9391,0.973,0.9983,0.9971,0.9902,0.9746,0.9412,0.8979,0.8407,0.7574,0.0,0.6251,0.6447,0.6647,0.708,0.7995,0.0,0.9661,0.9751,0.9906,1.0008,1.0008,1.002,1.0012,0.9971,1.0004,1.0094,1.0257,1.0053,1.0057,1.0371,1.0616,1.0751,1.0751,1.0751,1.0751,1.0751,1.0528,1.0528,1.0528,0.9948,0.9529,0.8853,0.7787,0.6663,0.5518,0.0,0.0,0.3636,0.3632,0.3614,0.3589,0.3589,0.3589,0.3589,0.3589,0.3589,0.3589,0.3589,0.3589,0.3589,0.3589,0.3589,0.3589,0.3589,0.3589,0.3589,0.3589,0.3589,0.3589,0.3589,0.3589,0.3583,0.3558,0.3549,0.3531,0.348,0.3463,0.3448,0.3418,0.3412,0.3412,0.3412,0.3412,0.3412,0.3412,0.3412,0.3412,0.3412,0.3389,0.3373,0.3373,0.3373,0.3384,0.341,0.3388,0.3373,0.3162,0.1464,-0.0832,-0.353,-0.7223,-0.9861,-1.1677,-1.1999,-1.2346,-1.2933,-1.2933,-1.2933,-1.2933,-1.2933,-1.2928,0.982,1.0012,1.0151,1.0077,0.9991,0.9759,0.9114,0.8558,0.0,0.0,0.6108,0.5622,0.5876,0.619,0.6729,0.7709,0.8701,0.9379,0.9465,0.0,0.9636,0.0,0.0,0.0,0.0,0.0,0.0,0.0,0.0,0.0,1.0563,1.069,1.0751,1.0751,1.0312,1.0085,1.0085,0.9634,0.9418,0.9418,0.882,0.8171,0.7494,0.687,0.5979,0.4827,0.0,0.0,0.3632,0.3607,0.3594,0.3589,0.3589,0.3589,0.3589,0.3589,0.3589,0.3589,0.3589,0.3589,0.3589,0.3589,0.3589,0.3589,0.3589,0.3589,0.3589,0.3589,0.3589,0.3589,0.3589,0.3589,0.3589,0.3583,0.3562,0.354,0.3531,0.3491,0.3448,0.3418,0.3412,0.3412,0.3412,0.3412,0.3412,0.3412,0.3412,0.3412,0.3412,0.3407,0.3404,0.3404,0.3404,0.3407,0.3411,0.3407,0.2977,0.2127,-0.0849,-0.3602,-0.5501,-0.8882,-1.1377,-1.232,-1.2507,-1.2657,-1.3178,-1.3178,-1.3178,-1.3178,-1.3178,-1.3129,0.9996,1.0114,1.0171,0.9987,0.9771,0.9412,0.8509,0.0,0.0,0.0,0.5397,0.4966,0.5111,0.5433,0.0,0.6781,0.787,0.872,0.8665,0.8988,0.0,0.9395,0.0,0.0,0.0,0.0,0.0,0.0,0.0,0.0,1.069,1.073,1.0751,1.0751,1.0308,0.9858,0.9418,0.8744,0.8293,0.8076,0.7429,0.699,0.6317,0.5667,0.4995,0.4085,0.0,0.0,0.3611,0.3596,0.3589,0.3589,0.3589,0.3589,0.3589,0.3589,0.3589,0.3589,0.3589,0.3589,0.3589,0.3589,0.3589,0.3589,0.3589,0.3589,0.3589,0.3589,0.3589,0.3589,0.3589,0.3589,0.3589,0.3589,0.3565,0.3544,0.3544,0.3509,0.3476,0.3461,0.3446,0.3435,0.3435,0.3422,0.3412,0.3412,0.3412,0.3412,0.3412,0.3412,0.3412,0.3412,0.3412,0.3412,0.3412,0.2772,0.1918,0.0426,-0.2341,-0.5107,-0.7647,-0.9948,-1.1801,-1.3006,-1.2942,-1.3091,-1.3238,-1.3238,-1.3238,-1.3238,-1.3238,-1.3178,1.0085,1.0163,1.0143,0.9836,0.9473,0.8983,0.7843,0.685,0.0,0.0,0.4543,0.4307,0.4337,0.4729,0.5291,0.0,0.7005,0.7803,0.8029,0.8553,0.8918,0.0,0.9338,0.0,0.0,0.0,0.0,0.0,0.0,0.0,0.0,1.0528,1.0301,1.0301,0.9858,0.9195,0.8517,0.8067,0.7398,0.6724,0.6281,0.5831,0.5157,0.4712,0.4264,0.3589,0.0,0.0,0.0,0.3589,0.3589,0.3589,0.3589,0.3589,0.3589,0.3589,0.3589,0.3589,0.3589,0.3589,0.3589,0.3589,0.3589,0.3589,0.3589,0.3589,0.3589,0.3589,0.3589,0.3589,0.3589,0.3589,0.3589,0.3589,0.3572,0.3551,0.3544,0.3527,0.3509,0.3502,0.3483,0.3465,0.3459,0.3437,0.3419,0.3412,0.3412,0.3412,0.3412,0.3412,0.3412,0.3412,0.3412,0.3412,0.3412,0.2558,0.1278,-0.0638,-0.4044,-0.7022,-0.9133,-1.0551,-1.1778,-1.3461,-1.3368,-1.3319,-1.3319,-1.3319,-1.3319,-1.3319,-1.3319,-1.3254,1.0179,1.0208,1.011,0.9677,0.9236,0.8636,0.7268,0.0,0.5093,0.4435,0.4002,0.3789,0.4016,0.4257,0.0,0.0,0.0,0.7005,0.7566,0.8041,0.8399,0.8742,0.0,0.0,0.0,0.0,0.0,0.0,0.0,0.0,0.0,0.9411,0.9191,0.9191,0.8517,0.8073,0.7398,0.6732,0.6057,0.5607,0.5607,0.5157,0.4488,0.4488,0.4264,0.3589,0.0,0.0,0.0,0.3589,0.3589,0.3589,0.3589,0.3589,0.3589,0.3589,0.3589,0.3589,0.3589,0.3589,0.3589,0.3589,0.3589,0.3589,0.3589,0.3589,0.3589,0.3589,0.3589,0.3589,0.3589,0.3589,0.3589,0.3589,0.3587,0.358,0.3551,0.354,0.3534,0.3506,0.3499,0.349,0.3463,0.3454,0.3444,0.3416,0.3412,0.3412,0.3412,0.3412,0.3412,0.3412,0.3412,0.3412,0.3412,0.3199,0.2131,-0.0639,-0.7462,-1.0666,-0.936,-1.1051,-1.2319,-1.3586,-1.3575,-1.3569,-1.3569,-1.3569,-1.3569,-1.3569,-1.3569,-1.3504,0.9518,0.988,1.0094,0.9587,0.8999,0.8121,0.6709,0.0,0.4435,0.3745,0.334,0.3264,0.3384,0.3543,0.3822,0.0,0.0,0.0,0.6196,0.7076,0.7678,0.8023,0.8477,0.0,0.0,0.0,0.0,0.0,0.0,0.0,0.0,0.8517,0.8293,0.7849,0.7398,0.6732,0.6057,0.5607,0.4938,0.4264,0.4264,0.4264,0.4039,0.4039,0.3815,0.3589,0.0,0.0,0.0,0.3589,0.3589,0.3589,0.3589,0.3589,0.3589,0.3589,0.3589,0.3589,0.3589,0.3589,0.3589,0.3589,0.3589,0.3589,0.3589,0.3589,0.3589,0.3589,0.3589,0.3589,0.3589,0.3589,0.3589,0.3589,0.3589,0.3587,0.3576,0.3572,0.3569,0.3558,0.354,0.3524,0.3513,0.348,0.3453,0.3441,0.3423,0.3412,0.3412,0.3412,0.3412,0.3412,0.3412,0.3412,0.3412,0.2772,0.1278,-0.149,-0.5324,-0.8518,-1.1064,-1.1271,-1.2118,-1.3602,-1.3602,-1.3602,-1.3602,-1.3602,-1.3602,-1.3602,-1.3602,-1.3537,0.9055,0.9553,1.0073,0.9477,0.8771,0.7809,0.6312,0.5011,0.3871,0.3221,0.2823,0.2703,0.2741,0.2815,0.2974,0.3296,0.3864,0.4475,0.514,0.6204,0.7005,0.7334,0.0,0.0,0.0,0.0,0.0,0.0,0.0,0.0,0.0,0.7384,0.7153,0.6724,0.6281,0.5831,0.5157,0.4712,0.4264,0.3589,0.3589,0.3589,0.3589,0.3589,0.3589,0.0,0.0,0.0,0.0,0.3589,0.3589,0.3589,0.3589,0.3589,0.3589,0.3589,0.3589,0.3589,0.3589,0.3589,0.3589,0.3589,0.3589,0.3589,0.3589,0.3589,0.3589,0.3589,0.3589,0.3589,0.3589,0.3589,0.3589,0.3589,0.3589,0.3589,0.3589,0.3589,0.3589,0.3589,0.3572,0.3555,0.3544,0.3509,0.3478,0.346,0.344,0.3422,0.3412,0.3412,0.3412,0.3412,0.3412,0.3412,0.3412,0.2558,0.1065,-0.149,-0.2767,-0.5532,-1.0208,-1.0632,-1.1478,-1.2968,-1.318,-1.318,-1.318,-1.318,-1.318,-1.318,-1.318,-1.3348,0.8818,0.9467,1.0045,0.9326,0.8538,0.7521,0.5994,0.4506,0.3369,0.2798,0.2401,0.2244,0.2244,0.2244,0.2323,0.2557,0.2932,0.3408,0.4504,0.556,0.6506,0.0,0.0,0.0,0.0,0.0,0.0,0.0,0.0,0.0,0.0,0.0,0.5336,0.5383,0.5383,0.5157,0.4488,0.4488,0.4264,0.3589,0.3589,0.3589,0.3589,0.3589,0.0,0.0,0.0,0.0,0.0,0.3589,0.3589,0.3589,0.3589,0.3589,0.3589,0.3589,0.3589,0.3589,0.3589,0.3589,0.3589,0.3589,0.3589,0.3589,0.3589,0.3589,0.3589,0.3589,0.3589,0.3589,0.3589,0.3589,0.3589,0.3589,0.3589,0.3589,0.3589,0.3589,0.3589,0.3589,0.3589,0.358,0.3549,0.3544,0.3524,0.3465,0.3457,0.3446,0.3415,0.3412,0.3412,0.3412,0.3412,0.3412,0.3412,0.3412,0.2345,0.0213,-0.1065,-0.298,-0.5744,-0.8083,-1.0208,-1.1911,-1.1911,-1.1911,-1.1911,-1.1911,-1.1911,-1.1911,-1.2545,-1.318,0.6832,0.7795,0.82,0.7666,0.7026,0.6341,0.5229,0.3948,0.2958,0.2736,0.2287,0.1973,0.2155,0.2063,0.2015,0.2333,0.2466,0.2779,0.0,0.0,0.0,0.6191,0.0,0.0,0.0,0.0,0.0,0.0,0.0,0.0,0.0,0.0,0.4875,0.4227,0.4004,0.4004,0.378,0.3804,0.3814,0.3589,0.3589,0.3589,0.3589,0.3589,0.0,0.0,0.0,0.0,0.0,0.3589,0.3589,0.3589,0.3589,0.3589,0.3589,0.3589,0.3589,0.3589,0.3589,0.3589,0.3589,0.3589,0.3589,0.3589,0.3589,0.3589,0.3589,0.3589,0.3589,0.3589,0.3589,0.3589,0.3589,0.3589,0.3589,0.3589,0.3589,0.3589,0.3589,0.3589,0.3589,0.3587,0.3576,0.3558,0.3538,0.352,0.3499,0.3484,0.3475,0.3474,0.3465,0.3445,0.3442,0.3434,0.3414,0.3412,0.3198,0.2345,0.1279,-0.0852,-0.4042,-0.5319,-0.8083,-1.2127,-1.0848,-1.1064,-1.2989,-1.1064,-1.0632,-1.1478,-1.2752,-1.3391,0.5379,0.6298,0.6877,0.6482,0.5975,0.5301,0.4432,0.3461,0.2596,0.2423,0.2003,0.1705,0.1884,0.1794,0.1724,0.197,0.1956,0.0,0.0,0.0,0.0,0.0,0.0,0.0,0.0,0.0,0.0,0.0,0.0,0.0,0.0,0.0,0.441,0.3527,0.3538,0.3544,0.3544,0.3576,0.3589,0.3589,0.3589,0.3589,0.3589,0.0,0.0,0.0,0.0,0.0,0.0,0.3589,0.3589,0.3589,0.3589,0.3589,0.3589,0.3589,0.3589,0.3589,0.3589,0.3589,0.3589,0.3589,0.3589,0.3589,0.3589,0.3589,0.3589,0.3589,0.3589,0.3589,0.3589,0.3589,0.3589,0.3589,0.3589,0.3589,0.3589,0.3589,0.3589,0.3589,0.3589,0.3589,0.3589,0.3572,0.3558,0.3544,0.3531,0.3513,0.3502,0.3502,0.3491,0.346,0.3457,0.3445,0.3414,0.2985,0.2985,0.3412,0.1919,0.0,-0.213,-0.3194,-0.5957,-1.0632,-0.936,-1.0004,-1.2782,-0.9576,-0.8932,-1.0416,-1.2118,-1.318,0.0,0.5087,0.5654,0.5383,0.4879,0.438,0.3714,0.2912,0.0,0.1943,0.1632,0.143,0.1431,0.1431,0.1444,0.1478,0.1513,0.0,0.0,0.0,0.0,0.0,0.0,0.0,0.0,0.0,0.0,0.0,0.0,0.0,0.0,0.0,0.0,0.3499,0.3524,0.3538,0.3538,0.3569,0.3583,0.3583,0.3583,0.3583,0.3583,0.0,0.0,0.0,0.0,0.0,0.0,0.3589,0.3589,0.3589,0.3589,0.3589,0.3589,0.3589,0.3589,0.3589,0.3589,0.3589,0.3589,0.3589,0.3589,0.3589,0.3589,0.3589,0.3589,0.3589,0.3589,0.3589,0.3589,0.3589,0.3589,0.3589,0.3589,0.3589,0.3589,0.3589,0.3589,0.3589,0.3589,0.3589,0.3589,0.3589,0.358,0.3551,0.3549,0.3538,0.3513,0.3509,0.3495,0.3467,0.3464,0.345,0.3418,0.2346,0.2132,0.3198,0.1066,-0.0,-0.0213,-0.1491,-0.4044,-0.7865,-0.7874,-0.8943,-1.0865,-0.7234,-0.6807,-0.9148,-1.1059,-1.2122,0.2102,0.0,0.3826,0.3648,0.3485,0.3193,0.0,0.2337,0.19,0.1772,0.0,0.1376,0.1396,0.14,0.1426,0.0,0.0,0.0,0.0,0.0,0.0,0.0,0.0,0.0,0.0,0.0,0.0,0.0,0.0,0.0,0.0,0.0,0.0,0.3468,0.3475,0.3478,0.3478,0.3509,0.3524,0.3524,0.3524,0.3524,0.3524,0.0,0.0,0.0,0.0,0.0,0.3558,0.358,0.3589,0.3589,0.3589,0.3589,0.3589,0.3589,0.3589,0.3589,0.3589,0.3589,0.3589,0.3589,0.3589,0.3589,0.3589,0.3589,0.3589,0.3589,0.3589,0.3589,0.3589,0.3589,0.3589,0.3589,0.3589,0.3589,0.3589,0.3589,0.3589,0.3589,0.3589,0.3589,0.3589,0.3589,0.3587,0.358,0.358,0.3576,0.3569,0.3569,0.3558,0.3527,0.3524,0.3502,0.345,0.2355,0.1492,0.0853,0.0213,-0.0426,-0.1279,-0.1705,-0.3832,-0.8296,-0.9155,-0.8734,-0.7033,-0.4896,-0.4469,-0.5744,-1.0208,-1.2122,0.1411,0.19,0.245,0.238,0.2331,0.2163,0.2039,0.1838,0.1581,0.0,0.0,0.0,0.0,0.0,0.0,0.0,0.0,0.0,0.0,0.0,0.0,0.0,0.0,0.0,0.0,0.0,0.0,0.0,0.0,0.0,0.0,0.0,0.0,0.0,0.3444,0.3444,0.3457,0.3487,0.3502,0.3502,0.3502,0.3502,0.3502,0.0,0.0,0.0,0.0,0.0,0.3544,0.3562,0.3576,0.3589,0.3589,0.3589,0.3589,0.3589,0.3589,0.3589,0.3589,0.3589,0.3589,0.3589,0.3589,0.3589,0.3589,0.3589,0.3589,0.3589,0.3589,0.3589,0.3589,0.3589,0.3589,0.3589,0.3589,0.3589,0.3589,0.3589,0.3589,0.3589,0.3589,0.3589,0.3589,0.3589,0.3589,0.3589,0.3589,0.3589,0.3589,0.3589,0.358,0.3549,0.3544,0.352,0.3463,0.2366,0.1284,0.0,0.0,-0.0426,-0.1705,-0.1705,-0.3195,-0.66,-0.8946,-0.8525,-0.5117,-0.2982,-0.2342,-0.362,-0.8292,-1.042,0.1376,0.1451,0.152,0.1525,0.1536,0.1532,0.1475,0.0,0.0,0.0,0.0,0.0,0.0,0.0,0.0,0.0,0.0,0.0,0.0,0.0,0.0,0.0,0.0,0.0,0.0,0.0,0.0,0.0,0.0,0.0,0.0,0.0,0.0,0.0,0.3433,0.3429,0.345,0.3476,0.3489,0.3489,0.3489,0.3489,0.3489,0.3489,0.0,0.0,0.0,0.0,0.3531,0.3538,0.3555,0.3576,0.3583,0.3583,0.3583,0.3589,0.3589,0.3589,0.3589,0.3589,0.3589,0.3589,0.3589,0.3589,0.3589,0.3589,0.3589,0.3589,0.3589,0.3589,0.3589,0.3589,0.3589,0.3589,0.3589,0.3589,0.3589,0.3589,0.3589,0.3589,0.3589,0.3589,0.3589,0.3589,0.3589,0.3589,0.3589,0.3589,0.3589,0.3589,0.358,0.3555,0.3551,0.3531,0.3476,0.2602,0.1512,0.0,0.0,-0.0426,-0.1492,-0.1705,-0.277,-0.4476,-0.8528,-0.8744,-0.4906,-0.1492,-0.0852,-0.2343,-0.6167,-0.8717,0.1346,0.1419,0.1494,0.152,0.1584,0.1632,0.1596,0.1585,0.0,0.0,0.0,0.0,0.0,0.0,0.0,0.0,0.0,0.0,0.0,0.0,0.0,0.0,0.0,0.0,0.0,0.0,0.0,0.0,0.0,0.0,0.0,0.0,0.0,0.0,0.0,0.344,0.3419,0.3423,0.3426,0.3426,0.3426,0.3426,0.3426,0.3426,0.3426,0.0,0.0,0.3467,0.3472,0.3499,0.3513,0.352,0.354,0.3551,0.3555,0.358,0.3589,0.3589,0.3589,0.3589,0.3589,0.3589,0.3589,0.3589,0.3589,0.3589,0.3589,0.3589,0.3589,0.3589,0.3589,0.3589,0.3589,0.3589,0.3589,0.3589,0.3589,0.3589,0.3589,0.3589,0.3589,0.3589,0.3589,0.3589,0.3589,0.3589,0.3589,0.3589,0.3589,0.3589,0.3587,0.3583,0.3583,0.3569,0.3538,0.3313,0.2413,0.0216,0.0,-0.0,-0.0213,-0.213,-0.3621,-0.4906,-1.0253,-1.09,-0.6405,-0.2132,-0.0639,-0.1918,-0.6384,-0.8508,0.134,0.1401,0.1475,0.1555,0.1667,0.1755,0.1741,0.175,0.0,0.0,0.0,0.0,0.0,0.0,0.0,0.0,0.0,0.0,0.0,0.0,0.0,0.0,0.0,0.0,0.0,0.0,0.0,0.0,0.0,0.0,0.0,0.0,0.0,0.0,0.0,0.0,0.3388,0.3403,0.3412,0.3412,0.3412,0.3412,0.3412,0.3412,0.3412,0.0,0.0,0.3442,0.3459,0.3472,0.3487,0.3502,0.3516,0.3531,0.3544,0.3558,0.3565,0.3565,0.3565,0.3576,0.3589,0.3589,0.3589,0.3589,0.3589,0.3589,0.3589,0.3589,0.3589,0.3589,0.3589,0.3589,0.3589,0.3589,0.3589,0.3589,0.3589,0.3589,0.3589,0.3589,0.3589,0.3589,0.3589,0.3589,0.3589,0.3589,0.3589,0.3589,0.3589,0.3589,0.3589,0.3589,0.3589,0.358,0.3551,0.3549,0.2642,0.0216,0.0,0.0,0.0,-0.1065,-0.213,-0.3198,-0.7683,-0.8329,-0.4906,-0.1705,-0.0639,-0.1705,-0.5107,-0.7231,0.134,0.1391,0.1463,0.1577,0.0,0.1846,0.1868,0.1918,0.0,0.0,0.0,0.0,0.0,0.0,0.0,0.0,0.0,0.0,0.0,0.0,0.0,0.0,0.0,0.0,0.0,0.0,0.0,0.0,0.0,0.0,0.0,0.0,0.0,0.0,0.0,0.0,0.3367,0.3396,0.3412,0.3412,0.3412,0.3412,0.3412,0.3412,0.3412,0.3412,0.3412,0.3425,0.3446,0.3446,0.346,0.3482,0.349,0.3509,0.3534,0.3534,0.3534,0.3534,0.354,0.3558,0.358,0.3587,0.3589,0.3589,0.3589,0.3589,0.3589,0.3589,0.3589,0.3589,0.3589,0.3589,0.3589,0.3589,0.3589,0.3589,0.3589,0.3589,0.3589,0.3589,0.3589,0.3589,0.3589,0.3589,0.3589,0.3589,0.3589,0.3589,0.3589,0.3589,0.3589,0.3589,0.3589,0.3583,0.3562,0.3102,0.1977,0.0217,0.0,0.0,0.0,0.0,-0.0426,-0.1279,-0.3839,-0.4267,-0.2558,-0.0853,-0.0426,-0.1279,-0.3618,-0.553,0.134,0.1391,0.1457,0.1551,0.1708,0.0,0.1948,0.2076,0.0,0.2097,0.0,0.0,0.0,0.0,0.0,0.0,0.0,0.0,0.0,0.0,0.0,0.0,0.0,0.0,0.0,0.0,0.0,0.0,0.0,0.0,0.0,0.0,0.0,0.0,0.0,0.0,0.3367,0.3396,0.3412,0.3412,0.3412,0.3412,0.3412,0.3412,0.3412,0.3412,0.3412,0.3414,0.3415,0.3415,0.3416,0.3422,0.3449,0.3479,0.3506,0.3506,0.3506,0.3509,0.3534,0.3544,0.3551,0.358,0.3589,0.3589,0.3589,0.3589,0.3589,0.3589,0.3589,0.3589,0.3589,0.3589,0.3589,0.3589,0.3589,0.3589,0.3589,0.3589,0.3589,0.3589,0.3589,0.3589,0.3589,0.3589,0.3589,0.3589,0.3589,0.3589,0.3589,0.3589,0.3589,0.3589,0.3594,0.3594,0.3589,0.1547,0.0219,0.0,0.0,0.0,0.0,0.0,-0.0,-0.0213,-0.0426,-0.0426,-0.0213,-0.0,-0.0,-0.0213,-0.2554,-0.4044,0.126,0.1377,0.1434,0.1543,0.1707,0.0,0.0,0.2218,0.2343,0.2358,0.0,0.0,0.0,0.0,0.0,0.0,0.0,0.0,0.0,0.0,0.0,0.0,0.0,0.0,0.0,0.0,0.0,0.0,0.0,0.0,0.0,0.0,0.0,0.0,0.0,0.0,0.0,0.334,0.3355,0.3356,0.3393,0.3412,0.3412,0.3412,0.3412,0.3412,0.3412,0.3412,0.3412,0.3412,0.3412,0.3415,0.3445,0.3453,0.3449,0.3467,0.3475,0.3476,0.3486,0.3502,0.352,0.3531,0.3549,0.3562,0.3562,0.3576,0.3589,0.3589,0.3589,0.3589,0.3589,0.3589,0.3589,0.3589,0.3589,0.3589,0.3589,0.3589,0.3589,0.3589,0.3589,0.3589,0.3589,0.3589,0.3589,0.3594,0.3594,0.3594,0.3594,0.3594,0.3594,0.3594,0.2245,0.1347,0.1347,0.0442,0.0,0.0,0.0,0.0,0.0,0.0,0.0,0.0,0.0,0.0,0.0,0.0,-0.0426,-0.1066,-0.1917,-0.362,0.1361,0.1376,0.1416,0.153,0.0,0.0,0.2394,0.2621,0.2799,0.305,0.0,0.0,0.0,0.0,0.0,0.0,0.0,0.0,0.0,0.0,0.0,0.0,0.0,0.0,0.0,0.0,0.0,0.0,0.0,0.0,0.0,0.0,0.0,0.0,0.0,0.0,0.0,0.3306,0.3321,0.3321,0.3363,0.3384,0.3384,0.3393,0.3397,0.3397,0.3408,0.3412,0.3412,0.3412,0.3412,0.3414,0.3435,0.343,0.3414,0.3435,0.3442,0.3444,0.3453,0.3471,0.349,0.3499,0.3516,0.3534,0.354,0.3558,0.3576,0.3587,0.3589,0.3589,0.3589,0.3589,0.3589,0.3589,0.3589,0.3589,0.3589,0.3589,0.3589,0.3589,0.3589,0.3589,0.3589,0.3365,0.3141,0.3143,0.3143,0.3143,0.3143,0.3369,0.3369,0.247,0.0898,0.0,0.0,0.0,0.0,0.0,0.0,0.0,0.0,0.0,0.0,0.0,0.0,0.0,0.0,0.0,-0.0853,-0.2345,-0.4478,-0.5967,0.1391,0.1391,0.1414,0.0,0.0,0.0,0.2857,0.3159,0.3403,0.4072,0.0,0.0,0.0,0.0,0.0,0.0,0.0,0.0,0.0,0.0,0.0,0.0,0.0,0.0,0.0,0.0,0.0,0.0,0.0,0.0,0.0,0.0,0.0,0.0,0.0,0.0,0.0,0.3305,0.3321,0.3321,0.3321,0.3321,0.3322,0.3352,0.3366,0.3369,0.3399,0.3412,0.3412,0.3412,0.3412,0.3412,0.3412,0.3412,0.3412,0.3412,0.3412,0.3416,0.3446,0.3457,0.3461,0.3491,0.3502,0.3506,0.3534,0.3544,0.3551,0.358,0.3589,0.3589,0.3589,0.3589,0.3589,0.3589,0.3589,0.3589,0.3589,0.3589,0.3589,0.3589,0.3589,0.3589,0.3589,0.2694,0.1796,0.1796,0.1796,0.1796,0.1796,0.2919,0.2694,0.0224,0.0,0.0,0.0,0.0,0.0,0.0,0.0,0.0,0.0,0.0,0.0,0.0,0.0,0.0,0.0,0.0,-0.1066,-0.3625,-1.047,-1.1108,0.1385,0.1437,0.0,0.0,0.0,0.0,0.0,0.3794,0.0,0.0,0.0,0.0,0.0,0.0,0.0,0.0,0.0,0.0,0.0,0.0,0.0,0.0,0.0,0.0,0.0,0.0,0.0,0.0,0.0,0.0,0.0,0.0,0.0,0.0,0.0,0.0,0.0,0.0,0.3257,0.3257,0.3257,0.328,0.3322,0.3352,0.3366,0.3369,0.3399,0.3412,0.3412,0.3412,0.3412,0.3412,0.3412,0.3412,0.3412,0.3412,0.3412,0.3414,0.3422,0.3426,0.3427,0.3435,0.3453,0.3472,0.348,0.3499,0.3516,0.3527,0.3527,0.3527,0.3527,0.3527,0.3538,0.358,0.3589,0.3589,0.3589,0.3589,0.3589,0.3589,0.3589,0.3589,0.3594,0.3369,0.247,0.0898,0.0449,0.0449,0.0449,0.0898,0.0898,0.0,0.0,0.0,0.0,0.0,0.0,0.0,0.0,0.0,0.0,0.0,0.0,0.0,0.0,0.0,0.0,0.0,-0.0853,-0.2345,-0.7677,-0.917,0.1426,0.0,0.0,0.0,0.0,0.0,0.0,0.0,0.0,0.0,0.0,0.0,0.0,0.0,0.0,0.0,0.0,0.0,0.0,0.0,0.0,0.0,0.0,0.0,0.0,0.0,0.0,0.0,0.0,0.0,0.0,0.0,0.0,0.0,0.0,0.0,0.0,0.0,0.0,0.323,0.323,0.325,0.3285,0.3317,0.333,0.3332,0.3363,0.3382,0.3393,0.3393,0.3401,0.3412,0.3412,0.3412,0.3412,0.3412,0.3412,0.3412,0.3412,0.3412,0.3412,0.3412,0.3425,0.3441,0.3453,0.3469,0.3487,0.3499,0.3502,0.3502,0.3502,0.3502,0.3513,0.3549,0.3555,0.3555,0.3555,0.3565,0.3572,0.3572,0.3583,0.3594,0.3594,0.2694,0.1572,0.0224,0.0,0.0,0.0,0.0,0.0,0.0,0.0,0.0,0.0,0.0,0.0,0.0,0.0,0.0,0.0,0.0,0.0,0.0,0.0,0.0,0.0,0.0,-0.0639,-0.1706,-0.6392,-0.8306,0.1493,0.0,0.0,0.0,0.0,0.0,0.0,0.0,0.0,0.0,0.0,0.0,0.0,0.0,0.0,0.0,0.0,0.0,0.0,0.0,0.0,0.0,0.0,0.0,0.0,0.0,0.0,0.0,0.0,0.0,0.0,0.0,0.0,0.0,0.0,0.0,0.0,0.0,0.0,0.0,0.3228,0.323,0.3231,0.3262,0.3277,0.3281,0.3309,0.3337,0.3363,0.3366,0.3382,0.3408,0.3411,0.3412,0.3412,0.3412,0.3412,0.3412,0.3412,0.3412,0.3412,0.3412,0.3412,0.3416,0.3445,0.3453,0.3459,0.3486,0.3495,0.3495,0.3495,0.3495,0.3495,0.3495,0.3499,0.3502,0.3502,0.3524,0.3544,0.3549,0.3569,0.3589,0.3369,0.1347,0.0,0.0,0.0,0.0,0.0,0.0,0.0,0.0,0.0,0.0,0.0,0.0,0.0,0.0,0.0,0.0,0.0,0.0,0.0,0.0,0.0,0.0,0.0,0.0,-0.0639,-0.1705,-0.6384,-0.8508,0.1487,0.1682,0.0,0.0,0.0,0.0,0.0,0.0,0.0,0.0,0.0,0.0,0.0,0.0,0.0,0.0,0.0,0.0,0.0,0.0,0.0,0.0,0.0,0.0,0.0,0.0,0.0,0.0,0.0,0.0,0.0,0.0,0.0,0.0,0.0,0.0,0.3161,0.3186,0.3197,0.0,0.322,0.323,0.3231,0.3262,0.3288,0.3311,0.3318,0.3325,0.3332,0.3356,0.337,0.3378,0.3403,0.3412,0.3412,0.3412,0.3412,0.3412,0.3412,0.3412,0.3412,0.3412,0.3412,0.3412,0.3419,0.3422,0.3423,0.343,0.3431,0.3431,0.3431,0.3431,0.3431,0.3431,0.3468,0.3502,0.3502,0.3506,0.352,0.3544,0.3555,0.2897,0.1121,0.0449,0.0,0.0,0.0,0.0,0.0,0.0,0.0,0.0,0.0,0.0,0.0,0.0,0.0,0.0,0.0,0.0,0.0,0.0,0.0,0.0,0.0,0.0,0.0,0.0,-0.0639,-0.1705,-0.6384,-0.8508,0.1517,0.0,0.0,0.336,0.0,0.0,0.0,0.0,0.0,0.0,0.0,0.0,0.0,0.0,0.0,0.0,0.0,0.0,0.0,0.0,0.0,0.0,0.0,0.0,0.0,0.0,0.0,0.0,0.0,0.0,0.0,0.0,0.0,0.0,0.0,0.0,0.3144,0.3172,0.3189,0.3189,0.3217,0.323,0.3231,0.3246,0.3262,0.3277,0.3277,0.3285,0.33,0.3317,0.3332,0.3345,0.3362,0.3377,0.339,0.339,0.3399,0.3412,0.3412,0.3412,0.3412,0.3412,0.3412,0.3412,0.3412,0.3412,0.3412,0.3412,0.3412,0.3412,0.3412,0.3412,0.3412,0.3412,0.3006,0.2594,0.2594,0.3036,0.3486,0.3502,0.2637,0.1544,0.0222,0.0,0.0,0.0,0.0,0.0,0.0,0.0,0.0,0.0,0.0,0.0,0.0,0.0,0.0,0.0,0.0,0.0,0.0,0.0,0.0,0.0,0.0,0.0,0.0,0.0,-0.0639,-0.1705,-0.6384,-0.8508,0.1543,0.0,0.263,0.4121,0.4967,0.0,0.0,0.0,0.0,0.0,0.0,0.0,0.0,0.0,0.0,0.0,0.0,0.0,0.0,0.0,0.0,0.0,0.0,0.0,0.0,0.0,0.0,0.0,0.0,0.0,0.0,0.0,0.3231,0.3216,0.3168,0.3138,0.3127,0.3157,0.3172,0.3172,0.3201,0.3217,0.3223,0.3223,0.3225,0.323,0.323,0.3245,0.3268,0.3273,0.3291,0.3314,0.3318,0.3336,0.3359,0.3365,0.3382,0.3405,0.341,0.3412,0.3412,0.3412,0.3412,0.3412,0.3412,0.3412,0.3412,0.3412,0.3199,0.3198,0.3198,0.3199,0.3412,0.3412,0.2772,0.1919,0.1492,0.2144,0.2804,0.2808,0.1305,0.0,0.0,0.0,0.0,0.0,0.0,0.0,0.0,0.0,0.0,0.0,0.0,0.0,0.0,0.0,0.0,0.0,0.0,0.0,0.0,0.0,0.0,0.0,0.0,-0.0213,-0.0639,-0.0639,-0.1279,-0.2557,-0.6812,-0.8724,0.0,0.0,0.3837,0.0,0.518,0.6076,0.0,0.0,0.0,0.0,0.0,0.0,0.0,0.0,0.0,0.0,0.0,0.0,0.0,0.0,0.0,0.0,0.0,0.0,0.0,0.0,0.0,0.0,0.0,0.0,0.0,0.3273,0.3234,0.3157,0.3146,0.3118,0.3065,0.3095,0.311,0.311,0.314,0.3168,0.3194,0.3194,0.3208,0.323,0.323,0.3232,0.3238,0.3265,0.3279,0.3284,0.3311,0.3324,0.333,0.3356,0.3369,0.3377,0.3403,0.3412,0.3412,0.3412,0.3412,0.3412,0.3412,0.3412,0.3412,0.3412,0.2772,0.1919,0.1919,0.2558,0.3412,0.3412,0.3199,0.2558,0.0639,0.0427,0.0428,0.0431,0.0217,0.0,0.0,0.0,0.0,0.0,0.0,0.0,0.0,0.0,0.0,0.0,0.0,0.0,0.0,0.0,0.0,0.0,0.0,0.0,0.0,0.0,0.0,0.0,0.0,-0.1066,-0.2985,-0.2985,-0.3624,-0.5328,-0.8521,-1.0004,0.1682,0.2614,0.3556,0.0,0.4956,0.5672,0.6185,0.0,0.0,0.0,0.0,0.0,0.0,0.0,0.0,0.0,0.0,0.0,0.0,0.0,0.0,0.0,0.0,0.0,0.0,0.0,0.0,0.0,0.0,0.0,0.3201,0.3185,0.3157,0.3119,0.3101,0.0,0.3052,0.3082,0.3107,0.3123,0.3137,0.3159,0.3189,0.3189,0.3204,0.323,0.323,0.323,0.3231,0.3245,0.325,0.3251,0.3265,0.328,0.3298,0.331,0.3337,0.3369,0.3382,0.3397,0.3412,0.3412,0.3412,0.3412,0.3412,0.3412,0.3412,0.3412,0.2985,0.2345,0.1066,0.1066,0.1919,0.3198,0.2345,0.1279,0.0213,0.0,0.0,0.0,0.0,0.0,0.0,0.0,0.0,0.0,0.0,0.0,0.0,0.0,0.0,0.0,0.0,0.0,0.0,0.0,0.0,0.0,0.0,0.0,0.0,0.0,-0.0639,-0.1919,-0.0639,-0.1066,-0.3412,-0.7255,-0.8106,-0.6392,-1.0224,-1.1704,0.0,0.0,0.3257,0.3995,0.4582,0.5113,0.0,0.0,0.0,0.0,0.0,0.0,0.0,0.0,0.0,0.0,0.0,0.0,0.0,0.0,0.0,0.0,0.0,0.0,0.0,0.0,0.0,0.0,0.0,0.0,0.3131,0.311,0.3095,0.3086,0.3065,0.3052,0.3052,0.3074,0.3097,0.3119,0.3119,0.3135,0.3165,0.3165,0.318,0.3209,0.3224,0.323,0.323,0.323,0.323,0.323,0.323,0.3245,0.3265,0.3273,0.3305,0.3345,0.3362,0.317,0.2976,0.2982,0.2985,0.2985,0.2985,0.3198,0.3412,0.3412,0.2985,0.2132,0.0426,0.0,0.0426,0.2132,0.1279,0.0,0.0,0.0,0.0,0.0,0.0,0.0,0.0,0.0,0.0,0.0,0.0,0.0,0.0,0.0,0.0,0.0,0.0,0.0,0.0,0.0,0.0,0.0,0.0,0.0,0.0,0.0,-0.1066,-0.3412,-0.3411,-0.3624,-0.405,-0.9394,-1.0245,-0.7453,-1.128,-1.255,0.0,0.2252,0.0,0.3176,0.3676,0.0,0.0,0.0,0.0,0.0,0.0,0.0,0.0,0.0,0.0,0.0,0.0,0.0,0.0,0.0,0.0,0.0,0.0,0.0,0.0,0.0,0.0,0.0,0.0,0.0,0.3101,0.3099,0.3084,0.3055,0.3052,0.3052,0.3052,0.3054,0.3055,0.3056,0.3056,0.3073,0.3103,0.3103,0.3119,0.315,0.3206,0.323,0.323,0.323,0.323,0.323,0.323,0.3231,0.3236,0.3265,0.3277,0.3288,0.3347,0.2736,0.1686,0.1701,0.1706,0.1706,0.1706,0.2558,0.3412,0.3412,0.1919,0.0213,0.0,0.0,0.0,0.0213,0.0,0.0,0.0,0.0,0.0,0.0,0.0,0.0,0.0,0.0,0.0,0.0,0.0,0.0,0.0,0.0,0.0,0.0,0.0,0.0,0.0,0.0,0.0,0.0,0.0,0.0,0.0,0.0,-0.1066,-0.3412,-0.961,-1.0466,-0.5543,-0.6608,-0.7881,-0.936,-1.0632,-1.2113,0.0,0.0,0.0,0.2392,0.2739,0.2935,0.0,0.0,0.0,0.0,0.0,0.0,0.0,0.0,0.0,0.0,0.0,0.0,0.0,0.0,0.0,0.0,0.0,0.0,0.0,0.0,0.0,0.0,0.0,0.0,0.3069,0.3069,0.3063,0.3052,0.3052,0.3052,0.3052,0.3052,0.3052,0.3052,0.3052,0.3069,0.3097,0.3097,0.3114,0.3144,0.3165,0.3185,0.3204,0.3204,0.3215,0.3232,0.3232,0.3232,0.3234,0.3245,0.3261,0.3281,0.3303,0.3115,0.2505,0.1047,0.0631,0.0634,0.0634,0.0849,0.1279,0.1279,0.0639,0.0,0.0,0.0,0.0,0.0,0.0,0.0,0.0,0.0,0.0,0.0,0.0,0.0,0.0,0.0,0.0,0.0,0.0,0.0,0.0,0.0,0.0,0.0,0.0,0.0,0.0,0.0,0.0,0.0,0.0,-0.0639,-0.2132,-0.2132,-0.2985,-0.4904,-0.7677,-0.8316,-0.6392,-0.9583,-1.0852,-1.0632,-1.2329,-1.3602,0.1337,0.0,0.0,0.0,0.0,0.221,0.2372,0.0,0.0,0.0,0.0,0.0,0.0,0.0,0.0,0.0,0.0,0.0,0.0,0.0,0.0,0.0,0.0,0.0,0.0,0.0,0.0,0.0,0.0,0.0,0.3052,0.3052,0.3052,0.3052,0.3052,0.3052,0.3052,0.3052,0.3052,0.3052,0.3052,0.3063,0.3082,0.3082,0.3093,0.3112,0.3112,0.3135,0.3174,0.3185,0.3,0.2615,0.2624,0.2628,0.2628,0.2628,0.284,0.3265,0.3276,0.2881,0.2069,0.0415,0.0,0.0,0.0,0.0,0.0,0.0,0.0,0.0,0.0,0.0,0.0,0.0,0.0,0.0,0.0,0.0,0.0,0.0,0.0,0.0,0.0,0.0,0.0,0.0,0.0,0.0,0.0,0.0,0.0,0.0,0.0,0.0,0.0,0.0,0.0,0.0,0.0,-0.1066,-0.3412,-0.5545,-0.661,-0.6182,-0.8093,-0.873,-0.8302,-1.128,-1.2339,-1.169,-1.3602,-1.4663,0.0,0.0,0.0,0.0,0.0,0.0,0.0,0.0,0.0,0.0,0.0,0.0,0.0,0.0,0.0,0.0,0.0,0.0,0.0,0.0,0.0,0.0,0.0,0.0,0.0,0.0,0.0,0.0,0.0,0.305,0.3051,0.3052,0.3052,0.3052,0.3052,0.3052,0.3052,0.3051,0.3051,0.3052,0.3052,0.3052,0.3052,0.3054,0.3052,0.3052,0.3052,0.3085,0.3142,0.3172,0.2589,0.1595,0.161,0.1616,0.1616,0.1616,0.2222,0.3035,0.3064,0.1843,0.0,0.0,0.0,0.0,0.0,0.0,0.0,0.0,0.0,0.0,0.0,0.0,0.0,0.0,0.0,0.0,0.0,0.0,0.0,0.0,0.0,0.0,0.0,0.0,0.0,0.0,0.0,0.0,0.0,0.0,0.0,0.0,0.0,0.0,0.0,0.0,0.0,0.0,0.0,-0.1066,-0.3199,-0.9823,-1.1325,-0.6818,-1.1285,-1.2772,-1.1055,-1.1267,-1.169,-1.2757,-1.403,-1.5084,0.1111,0.0,0.0,0.0,0.0,0.0,0.0,0.0,0.0,0.0,0.0,0.0,0.0,0.0,0.0,0.0,0.0,0.0,0.0,0.0,0.0,0.0,0.0,0.0,0.0,0.0,0.0,0.0,0.2987,0.2996,0.3018,0.304,0.3052,0.3052,0.3052,0.3052,0.3052,0.3031,0.3031,0.3052,0.3052,0.3052,0.3052,0.3074,0.3073,0.3052,0.3052,0.3062,0.308,0.311,0.2951,0.2591,0.0999,0.0402,0.0404,0.0404,0.0606,0.0808,0.0811,0.0406,0.0,0.0,0.0,0.0,0.0,0.0,0.0,0.0,0.0,0.0,0.0,0.0,0.0,0.0,0.0,0.0,0.0,0.0,0.0,0.0,0.0,0.0,0.0,0.0,0.0,0.0,0.0,0.0,0.0,0.0,0.0,0.0,0.0,0.0,0.0,0.0,0.0,0.0,0.0,-0.0639,-0.2132,-0.7249,-0.917,-0.745,-1.0208,-1.1911,-1.2329,-1.2752,-1.2968,-1.3391,-1.4446,-1.571,0.1106,0.1136,0.0,0.0,0.0,0.0,0.0,0.2101,0.0,0.0,0.0,0.0,0.0,0.0,0.0,0.0,0.0,0.0,0.0,0.0,0.0,0.0,0.0,0.0,0.0,0.0,0.0,0.0,0.2961,0.2975,0.3005,0.3036,0.3052,0.3052,0.304,0.3033,0.3033,0.3003,0.2996,0.3014,0.3026,0.304,0.3054,0.3084,0.3088,0.3071,0.3071,0.3065,0.3054,0.3073,0.2525,0.1773,0.0397,0.0,0.0,0.0,0.0,0.0,0.0,0.0,0.0,0.0,0.0,0.0,0.0,0.0,0.0,0.0,0.0,0.0,0.0,0.0,0.0,0.0,0.0,0.0,0.0,0.0,0.0,0.0,0.0,0.0,0.0,0.0,0.0,0.0,0.0,0.0,0.0,0.0,0.0,0.0,0.0,0.0,0.0,0.0,0.0,0.0,0.0,-0.0426,-0.1705,-0.6177,-0.8306,-0.808,-1.0839,-1.254,-1.3391,-1.3607,-1.3791,-1.4161,-1.5203,-1.6008,0.1174,0.1197,0.0,0.0,0.0,0.0,0.1363,0.1862,0.0,0.0,0.0,0.0,0.0,0.0,0.0,0.0,0.0,0.0,0.0,0.0,0.0,0.0,0.0,0.0,0.0,0.0,0.2951,0.2951,0.2954,0.2968,0.2995,0.3025,0.3041,0.3041,0.3016,0.3002,0.3002,0.2972,0.2958,0.2961,0.2988,0.3017,0.2858,0.289,0.2904,0.3097,0.3097,0.3082,0.3056,0.2864,0.1727,0.0,0.0,0.0,0.0,0.0,0.0,0.0,0.0,0.0,0.0,0.0,0.0,0.0,0.0,0.0,0.0,0.0,0.0,0.0,0.0,0.0,0.0,0.0,0.0,0.0,0.0,0.0,0.0,0.0,0.0,0.0,0.0,0.0,0.0,0.0,0.0,0.0,0.0,0.0,0.0,0.0,0.0,0.0,0.0,0.0,-0.0213,-0.0426,-0.0426,-0.0853,-0.2131,-0.6387,-0.8724,-0.8717,-1.1901,-1.3808,-1.4429,-1.3797,-1.4161,-1.5301,-1.5691,-1.6028,0.1268,0.1245,0.1216,0.0,0.0,0.0,0.0,0.1447,0.0,0.0,0.0,0.0,0.0,0.0,0.0,0.0,0.0,0.0,0.0,0.0,0.0,0.0,0.0,0.0,0.0,0.0,0.2891,0.2891,0.2912,0.2927,0.2934,0.2962,0.2979,0.2979,0.2973,0.2971,0.2971,0.2941,0.2938,0.2961,0.2968,0.2612,0.1886,0.192,0.2323,0.3097,0.3097,0.3095,0.2894,0.134,0.0384,0.0,0.0,0.0,0.0,0.0,0.0,0.0,0.0,0.0,0.0,0.0,0.0,0.0,0.0,0.0,0.0,0.0,0.0,0.0,0.0,0.0,0.0,0.0,0.0,0.0,0.0,0.0,0.0,0.0,0.0,0.0,0.0,0.0,0.0,0.0,0.0,0.0,0.0,0.0,0.0,0.0,0.0,0.0,0.0,0.0,-0.0853,-0.2558,-0.2772,-0.3411,-0.4902,-0.8093,-0.9792,-0.978,-1.2329,-1.3769,-1.4296,-1.4087,-1.4695,-1.5704,-1.5802,-1.5943,0.1321,0.1303,0.1276,0.1261,0.0,0.0,0.0,0.0,0.0,0.0,0.0,0.0,0.0,0.0,0.0,0.0,0.0,0.0,0.0,0.0,0.0,0.0,0.0,0.0,0.0,0.0,0.2857,0.2872,0.2915,0.2932,0.2916,0.296,0.2977,0.2961,0.2947,0.2941,0.2941,0.2911,0.2902,0.2917,0.2932,0.2771,0.224,0.1143,0.1154,0.1538,0.1545,0.1544,0.1537,0.0382,0.0,0.0,0.0,0.0,0.0,0.0,0.0,0.0,0.0,0.0,0.0,0.0,0.0,0.0,0.0,0.0,0.0,0.0,0.0,0.0,0.0,0.0,0.0,0.0,0.0,0.0,0.0,0.0,0.0,0.0,0.0,0.0,0.0,0.0,0.0,0.0,0.0,0.0,0.0,0.0,0.0,0.0,0.0,0.0,0.0,0.0,-0.1066,-0.3199,-0.6613,-0.7893,-0.6395,-0.9796,-1.192,-1.1906,-1.2911,-1.3901,-1.4677,-1.4541,-1.4886,-1.5705,-1.5845,-1.6172,0.0,0.0,0.0,0.0,0.0,0.1273,0.0,0.0,0.0,0.0,0.0,0.0,0.0,0.0,0.0,0.0,0.0,0.0,0.0,0.0,0.0,0.0,0.0,0.0,0.0,0.0,0.2812,0.2837,0.2883,0.2901,0.2883,0.2934,0.2956,0.2936,0.2913,0.2724,0.2547,0.2525,0.2694,0.2874,0.2898,0.2744,0.2218,0.0754,0.0,0.0,0.0,0.0,0.0,0.0,0.0,0.0,0.0,0.0,0.0,0.0,0.0,0.0,0.0,0.0,0.0,0.0,0.0,0.0,0.0,0.0,0.0,0.0,0.0,0.0,0.0,0.0,0.0,0.0,0.0,0.0,0.0,0.0,0.0,0.0,0.0,0.0,0.0,0.0,0.0,0.0,0.0,0.0,0.0,0.0,0.0,0.0,0.0,-0.0213,-0.0639,-0.0639,-0.1492,-0.3624,-0.9181,-1.0891,-0.7456,-1.1285,-1.3396,-1.3569,-1.3471,-1.3817,-1.4807,-1.459,-1.4886,-1.5701,-1.6078,-1.6198,0.0,0.0,0.0,0.0,0.1318,0.0,0.0,0.0,0.0,0.0,0.0,0.0,0.0,0.0,0.0,0.0,0.0,0.0,0.0,0.0,0.0,0.0,0.0,0.0,0.0,0.0,0.0,0.2713,0.272,0.2733,0.2757,0.2791,0.2819,0.2842,0.2841,0.2496,0.1619,0.1617,0.1976,0.2874,0.2878,0.199,0.0366,0.0187,0.0,0.0,0.0,0.0,0.0,0.0,0.0,0.0,0.0,0.0,0.0,0.0,0.0,0.0,0.0,0.0,0.0,0.0,0.0,0.0,0.0,0.0,0.0,0.0,0.0,0.0,0.0,0.0,0.0,0.0,0.0,0.0,0.0,0.0,0.0,0.0,0.0,0.0,0.0,0.0,0.0,0.0,0.0,0.0,0.0,0.0,0.0,0.0,0.0,-0.0853,-0.2772,-0.2985,-0.3624,-0.533,-0.682,-0.8093,-0.9148,-1.1483,-1.3132,-1.3444,-1.3428,-1.352,-1.4118,-1.4089,-1.4684,-1.6307,-1.6171,-1.6096,0.0,0.0,0.0,0.0,0.0,0.0,0.0,0.0,0.1242,0.0,0.0,0.0,0.0,0.0,0.0,0.0,0.0,0.0,0.0,0.0,0.0,0.0,0.0,0.0,0.0,0.0,0.0,0.0,0.0,0.2662,0.2709,0.2774,0.2807,0.2803,0.2819,0.2657,0.2313,0.1074,0.0718,0.1257,0.1257,0.072,0.0,0.0,0.0,0.0,0.0,0.0,0.0,0.0,0.0,0.0,0.0,0.0,0.0,0.0,0.0,0.0,0.0,0.0,0.0,0.0,0.0,0.0,0.0,0.0,0.0,0.0,0.0,0.0,0.0,0.0,0.0,0.0,0.0,0.0,0.0,0.0,0.0,0.0,0.0,0.0,0.0,0.0,0.0,0.0,0.0,0.0,0.0,0.0,0.0,0.0,0.0,-0.0853,-0.3198,-0.7042,-0.8535,-0.6395,-0.8299,-0.9996,-1.1694,-1.2691,-1.3262,-1.3423,-1.3287,-1.3371,-1.3869,-1.3799,-1.4367,-1.517,-1.5512,-1.5678,0.171,0.0,0.0,0.0,0.0,0.0,0.0,0.0,0.0,0.0,0.0,0.0,0.0,0.0,0.0,0.0,0.0,0.0,0.0,0.0,0.0,0.0,0.0,0.0,0.0,0.0,0.0,0.0,0.0,0.0,0.243,0.236,0.258,0.2747,0.2784,0.2635,0.2121,0.0712,0.0,0.0,0.0,0.0,0.0,0.0,0.0,0.0,0.0,0.0,0.0,0.0,0.0,0.0,0.0,0.0,0.0,0.0,0.0,0.0,0.0,0.0,0.0,0.0,0.0,0.0,0.0,0.0,0.0,0.0,0.0,0.0,0.0,0.0,0.0,0.0,0.0,0.0,0.0,0.0,0.0,0.0,0.0,0.0,0.0,0.0,0.0,0.0,0.0,-0.0212,-0.0847,-0.0847,-0.0847,-0.0423,-0.0423,-0.1481,-0.3809,-0.8685,-1.0597,-0.8035,-1.0134,-1.2025,-1.3504,-1.339,-1.3325,-1.3325,-1.3124,-1.3222,-1.3621,-1.353,-1.3684,-1.4077,-1.4682,-1.5081,0.0,0.0,0.0,0.1689,0.0,0.0,0.0,0.0,0.131,0.0,0.0,0.0,0.0,0.0,0.0,0.0,0.0,0.0,0.0,0.0,0.0,0.0,0.0,0.0,0.0,0.0,0.0,0.0,0.0,0.0,0.1318,0.1399,0.1784,0.2653,0.271,0.1903,0.0177,0.0,0.0,0.0,0.0,0.0,0.0,0.0,0.0,0.0,0.0,0.0,0.0,0.0,0.0,0.0,0.0,0.0,0.0,0.0,0.0,0.0,0.0,0.0,0.0,0.0,0.0,0.0,0.0,0.0,0.0,0.0,0.0,0.0,0.0,0.0,0.0,0.0,0.0,0.0,0.0,0.0,0.0,0.0,0.0,0.0,0.0,0.0,0.0,0.0,0.0,-0.0831,-0.2911,-0.3119,-0.2703,-0.1661,-0.1454,-0.2492,-0.5192,-0.6229,-0.7883,-1.0364,-1.1601,-1.2631,-1.3249,-1.314,-1.308,-1.308,-1.296,-1.2895,-1.2895,-1.289,-1.2884,-1.289,-1.4083,-1.4875,0.0,0.0,0.1838,0.1767,0.0,0.0,0.0,0.0,0.0,0.0,0.0,0.0,0.0,0.0,0.0,0.0,0.0,0.0,0.0,0.0,0.0,0.0,0.0,0.0,0.0,0.0,0.0,0.0,0.0999,0.0,0.0,0.0448,0.0627,0.097,0.084,0.0687,0.0,0.0,0.0,0.0,0.0,0.0,0.0,0.0,0.0,0.0,0.0,0.0,-0.0186,-0.1303,-0.206,-0.1891,-0.1322,-0.0948,-0.0954,-0.0191,0.0,0.0,0.0,0.0,0.0,0.0,0.0,0.0,0.0,0.0,0.0,0.0,0.0,0.0,0.0,0.0,0.0,0.0,0.0,0.0,0.0,0.0,0.0,0.0,0.0,0.0,0.0,0.0,0.0,0.0,0.0,-0.0831,-0.2908,-0.6859,-0.8728,-0.6224,-0.5804,-0.663,-0.8087,-0.891,-1.0145,-1.2209,-1.2621,-1.3032,-1.3238,-1.3129,-1.3069,-1.3069,-1.295,-1.289,-1.289,-1.289,-1.289,-1.289,-1.3284,-1.3884,0.2147,0.2079,0.0,0.0,0.1846,0.0,0.1094,0.0,0.0,0.0,0.0,0.0,0.0,0.0,0.0,0.0461,0.044,0.0,0.0,0.0,0.0,0.0,0.0,0.0,0.0,0.0,0.2222,0.1475,0.0566,0.0,0.0,0.0,0.0,0.0,0.0,0.0,0.0,0.0,0.0,0.0,0.0,0.0,0.0,0.0,0.0,0.0,0.0,-0.0367,-0.1105,-0.2396,-0.2972,-0.3009,-0.2255,-0.2079,-0.1907,-0.0954,-0.0572,-0.0573,-0.0579,-0.0585,-0.0592,-0.0596,-0.04,0.0,0.0,0.0,0.0,0.0,0.0,0.0,0.0,0.0,0.0,0.0,0.0,0.0,0.0,0.0,0.0,0.0,0.0,0.0,0.0,0.0,-0.0203,-0.1026,-0.1234,-0.1851,-0.3702,-0.7818,-0.9877,-0.8014,-0.8004,-0.8614,-0.9849,-1.0666,-1.1686,-1.2909,-1.3113,-1.3113,-1.3113,-1.3004,-1.296,-1.3004,-1.2884,-1.2846,-1.289,-1.289,-1.289,-1.289,-1.289,-1.3284]}]]